<?xml version='1.0' encoding='UTF-8'?><gpx version="1.1" creator="JPX - https://github.com/jenetics/jpx" xmlns="http://www.topografix.com/GPX/1/1"><trk><trkseg><trkpt lat="45.50157755109481" lon="3.243750035495063"><ele>544.0</ele><time>2026-05-02T15:01:45Z</time></trkpt><trkpt lat="45.50149657688074" lon="3.2436656855675667"><ele>544.0</ele><time>2026-05-02T15:01:47.999Z</time></trkpt><trkpt lat="45.50146367187386" lon="3.2435110094402404"><ele>544.0</ele><time>2026-05-02T15:01:49.999Z</time></trkpt><trkpt lat="45.501460316537596" lon="3.243416213352651"><ele>544.0</ele><time>2026-05-02T15:01:50.999Z</time></trkpt><trkpt lat="45.50146031995061" lon="3.243249628110213"><ele>544.0</ele><time>2026-05-02T15:01:52.999Z</time></trkpt><trkpt lat="45.5014934099844" lon="3.2431026096906734"><ele>543.2</ele><time>2026-05-02T15:01:54.999Z</time></trkpt><trkpt lat="45.50152994025334" lon="3.2429553564787437"><ele>542.4</ele><time>2026-05-02T15:01:56.999Z</time></trkpt><trkpt lat="45.50157388149507" lon="3.2428154790398094"><ele>541.6</ele><time>2026-05-02T15:01:58.999Z</time></trkpt><trkpt lat="45.50163481667758" lon="3.242663097037785"><ele>540.8</ele><time>2026-05-02T15:02:00.999Z</time></trkpt><trkpt lat="45.50166881480158" lon="3.2425703911168875"><ele>540.0</ele><time>2026-05-02T15:02:01.999Z</time></trkpt><trkpt lat="45.50170666089358" lon="3.242467236554082"><ele>540.0</ele><time>2026-05-02T15:02:02.999Z</time></trkpt><trkpt lat="45.50174510516821" lon="3.2423566508912858"><ele>540.0</ele><time>2026-05-02T15:02:03.999Z</time></trkpt><trkpt lat="45.501782616522185" lon="3.2422426510037354"><ele>540.0</ele><time>2026-05-02T15:02:04.999Z</time></trkpt><trkpt lat="45.50181852270438" lon="3.2421278743650883"><ele>540.0</ele><time>2026-05-02T15:02:05.999Z</time></trkpt><trkpt lat="45.50185597980907" lon="3.242006259130815"><ele>540.0</ele><time>2026-05-02T15:02:06.999Z</time></trkpt><trkpt lat="45.50189484191597" lon="3.2418855705648912"><ele>540.0</ele><time>2026-05-02T15:02:07.999Z</time></trkpt><trkpt lat="45.50193854451914" lon="3.2417659612130016"><ele>539.4</ele><time>2026-05-02T15:02:08.999Z</time></trkpt><trkpt lat="45.50198000798002" lon="3.241646592062766"><ele>538.8</ele><time>2026-05-02T15:02:09.999Z</time></trkpt><trkpt lat="45.50202567940669" lon="3.2415209467883055"><ele>538.2</ele><time>2026-05-02T15:02:10.999Z</time></trkpt><trkpt lat="45.50206931992635" lon="3.2413940196573616"><ele>537.6</ele><time>2026-05-02T15:02:11.999Z</time></trkpt><trkpt lat="45.50211301085038" lon="3.2412730957358935"><ele>537.0</ele><time>2026-05-02T15:02:12.999Z</time></trkpt><trkpt lat="45.50215198939809" lon="3.241161162897499"><ele>538.6</ele><time>2026-05-02T15:02:13.999Z</time></trkpt><trkpt lat="45.502191763207314" lon="3.241044103538325"><ele>540.2</ele><time>2026-05-02T15:02:14.999Z</time></trkpt><trkpt lat="45.50223158516386" lon="3.2409278671807353"><ele>541.8</ele><time>2026-05-02T15:02:15.999Z</time></trkpt><trkpt lat="45.50227215197394" lon="3.2407989325881457"><ele>543.4</ele><time>2026-05-02T15:02:16.999Z</time></trkpt><trkpt lat="45.50229980435277" lon="3.2406581925436515"><ele>545.0</ele><time>2026-05-02T15:02:17.999Z</time></trkpt><trkpt lat="45.502329243362034" lon="3.240514792823518"><ele>545.0</ele><time>2026-05-02T15:02:18.999Z</time></trkpt><trkpt lat="45.50235811615033" lon="3.2403599848899827"><ele>545.0</ele><time>2026-05-02T15:02:19.999Z</time></trkpt><trkpt lat="45.5023885182869" lon="3.2401996031795286"><ele>545.0</ele><time>2026-05-02T15:02:20.999Z</time></trkpt><trkpt lat="45.50242299643596" lon="3.2400499953063364"><ele>545.0</ele><time>2026-05-02T15:02:21.999Z</time></trkpt><trkpt lat="45.502462651042464" lon="3.2398884812321236"><ele>544.6</ele><time>2026-05-02T15:02:22.999Z</time></trkpt><trkpt lat="45.50249604121567" lon="3.2397400866145527"><ele>544.2</ele><time>2026-05-02T15:02:23.999Z</time></trkpt><trkpt lat="45.50252714050838" lon="3.239608229443255"><ele>543.8</ele><time>2026-05-02T15:02:24.999Z</time></trkpt><trkpt lat="45.50255724901946" lon="3.239476661178625"><ele>543.4</ele><time>2026-05-02T15:02:25.999Z</time></trkpt><trkpt lat="45.50257914946342" lon="3.2393503615761543"><ele>543.0</ele><time>2026-05-02T15:02:26.999Z</time></trkpt><trkpt lat="45.502588751914324" lon="3.2392221213848615"><ele>543.0</ele><time>2026-05-02T15:02:27.999Z</time></trkpt><trkpt lat="45.50258824202901" lon="3.239096901820533"><ele>543.0</ele><time>2026-05-02T15:02:28.999Z</time></trkpt><trkpt lat="45.50258557876784" lon="3.238978394726323"><ele>543.0</ele><time>2026-05-02T15:02:29.999Z</time></trkpt><trkpt lat="45.50258111298633" lon="3.238861879022422"><ele>543.0</ele><time>2026-05-02T15:02:30.999Z</time></trkpt><trkpt lat="45.50257505492039" lon="3.238760760461381"><ele>543.0</ele><time>2026-05-02T15:02:31.999Z</time></trkpt><trkpt lat="45.50256186262242" lon="3.2386592538301966"><ele>543.0</ele><time>2026-05-02T15:02:32.999Z</time></trkpt><trkpt lat="45.50252097148591" lon="3.2385014354961146"><ele>543.5</ele><time>2026-05-02T15:02:34.999Z</time></trkpt><trkpt lat="45.502474726250604" lon="3.2383799567427776"><ele>544.0</ele><time>2026-05-02T15:02:36.999Z</time></trkpt><trkpt lat="45.50242654306046" lon="3.238298943033918"><ele>544.5</ele><time>2026-05-02T15:02:38.999Z</time></trkpt><trkpt lat="45.50236464486066" lon="3.2382555954081043"><ele>545.0</ele><time>2026-05-02T15:02:42.999Z</time></trkpt><trkpt lat="45.502272808560264" lon="3.2383728584422706"><ele>545.5</ele><time>2026-05-02T15:02:46.999Z</time></trkpt><trkpt lat="45.502256147567415" lon="3.2384882227076988"><ele>546.0</ele><time>2026-05-02T15:02:47.999Z</time></trkpt><trkpt lat="45.502247063743575" lon="3.238616786805184"><ele>546.0</ele><time>2026-05-02T15:02:48.999Z</time></trkpt><trkpt lat="45.502215895458455" lon="3.238774670194842"><ele>546.0</ele><time>2026-05-02T15:02:49.999Z</time></trkpt><trkpt lat="45.50222338904105" lon="3.2389755903498543"><ele>546.0</ele><time>2026-05-02T15:02:50.999Z</time></trkpt><trkpt lat="45.50222047954732" lon="3.2391467627326955"><ele>546.0</ele><time>2026-05-02T15:02:51.999Z</time></trkpt><trkpt lat="45.502212299534555" lon="3.239296148820526"><ele>545.8333333333334</ele><time>2026-05-02T15:02:52.999Z</time></trkpt><trkpt lat="45.502181978245645" lon="3.239431171340584"><ele>545.6666666666666</ele><time>2026-05-02T15:02:53.999Z</time></trkpt><trkpt lat="45.502163706608876" lon="3.2395602174367077"><ele>545.5</ele><time>2026-05-02T15:02:54.999Z</time></trkpt><trkpt lat="45.50214513396133" lon="3.2396894526954476"><ele>545.3333333333333</ele><time>2026-05-02T15:02:55.999Z</time></trkpt><trkpt lat="45.50214062316737" lon="3.2398087980319272"><ele>545.1666666666666</ele><time>2026-05-02T15:02:56.999Z</time></trkpt><trkpt lat="45.50211846463131" lon="3.2399136323493236"><ele>545.0</ele><time>2026-05-02T15:02:57.999Z</time></trkpt><trkpt lat="45.50210722844351" lon="3.240017948610357"><ele>545.0</ele><time>2026-05-02T15:02:58.999Z</time></trkpt><trkpt lat="45.50208781480504" lon="3.2401202040686257"><ele>545.0</ele><time>2026-05-02T15:02:59.999Z</time></trkpt><trkpt lat="45.50206222354648" lon="3.240225584305211"><ele>545.0</ele><time>2026-05-02T15:03:00.998Z</time></trkpt><trkpt lat="45.50201482599284" lon="3.2403192763673325"><ele>545.0</ele><time>2026-05-02T15:03:01.998Z</time></trkpt><trkpt lat="45.50197195094333" lon="3.240431219139505"><ele>545.0</ele><time>2026-05-02T15:03:02.998Z</time></trkpt><trkpt lat="45.50192932808584" lon="3.2405361540505213"><ele>545.0</ele><time>2026-05-02T15:03:03.998Z</time></trkpt><trkpt lat="45.50190719082497" lon="3.2406345026098693"><ele>543.2857142857143</ele><time>2026-05-02T15:03:04.998Z</time></trkpt><trkpt lat="45.50186335086151" lon="3.240719846963813"><ele>541.5714285714287</ele><time>2026-05-02T15:03:05.998Z</time></trkpt><trkpt lat="45.50182728610978" lon="3.240809852206033"><ele>539.8571428571429</ele><time>2026-05-02T15:03:06.998Z</time></trkpt><trkpt lat="45.50179092853279" lon="3.2408964278945858"><ele>538.1428571428571</ele><time>2026-05-02T15:03:07.998Z</time></trkpt><trkpt lat="45.50175598195426" lon="3.2409783607354594"><ele>536.4285714285713</ele><time>2026-05-02T15:03:08.998Z</time></trkpt><trkpt lat="45.50172514504867" lon="3.2410609477905488"><ele>534.7142857142857</ele><time>2026-05-02T15:03:09.998Z</time></trkpt><trkpt lat="45.50169456552595" lon="3.241144868691124"><ele>533.0</ele><time>2026-05-02T15:03:10.998Z</time></trkpt><trkpt lat="45.50166686770485" lon="3.2412259267908716"><ele>533.0</ele><time>2026-05-02T15:03:11.998Z</time></trkpt><trkpt lat="45.5016360818933" lon="3.241310079950798"><ele>533.0</ele><time>2026-05-02T15:03:13Z</time></trkpt><trkpt lat="45.50160257069688" lon="3.2413948929868996"><ele>533.0</ele><time>2026-05-02T15:03:14Z</time></trkpt><trkpt lat="45.501566190318336" lon="3.241485786989896"><ele>533.0</ele><time>2026-05-02T15:03:15Z</time></trkpt><trkpt lat="45.50152843758654" lon="3.2415839293455115"><ele>533.0</ele><time>2026-05-02T15:03:16Z</time></trkpt><trkpt lat="45.501488312392524" lon="3.2416768044046305"><ele>533.0</ele><time>2026-05-02T15:03:17Z</time></trkpt><trkpt lat="45.50142946339319" lon="3.2417489098801897"><ele>533.0</ele><time>2026-05-02T15:03:18Z</time></trkpt><trkpt lat="45.50139789062132" lon="3.241834832584016"><ele>533.8</ele><time>2026-05-02T15:03:19Z</time></trkpt><trkpt lat="45.50134893006106" lon="3.2419598831853684"><ele>534.5999999999999</ele><time>2026-05-02T15:03:21Z</time></trkpt><trkpt lat="45.50129856364652" lon="3.2420673834049225"><ele>535.4000000000001</ele><time>2026-05-02T15:03:23Z</time></trkpt><trkpt lat="45.501197899930794" lon="3.2420896569609114"><ele>536.2</ele><time>2026-05-02T15:03:25Z</time></trkpt><trkpt lat="45.50109906898866" lon="3.2421636405690024"><ele>537.0</ele><time>2026-05-02T15:03:27Z</time></trkpt><trkpt lat="45.50099775033441" lon="3.24221588615616"><ele>535.0</ele><time>2026-05-02T15:03:29Z</time></trkpt><trkpt lat="45.50095330157716" lon="3.242281260270718"><ele>533.0</ele><time>2026-05-02T15:03:30Z</time></trkpt><trkpt lat="45.500880008404415" lon="3.242411894702956"><ele>531.0</ele><time>2026-05-02T15:03:32Z</time></trkpt><trkpt lat="45.50080766149654" lon="3.242540132571668"><ele>529.0</ele><time>2026-05-02T15:03:34Z</time></trkpt><trkpt lat="45.50076109407444" lon="3.242667595074661"><ele>527.0</ele><time>2026-05-02T15:03:36Z</time></trkpt><trkpt lat="45.50070737856351" lon="3.242810433064615"><ele>527.0</ele><time>2026-05-02T15:03:37.999Z</time></trkpt><trkpt lat="45.50068837922731" lon="3.242968421005062"><ele>527.0</ele><time>2026-05-02T15:03:39.999Z</time></trkpt><trkpt lat="45.50067224446438" lon="3.243113077605495"><ele>527.0</ele><time>2026-05-02T15:03:41.999Z</time></trkpt><trkpt lat="45.50064944469635" lon="3.2432351440577625"><ele>527.0</ele><time>2026-05-02T15:03:43.999Z</time></trkpt><trkpt lat="45.50062469037862" lon="3.243362065352089"><ele>527.0</ele><time>2026-05-02T15:03:45.999Z</time></trkpt><trkpt lat="45.50058830211919" lon="3.2435063435058273"><ele>527.6666666666666</ele><time>2026-05-02T15:03:47.999Z</time></trkpt><trkpt lat="45.500537639372155" lon="3.2436244599183492"><ele>528.3333333333333</ele><time>2026-05-02T15:03:49.999Z</time></trkpt><trkpt lat="45.50047776112972" lon="3.24372633242683"><ele>529.0</ele><time>2026-05-02T15:03:51.999Z</time></trkpt><trkpt lat="45.50044165920751" lon="3.2438102997984655"><ele>529.6666666666666</ele><time>2026-05-02T15:03:53.999Z</time></trkpt><trkpt lat="45.50040189888265" lon="3.2439128755950555"><ele>530.3333333333334</ele><time>2026-05-02T15:03:56.999Z</time></trkpt><trkpt lat="45.50037367958462" lon="3.2440131042857394"><ele>531.0</ele><time>2026-05-02T15:03:58.999Z</time></trkpt><trkpt lat="45.50036565595207" lon="3.2441111767811464"><ele>532.0</ele><time>2026-05-02T15:04:00.999Z</time></trkpt><trkpt lat="45.500377728066304" lon="3.244229060585576"><ele>533.0</ele><time>2026-05-02T15:04:02.999Z</time></trkpt><trkpt lat="45.500401772444775" lon="3.2443727215348037"><ele>534.0</ele><time>2026-05-02T15:04:04.999Z</time></trkpt><trkpt lat="45.50042256930938" lon="3.2444924208571613"><ele>535.0</ele><time>2026-05-02T15:04:06.999Z</time></trkpt><trkpt lat="45.500464753783845" lon="3.2446334880035166"><ele>536.0</ele><time>2026-05-02T15:04:08.999Z</time></trkpt><trkpt lat="45.50051924588479" lon="3.2447530069250226"><ele>534.5</ele><time>2026-05-02T15:04:10.999Z</time></trkpt><trkpt lat="45.5005690551563" lon="3.2448459794000186"><ele>533.0</ele><time>2026-05-02T15:04:12.999Z</time></trkpt><trkpt lat="45.5006543808369" lon="3.244861636368568"><ele>531.5</ele><time>2026-05-02T15:04:14.999Z</time></trkpt><trkpt lat="45.50074213169877" lon="3.244893921614919"><ele>530.0</ele><time>2026-05-02T15:04:16.999Z</time></trkpt><trkpt lat="45.50082499301751" lon="3.2449333550855344"><ele>528.5</ele><time>2026-05-02T15:04:18.999Z</time></trkpt><trkpt lat="45.50091059271033" lon="3.244962907637845"><ele>527.0</ele><time>2026-05-02T15:04:20.999Z</time></trkpt><trkpt lat="45.5009905142751" lon="3.2450078928742574"><ele>527.0000000000001</ele><time>2026-05-02T15:04:22.999Z</time></trkpt><trkpt lat="45.501042878242885" lon="3.245109075705773"><ele>527.0</ele><time>2026-05-02T15:04:24.999Z</time></trkpt><trkpt lat="45.501088013106404" lon="3.245181725862965"><ele>527.0</ele><time>2026-05-02T15:04:26.999Z</time></trkpt><trkpt lat="45.501123747154715" lon="3.245256745572898"><ele>527.0</ele><time>2026-05-02T15:04:28.999Z</time></trkpt><trkpt lat="45.50114440558318" lon="3.2453476563809933"><ele>527.0</ele><time>2026-05-02T15:04:30.999Z</time></trkpt><trkpt lat="45.50118452555774" lon="3.2454383096144"><ele>527.0000000000001</ele><time>2026-05-02T15:04:32.999Z</time></trkpt><trkpt lat="45.50123132843575" lon="3.245523479821478"><ele>527.0</ele><time>2026-05-02T15:04:34.999Z</time></trkpt><trkpt lat="45.50128240758029" lon="3.245616023400728"><ele>528.1666666666666</ele><time>2026-05-02T15:04:37.999Z</time></trkpt><trkpt lat="45.50131502578565" lon="3.245699506208873"><ele>529.3333333333333</ele><time>2026-05-02T15:04:40.999Z</time></trkpt><trkpt lat="45.50134568137632" lon="3.2458319830482423"><ele>530.5</ele><time>2026-05-02T15:04:43.999Z</time></trkpt><trkpt lat="45.50136139354926" lon="3.245952457293669"><ele>531.6666666666666</ele><time>2026-05-02T15:04:45.999Z</time></trkpt><trkpt lat="45.50137299658292" lon="3.246048144595429"><ele>532.8333333333334</ele><time>2026-05-02T15:04:47.999Z</time></trkpt><trkpt lat="45.50137412053074" lon="3.2461791158281676"><ele>534.0</ele><time>2026-05-02T15:04:49.999Z</time></trkpt><trkpt lat="45.50141359627374" lon="3.2462890365529877"><ele>534.0</ele><time>2026-05-02T15:04:51.999Z</time></trkpt><trkpt lat="45.501455039550024" lon="3.2463703197654348"><ele>534.0</ele><time>2026-05-02T15:04:53.999Z</time></trkpt><trkpt lat="45.501499474928835" lon="3.2464540079224835"><ele>534.0</ele><time>2026-05-02T15:04:55.998Z</time></trkpt><trkpt lat="45.50154814182826" lon="3.2465392542096887"><ele>534.0</ele><time>2026-05-02T15:04:57.998Z</time></trkpt><trkpt lat="45.50160519472737" lon="3.2466240134442974"><ele>534.0</ele><time>2026-05-02T15:04:59.998Z</time></trkpt><trkpt lat="45.50166051335869" lon="3.246703014116545"><ele>534.0</ele><time>2026-05-02T15:05:01.998Z</time></trkpt><trkpt lat="45.50172400827147" lon="3.246748288264627"><ele>534.0</ele><time>2026-05-02T15:05:03.998Z</time></trkpt><trkpt lat="45.50166607007406" lon="3.2467106080771777"><ele>534.0</ele><time>2026-05-02T15:05:21.999Z</time></trkpt><trkpt lat="45.50161265169747" lon="3.246634662185989"><ele>534.0</ele><time>2026-05-02T15:05:23.999Z</time></trkpt><trkpt lat="45.50155128128533" lon="3.2465143598957438"><ele>534.0</ele><time>2026-05-02T15:05:25.999Z</time></trkpt><trkpt lat="45.501538521193964" lon="3.246648594271116"><ele>534.0</ele><time>2026-05-02T15:05:26.999Z</time></trkpt><trkpt lat="45.5015019295311" lon="3.246381059314818"><ele>534.0</ele><time>2026-05-02T15:05:27.999Z</time></trkpt><trkpt lat="45.50143612786198" lon="3.246289617591537"><ele>534.0</ele><time>2026-05-02T15:05:29.999Z</time></trkpt><trkpt lat="45.50142207723659" lon="3.24619330166754"><ele>534.0</ele><time>2026-05-02T15:05:31.999Z</time></trkpt><trkpt lat="45.501385621683795" lon="3.2461154537859747"><ele>534.0</ele><time>2026-05-02T15:05:32.999Z</time></trkpt><trkpt lat="45.501369406722596" lon="3.2459892009793117"><ele>534.0</ele><time>2026-05-02T15:05:34.999Z</time></trkpt><trkpt lat="45.50134634949019" lon="3.2458468873815334"><ele>534.0</ele><time>2026-05-02T15:05:36.999Z</time></trkpt><trkpt lat="45.501346746625515" lon="3.2457162775222805"><ele>531.8333333333334</ele><time>2026-05-02T15:05:38.999Z</time></trkpt><trkpt lat="45.50123194943999" lon="3.24567874866262"><ele>529.6666666666666</ele><time>2026-05-02T15:05:44.999Z</time></trkpt><trkpt lat="45.50116660438224" lon="3.245713837488093"><ele>527.5</ele><time>2026-05-02T15:05:46.999Z</time></trkpt><trkpt lat="45.50109231561574" lon="3.2457210428168497"><ele>525.3333333333333</ele><time>2026-05-02T15:05:48.999Z</time></trkpt><trkpt lat="45.501012214036905" lon="3.245743185578706"><ele>523.1666666666666</ele><time>2026-05-02T15:05:50.999Z</time></trkpt><trkpt lat="45.50093555133448" lon="3.2457630725629354"><ele>521.0</ele><time>2026-05-02T15:05:52.999Z</time></trkpt><trkpt lat="45.50085791528905" lon="3.245788163765313"><ele>521.0</ele><time>2026-05-02T15:05:54.999Z</time></trkpt><trkpt lat="45.500778890267384" lon="3.245793801234365"><ele>521.0</ele><time>2026-05-02T15:05:56.999Z</time></trkpt><trkpt lat="45.500711974038275" lon="3.245794962934432"><ele>521.0</ele><time>2026-05-02T15:05:58.999Z</time></trkpt><trkpt lat="45.500639649101494" lon="3.2457944474889957"><ele>521.0</ele><time>2026-05-02T15:06:00.999Z</time></trkpt><trkpt lat="45.50056401257335" lon="3.2458192098827143"><ele>521.0</ele><time>2026-05-02T15:06:02.999Z</time></trkpt><trkpt lat="45.5004891834104" lon="3.245846524080827"><ele>521.0</ele><time>2026-05-02T15:06:04.999Z</time></trkpt><trkpt lat="45.50041392207295" lon="3.2458468065767123"><ele>521.0</ele><time>2026-05-02T15:06:07.999Z</time></trkpt><trkpt lat="45.50035514683323" lon="3.245963095618357"><ele>517.8</ele><time>2026-05-02T15:06:11.999Z</time></trkpt><trkpt lat="45.50035120194334" lon="3.2460531817321354"><ele>514.6</ele><time>2026-05-02T15:06:12.999Z</time></trkpt><trkpt lat="45.500337626586365" lon="3.246219327756666"><ele>511.4</ele><time>2026-05-02T15:06:14.999Z</time></trkpt><trkpt lat="45.500323418834405" lon="3.2463863658339687"><ele>508.2</ele><time>2026-05-02T15:06:16.999Z</time></trkpt><trkpt lat="45.50030375910666" lon="3.2465476205675277"><ele>505.0</ele><time>2026-05-02T15:06:18.999Z</time></trkpt><trkpt lat="45.50027129995861" lon="3.2467016408410094"><ele>505.0</ele><time>2026-05-02T15:06:20.999Z</time></trkpt><trkpt lat="45.50020292781567" lon="3.2468172409161493"><ele>505.0</ele><time>2026-05-02T15:06:22.999Z</time></trkpt><trkpt lat="45.50006646958345" lon="3.2466972552579363"><ele>505.0</ele><time>2026-05-02T15:06:25.999Z</time></trkpt><trkpt lat="45.499982799367736" lon="3.2465752382819635"><ele>505.0</ele><time>2026-05-02T15:06:27.999Z</time></trkpt><trkpt lat="45.49989977320934" lon="3.2464421480566394"><ele>505.0</ele><time>2026-05-02T15:06:29.999Z</time></trkpt><trkpt lat="45.49983410750558" lon="3.2463048090380298"><ele>505.0</ele><time>2026-05-02T15:06:31.999Z</time></trkpt><trkpt lat="45.49978941447766" lon="3.246172844453224"><ele>505.0</ele><time>2026-05-02T15:06:33.999Z</time></trkpt><trkpt lat="45.499723336438784" lon="3.2460729593812436"><ele>505.0</ele><time>2026-05-02T15:06:35.999Z</time></trkpt><trkpt lat="45.49963990603811" lon="3.2459984268569437"><ele>505.0</ele><time>2026-05-02T15:06:37.999Z</time></trkpt><trkpt lat="45.499570581491994" lon="3.245961887729453"><ele>502.33333333333337</ele><time>2026-05-02T15:06:39.999Z</time></trkpt><trkpt lat="45.499501302813634" lon="3.245981178099948"><ele>499.6666666666667</ele><time>2026-05-02T15:06:45.999Z</time></trkpt><trkpt lat="45.49949739513996" lon="3.2461179208441577"><ele>497.0</ele><time>2026-05-02T15:06:46.999Z</time></trkpt><trkpt lat="45.499511031270785" lon="3.246215802485235"><ele>494.33333333333337</ele><time>2026-05-02T15:06:47.999Z</time></trkpt><trkpt lat="45.4995110811319" lon="3.2463135897130155"><ele>491.6666666666667</ele><time>2026-05-02T15:06:48.998Z</time></trkpt><trkpt lat="45.49950988223134" lon="3.2464244933956645"><ele>489.0</ele><time>2026-05-02T15:06:49.998Z</time></trkpt><trkpt lat="45.4995092769715" lon="3.246530367921831"><ele>487.79999999999995</ele><time>2026-05-02T15:06:50.998Z</time></trkpt><trkpt lat="45.499506304200715" lon="3.2466412975227414"><ele>486.59999999999997</ele><time>2026-05-02T15:06:51.998Z</time></trkpt><trkpt lat="45.49950052574484" lon="3.2467579646917297"><ele>485.4</ele><time>2026-05-02T15:06:52.998Z</time></trkpt><trkpt lat="45.4994927912127" lon="3.2469018071301154"><ele>484.2</ele><time>2026-05-02T15:06:54.998Z</time></trkpt><trkpt lat="45.49950959695643" lon="3.247059536325585"><ele>483.0</ele><time>2026-05-02T15:06:56.998Z</time></trkpt><trkpt lat="45.499524496252924" lon="3.2472143368621915"><ele>482.0</ele><time>2026-05-02T15:06:58.998Z</time></trkpt><trkpt lat="45.4995466607421" lon="3.2473611949333767"><ele>480.99999999999994</ele><time>2026-05-02T15:07:00.998Z</time></trkpt><trkpt lat="45.499596535713785" lon="3.247514558302689"><ele>479.99999999999994</ele><time>2026-05-02T15:07:02.998Z</time></trkpt><trkpt lat="45.499631273535" lon="3.2476022370297257"><ele>479.0</ele><time>2026-05-02T15:07:03.998Z</time></trkpt><trkpt lat="45.499677256497854" lon="3.2476983105867796"><ele>478.0</ele><time>2026-05-02T15:07:04.998Z</time></trkpt><trkpt lat="45.49973889109957" lon="3.247782453271466"><ele>478.33333333333337</ele><time>2026-05-02T15:07:05.998Z</time></trkpt><trkpt lat="45.49979289419353" lon="3.247882474635115"><ele>478.6666666666667</ele><time>2026-05-02T15:07:06.998Z</time></trkpt><trkpt lat="45.499844732134484" lon="3.2479817416449452"><ele>479.0</ele><time>2026-05-02T15:07:07.998Z</time></trkpt><trkpt lat="45.4998768373375" lon="3.2480937491140645"><ele>479.33333333333337</ele><time>2026-05-02T15:07:08.998Z</time></trkpt><trkpt lat="45.499916810972096" lon="3.2481987713674965"><ele>479.6666666666667</ele><time>2026-05-02T15:07:09.998Z</time></trkpt><trkpt lat="45.49995114037582" lon="3.2483146124086173"><ele>480.0</ele><time>2026-05-02T15:07:10.998Z</time></trkpt><trkpt lat="45.499976692192455" lon="3.24845220191605"><ele>480.0</ele><time>2026-05-02T15:07:11.998Z</time></trkpt><trkpt lat="45.50000135616487" lon="3.2486018472049567"><ele>480.0</ele><time>2026-05-02T15:07:12.998Z</time></trkpt><trkpt lat="45.500023777098164" lon="3.248765303174224"><ele>480.0</ele><time>2026-05-02T15:07:13.998Z</time></trkpt><trkpt lat="45.50004486450512" lon="3.248944223427829"><ele>480.0</ele><time>2026-05-02T15:07:14.998Z</time></trkpt><trkpt lat="45.50007154580749" lon="3.2491467914801726"><ele>477.75</ele><time>2026-05-02T15:07:15.998Z</time></trkpt><trkpt lat="45.50009707239784" lon="3.2493362194066755"><ele>475.5</ele><time>2026-05-02T15:07:16.998Z</time></trkpt><trkpt lat="45.50011800834032" lon="3.249497492072284"><ele>473.25</ele><time>2026-05-02T15:07:17.998Z</time></trkpt><trkpt lat="45.500138983611485" lon="3.2496617735778686"><ele>471.0</ele><time>2026-05-02T15:07:18.998Z</time></trkpt><trkpt lat="45.500160993395255" lon="3.2498257964990556"><ele>469.6</ele><time>2026-05-02T15:07:19.998Z</time></trkpt><trkpt lat="45.50019337192548" lon="3.249977488581429"><ele>468.20000000000005</ele><time>2026-05-02T15:07:20.998Z</time></trkpt><trkpt lat="45.500196458570144" lon="3.2501327332597523"><ele>466.79999999999995</ele><time>2026-05-02T15:07:21.998Z</time></trkpt><trkpt lat="45.500205278731094" lon="3.2502820818956137"><ele>465.4</ele><time>2026-05-02T15:07:22.998Z</time></trkpt><trkpt lat="45.50020892016503" lon="3.2504243046489982"><ele>464.0</ele><time>2026-05-02T15:07:23.998Z</time></trkpt><trkpt lat="45.50021262495026" lon="3.2505750379828457"><ele>462.4</ele><time>2026-05-02T15:07:24.999Z</time></trkpt><trkpt lat="45.50021650901789" lon="3.2507184938695706"><ele>460.79999999999995</ele><time>2026-05-02T15:07:25.999Z</time></trkpt><trkpt lat="45.50022029201804" lon="3.2508582169526847"><ele>459.20000000000005</ele><time>2026-05-02T15:07:26.999Z</time></trkpt><trkpt lat="45.50022439762437" lon="3.25099727597914"><ele>457.6</ele><time>2026-05-02T15:07:27.999Z</time></trkpt><trkpt lat="45.500248527727706" lon="3.2511274517800417"><ele>456.0</ele><time>2026-05-02T15:07:28.999Z</time></trkpt><trkpt lat="45.50026139360825" lon="3.251246184543012"><ele>456.0</ele><time>2026-05-02T15:07:29.999Z</time></trkpt><trkpt lat="45.500279728082916" lon="3.2513606674972584"><ele>456.0</ele><time>2026-05-02T15:07:30.999Z</time></trkpt><trkpt lat="45.50033750184078" lon="3.2514522299944937"><ele>456.0</ele><time>2026-05-02T15:07:31.999Z</time></trkpt><trkpt lat="45.50035835370479" lon="3.2515602953528373"><ele>456.0</ele><time>2026-05-02T15:07:32.999Z</time></trkpt><trkpt lat="45.50039342555064" lon="3.251659758074421"><ele>456.0</ele><time>2026-05-02T15:07:33.999Z</time></trkpt><trkpt lat="45.50042443174027" lon="3.251756755669391"><ele>456.0</ele><time>2026-05-02T15:07:34.999Z</time></trkpt><trkpt lat="45.500455083003" lon="3.2518616404672502"><ele>456.8333333333333</ele><time>2026-05-02T15:07:35.999Z</time></trkpt><trkpt lat="45.500475020672994" lon="3.2519700006140195"><ele>457.66666666666663</ele><time>2026-05-02T15:07:36.999Z</time></trkpt><trkpt lat="45.50048169992339" lon="3.2520898203735915"><ele>458.5</ele><time>2026-05-02T15:07:37.999Z</time></trkpt><trkpt lat="45.500479155619146" lon="3.2522184339248454"><ele>459.3333333333333</ele><time>2026-05-02T15:07:38.999Z</time></trkpt><trkpt lat="45.500471385083294" lon="3.2523405561459584"><ele>460.16666666666663</ele><time>2026-05-02T15:07:39.999Z</time></trkpt><trkpt lat="45.500457812171064" lon="3.2524453334788515"><ele>461.0</ele><time>2026-05-02T15:07:40.999Z</time></trkpt><trkpt lat="45.500375591055224" lon="3.2525688872569174"><ele>459.3333333333333</ele><time>2026-05-02T15:07:42.999Z</time></trkpt><trkpt lat="45.5002971823108" lon="3.2525713016307547"><ele>457.66666666666663</ele><time>2026-05-02T15:07:43.999Z</time></trkpt><trkpt lat="45.50022429826247" lon="3.252521972403997"><ele>456.0</ele><time>2026-05-02T15:07:44.999Z</time></trkpt><trkpt lat="45.500164994493" lon="3.2524395877962036"><ele>454.33333333333337</ele><time>2026-05-02T15:07:45.999Z</time></trkpt><trkpt lat="45.500097637710475" lon="3.252335823794091"><ele>452.6666666666667</ele><time>2026-05-02T15:07:46.999Z</time></trkpt><trkpt lat="45.50003784451915" lon="3.252229674383921"><ele>451.0</ele><time>2026-05-02T15:07:47.999Z</time></trkpt><trkpt lat="45.499982403952664" lon="3.2521379494370963"><ele>451.0</ele><time>2026-05-02T15:07:48.999Z</time></trkpt><trkpt lat="45.49992255251203" lon="3.2520730796683277"><ele>451.0</ele><time>2026-05-02T15:07:49.999Z</time></trkpt><trkpt lat="45.499857857279764" lon="3.2520563267772324"><ele>451.0</ele><time>2026-05-02T15:07:50.999Z</time></trkpt><trkpt lat="45.4997897277477" lon="3.2520817269346214"><ele>451.0</ele><time>2026-05-02T15:07:51.999Z</time></trkpt><trkpt lat="45.499728352610894" lon="3.2521307266102877"><ele>451.0</ele><time>2026-05-02T15:07:52.999Z</time></trkpt><trkpt lat="45.49968041958707" lon="3.2522024137243473"><ele>451.0</ele><time>2026-05-02T15:07:53.999Z</time></trkpt><trkpt lat="45.49964672930279" lon="3.2522860258154656"><ele>451.0</ele><time>2026-05-02T15:07:54.999Z</time></trkpt><trkpt lat="45.49962490172512" lon="3.2523742314833974"><ele>450.57142857142856</ele><time>2026-05-02T15:07:55.999Z</time></trkpt><trkpt lat="45.499606714150815" lon="3.2524648764857536"><ele>450.14285714285717</ele><time>2026-05-02T15:07:56.999Z</time></trkpt><trkpt lat="45.49959112006862" lon="3.2525524287373355"><ele>449.7142857142857</ele><time>2026-05-02T15:07:57.999Z</time></trkpt><trkpt lat="45.49956334508066" lon="3.2526407358513074"><ele>449.2857142857143</ele><time>2026-05-02T15:07:58.999Z</time></trkpt><trkpt lat="45.499584447729006" lon="3.2527379804190035"><ele>448.8571428571429</ele><time>2026-05-02T15:07:59.999Z</time></trkpt><trkpt lat="45.49961258221957" lon="3.2528269744351572"><ele>448.42857142857144</ele><time>2026-05-02T15:08:00.999Z</time></trkpt><trkpt lat="45.49966195615954" lon="3.252897264635667"><ele>448.0</ele><time>2026-05-02T15:08:01.999Z</time></trkpt><trkpt lat="45.499720621069976" lon="3.252956246797045"><ele>448.00000000000006</ele><time>2026-05-02T15:08:02.999Z</time></trkpt><trkpt lat="45.49976265690234" lon="3.253038093943623"><ele>448.0</ele><time>2026-05-02T15:08:03.999Z</time></trkpt><trkpt lat="45.49981102889908" lon="3.253114763291558"><ele>448.0</ele><time>2026-05-02T15:08:04.999Z</time></trkpt><trkpt lat="45.49985524035557" lon="3.2531844659617932"><ele>448.0</ele><time>2026-05-02T15:08:05.999Z</time></trkpt><trkpt lat="45.49985598237902" lon="3.253282946744851"><ele>448.00000000000006</ele><time>2026-05-02T15:08:06.999Z</time></trkpt><trkpt lat="45.49976670353326" lon="3.253397889270676"><ele>448.0</ele><time>2026-05-02T15:08:08.999Z</time></trkpt><trkpt lat="45.499692792519255" lon="3.253389199258197"><ele>447.33333333333337</ele><time>2026-05-02T15:08:09.999Z</time></trkpt><trkpt lat="45.499640085794546" lon="3.2533033870299093"><ele>446.6666666666667</ele><time>2026-05-02T15:08:10.999Z</time></trkpt><trkpt lat="45.49957387055844" lon="3.253250676250338"><ele>446.0</ele><time>2026-05-02T15:08:11.999Z</time></trkpt><trkpt lat="45.499506922964805" lon="3.2531909390787597"><ele>445.33333333333337</ele><time>2026-05-02T15:08:12.999Z</time></trkpt><trkpt lat="45.49943022970549" lon="3.253171491575052"><ele>444.6666666666667</ele><time>2026-05-02T15:08:13.999Z</time></trkpt><trkpt lat="45.499358599140784" lon="3.253218206358892"><ele>444.0</ele><time>2026-05-02T15:08:14.999Z</time></trkpt><trkpt lat="45.49931996207537" lon="3.25331688281853"><ele>441.1666666666667</ele><time>2026-05-02T15:08:15.999Z</time></trkpt><trkpt lat="45.499320279998706" lon="3.2534283607181904"><ele>438.33333333333337</ele><time>2026-05-02T15:08:16.999Z</time></trkpt><trkpt lat="45.49933812468537" lon="3.253534477928377"><ele>435.5</ele><time>2026-05-02T15:08:17.999Z</time></trkpt><trkpt lat="45.4994030034182" lon="3.2536166333302328"><ele>432.6666666666667</ele><time>2026-05-02T15:08:18.999Z</time></trkpt><trkpt lat="45.49945399676179" lon="3.2536946774515454"><ele>429.83333333333337</ele><time>2026-05-02T15:08:19.999Z</time></trkpt><trkpt lat="45.4995099520389" lon="3.2537743825517653"><ele>427.0</ele><time>2026-05-02T15:08:20.999Z</time></trkpt><trkpt lat="45.49957619848255" lon="3.253866571833912"><ele>428.40000000000003</ele><time>2026-05-02T15:08:21.999Z</time></trkpt><trkpt lat="45.49965128620069" lon="3.25397599677908"><ele>429.80000000000007</ele><time>2026-05-02T15:08:22.999Z</time></trkpt><trkpt lat="45.49971145980184" lon="3.2540835968360375"><ele>431.2</ele><time>2026-05-02T15:08:23.999Z</time></trkpt><trkpt lat="45.49975403070826" lon="3.254204548974532"><ele>432.6</ele><time>2026-05-02T15:08:24.999Z</time></trkpt><trkpt lat="45.49976095886814" lon="3.2543242682667084"><ele>434.0</ele><time>2026-05-02T15:08:25.999Z</time></trkpt><trkpt lat="45.49975494346804" lon="3.2544464933433743"><ele>433.99999999999994</ele><time>2026-05-02T15:08:26.999Z</time></trkpt><trkpt lat="45.49975310443441" lon="3.254574513382406"><ele>434.0</ele><time>2026-05-02T15:08:27.999Z</time></trkpt><trkpt lat="45.499768040149725" lon="3.2546986495132275"><ele>434.0</ele><time>2026-05-02T15:08:28.999Z</time></trkpt><trkpt lat="45.499776000563415" lon="3.2548153796812307"><ele>434.0</ele><time>2026-05-02T15:08:29.999Z</time></trkpt><trkpt lat="45.4997757659908" lon="3.2549340157137263"><ele>433.99999999999994</ele><time>2026-05-02T15:08:30.999Z</time></trkpt><trkpt lat="45.49983211005611" lon="3.2550387528134284"><ele>434.0</ele><time>2026-05-02T15:08:31.999Z</time></trkpt><trkpt lat="45.4998728439842" lon="3.255150840129354"><ele>432.0</ele><time>2026-05-02T15:08:32.999Z</time></trkpt><trkpt lat="45.49992350244935" lon="3.255273659196887"><ele>430.0</ele><time>2026-05-02T15:08:33.999Z</time></trkpt><trkpt lat="45.49996451340636" lon="3.2554088196928124"><ele>428.0</ele><time>2026-05-02T15:08:34.999Z</time></trkpt><trkpt lat="45.50002939993003" lon="3.2555171728067593"><ele>426.0</ele><time>2026-05-02T15:08:35.999Z</time></trkpt><trkpt lat="45.500052383060314" lon="3.255630702219358"><ele>424.0</ele><time>2026-05-02T15:08:36.999Z</time></trkpt><trkpt lat="45.50007712369371" lon="3.255721772362454"><ele>422.83333333333337</ele><time>2026-05-02T15:08:37.999Z</time></trkpt><trkpt lat="45.500086146187265" lon="3.25587346143548"><ele>421.6666666666667</ele><time>2026-05-02T15:08:39.999Z</time></trkpt><trkpt lat="45.5000370225867" lon="3.2559357361776926"><ele>420.5</ele><time>2026-05-02T15:08:40.999Z</time></trkpt><trkpt lat="45.49997039986862" lon="3.255968553614415"><ele>419.33333333333337</ele><time>2026-05-02T15:08:41.999Z</time></trkpt><trkpt lat="45.49989717795327" lon="3.2559743505972705"><ele>418.1666666666667</ele><time>2026-05-02T15:08:42.999Z</time></trkpt><trkpt lat="45.499825628972765" lon="3.2559864233232365"><ele>417.0</ele><time>2026-05-02T15:08:43.999Z</time></trkpt><trkpt lat="45.49975634290453" lon="3.2559991277172298"><ele>417.0</ele><time>2026-05-02T15:08:44.999Z</time></trkpt><trkpt lat="45.49968650113917" lon="3.2560196497167726"><ele>417.0</ele><time>2026-05-02T15:08:45.999Z</time></trkpt><trkpt lat="45.49962525734527" lon="3.256045553208657"><ele>417.0</ele><time>2026-05-02T15:08:46.999Z</time></trkpt><trkpt lat="45.499546787937575" lon="3.2561133322982037"><ele>417.0</ele><time>2026-05-02T15:08:48.999Z</time></trkpt><trkpt lat="45.499532834637165" lon="3.2562111697120244"><ele>417.0</ele><time>2026-05-02T15:09:02.998Z</time></trkpt><trkpt lat="45.499558471155304" lon="3.256293626850221"><ele>417.0</ele><time>2026-05-02T15:09:03.998Z</time></trkpt><trkpt lat="45.499609930570685" lon="3.256375524811319"><ele>417.0</ele><time>2026-05-02T15:09:04.998Z</time></trkpt><trkpt lat="45.49967235035139" lon="3.2564573871469658"><ele>415.8</ele><time>2026-05-02T15:09:05.998Z</time></trkpt><trkpt lat="45.49974373791409" lon="3.256548077817058"><ele>414.6</ele><time>2026-05-02T15:09:06.998Z</time></trkpt><trkpt lat="45.49983121232759" lon="3.256648413866539"><ele>413.40000000000003</ele><time>2026-05-02T15:09:07.998Z</time></trkpt><trkpt lat="45.49992135959001" lon="3.256761831059887"><ele>412.20000000000005</ele><time>2026-05-02T15:09:08.998Z</time></trkpt><trkpt lat="45.49999897025082" lon="3.2568601697433186"><ele>411.0</ele><time>2026-05-02T15:09:09.998Z</time></trkpt><trkpt lat="45.50009296171854" lon="3.2569515242691005"><ele>411.0</ele><time>2026-05-02T15:09:10.998Z</time></trkpt><trkpt lat="45.500196569954205" lon="3.257050925315665"><ele>411.0</ele><time>2026-05-02T15:09:11.998Z</time></trkpt><trkpt lat="45.50031099598945" lon="3.257148581131601"><ele>411.0</ele><time>2026-05-02T15:09:12.998Z</time></trkpt><trkpt lat="45.500434768896646" lon="3.257234267017228"><ele>411.0</ele><time>2026-05-02T15:09:13.998Z</time></trkpt><trkpt lat="45.500561906642226" lon="3.2573166098052377"><ele>409.75</ele><time>2026-05-02T15:09:14.998Z</time></trkpt><trkpt lat="45.50068451131286" lon="3.257396246905291"><ele>408.5</ele><time>2026-05-02T15:09:15.998Z</time></trkpt><trkpt lat="45.50080849342113" lon="3.2574787072846187"><ele>407.25</ele><time>2026-05-02T15:09:16.998Z</time></trkpt><trkpt lat="45.5009389848555" lon="3.2575624985813816"><ele>406.0</ele><time>2026-05-02T15:09:17.998Z</time></trkpt><trkpt lat="45.50107157046363" lon="3.257650864961498"><ele>406.0</ele><time>2026-05-02T15:09:18.998Z</time></trkpt><trkpt lat="45.501206365296966" lon="3.2577427136241854"><ele>406.0</ele><time>2026-05-02T15:09:19.998Z</time></trkpt><trkpt lat="45.501340779141515" lon="3.2578324849689206"><ele>406.0</ele><time>2026-05-02T15:09:20.998Z</time></trkpt><trkpt lat="45.501477797386364" lon="3.257920221649849"><ele>406.0</ele><time>2026-05-02T15:09:21.998Z</time></trkpt><trkpt lat="45.50161220806644" lon="3.258008957955232"><ele>405.25</ele><time>2026-05-02T15:09:22.998Z</time></trkpt><trkpt lat="45.501748810707056" lon="3.258095599520483"><ele>404.5</ele><time>2026-05-02T15:09:23.998Z</time></trkpt><trkpt lat="45.501882998233775" lon="3.2581833178250963"><ele>403.75</ele><time>2026-05-02T15:09:24.998Z</time></trkpt><trkpt lat="45.502006846089465" lon="3.258304343904258"><ele>403.0</ele><time>2026-05-02T15:09:25.998Z</time></trkpt><trkpt lat="45.50214083569365" lon="3.258398391114095"><ele>408.33333333333337</ele><time>2026-05-02T15:09:26.998Z</time></trkpt><trkpt lat="45.50226324297641" lon="3.258528477286433"><ele>413.66666666666663</ele><time>2026-05-02T15:09:27.998Z</time></trkpt><trkpt lat="45.5023774508503" lon="3.258664589734381"><ele>419.0</ele><time>2026-05-02T15:09:28.998Z</time></trkpt><trkpt lat="45.50249202179855" lon="3.258804742848459"><ele>414.0</ele><time>2026-05-02T15:09:29.998Z</time></trkpt><trkpt lat="45.502611356206195" lon="3.2589519657459123"><ele>409.0</ele><time>2026-05-02T15:09:30.999Z</time></trkpt><trkpt lat="45.50272891059833" lon="3.259089698942186"><ele>404.0</ele><time>2026-05-02T15:09:31.999Z</time></trkpt><trkpt lat="45.50284122631529" lon="3.259213980092987"><ele>408.3333333333333</ele><time>2026-05-02T15:09:32.999Z</time></trkpt><trkpt lat="45.50296400822677" lon="3.2593255413358118"><ele>412.66666666666663</ele><time>2026-05-02T15:09:33.999Z</time></trkpt><trkpt lat="45.503099055834205" lon="3.2594131533305974"><ele>417.0</ele><time>2026-05-02T15:09:34.999Z</time></trkpt><trkpt lat="45.5032519996211" lon="3.259475392347791"><ele>417.0</ele><time>2026-05-02T15:09:35.999Z</time></trkpt><trkpt lat="45.503407611909914" lon="3.2595079639017617"><ele>417.0</ele><time>2026-05-02T15:09:36.999Z</time></trkpt><trkpt lat="45.50357372722038" lon="3.259519234739592"><ele>417.0</ele><time>2026-05-02T15:09:37.999Z</time></trkpt><trkpt lat="45.50374019180242" lon="3.259508851761713"><ele>417.0</ele><time>2026-05-02T15:09:38.999Z</time></trkpt><trkpt lat="45.50391119870617" lon="3.259490046983302"><ele>417.0</ele><time>2026-05-02T15:09:39.999Z</time></trkpt><trkpt lat="45.50408557815462" lon="3.2594669529391753"><ele>417.0</ele><time>2026-05-02T15:09:40.999Z</time></trkpt><trkpt lat="45.50425793974634" lon="3.2594459382908902"><ele>417.0</ele><time>2026-05-02T15:09:41.999Z</time></trkpt><trkpt lat="45.50443603193728" lon="3.2594289843742565"><ele>417.0</ele><time>2026-05-02T15:09:42.999Z</time></trkpt><trkpt lat="45.50461276656676" lon="3.259419989466031"><ele>417.0</ele><time>2026-05-02T15:09:43.999Z</time></trkpt><trkpt lat="45.5047904524578" lon="3.2594127298473357"><ele>418.0</ele><time>2026-05-02T15:09:44.999Z</time></trkpt><trkpt lat="45.50496681917236" lon="3.2594162953845345"><ele>419.0</ele><time>2026-05-02T15:09:45.999Z</time></trkpt><trkpt lat="45.50514113472147" lon="3.2594221076493035"><ele>420.0</ele><time>2026-05-02T15:09:46.999Z</time></trkpt><trkpt lat="45.50532110453817" lon="3.2594370382051903"><ele>420.66666666666663</ele><time>2026-05-02T15:09:47.999Z</time></trkpt><trkpt lat="45.505498157546235" lon="3.25946889590482"><ele>421.3333333333333</ele><time>2026-05-02T15:09:48.999Z</time></trkpt><trkpt lat="45.50566725877155" lon="3.2595267256361193"><ele>422.0</ele><time>2026-05-02T15:09:49.999Z</time></trkpt><trkpt lat="45.50582640167119" lon="3.2596344171898837"><ele>422.0</ele><time>2026-05-02T15:09:50.999Z</time></trkpt><trkpt lat="45.505986766182396" lon="3.2597389641147583"><ele>422.0</ele><time>2026-05-02T15:09:51.999Z</time></trkpt><trkpt lat="45.50614872658001" lon="3.259834128576819"><ele>422.0</ele><time>2026-05-02T15:09:52.999Z</time></trkpt><trkpt lat="45.50630717042734" lon="3.259954419098125"><ele>419.0</ele><time>2026-05-02T15:09:53.999Z</time></trkpt><trkpt lat="45.50647086161361" lon="3.2600726103927613"><ele>416.0</ele><time>2026-05-02T15:09:54.999Z</time></trkpt><trkpt lat="45.50663238178699" lon="3.260179032838933"><ele>413.0</ele><time>2026-05-02T15:09:55.999Z</time></trkpt><trkpt lat="45.50679933365232" lon="3.260270377396864"><ele>413.0</ele><time>2026-05-02T15:09:56.999Z</time></trkpt><trkpt lat="45.50697526795089" lon="3.2603391810234794"><ele>413.0</ele><time>2026-05-02T15:09:57.999Z</time></trkpt><trkpt lat="45.50715661530828" lon="3.260386174075517"><ele>413.0</ele><time>2026-05-02T15:09:58.999Z</time></trkpt><trkpt lat="45.50734542414926" lon="3.26041370734074"><ele>414.66666666666663</ele><time>2026-05-02T15:09:59.999Z</time></trkpt><trkpt lat="45.50753014483181" lon="3.2604190580432904"><ele>416.33333333333337</ele><time>2026-05-02T15:10:00.999Z</time></trkpt><trkpt lat="45.50771495295926" lon="3.26041653324707"><ele>418.0</ele><time>2026-05-02T15:10:01.999Z</time></trkpt><trkpt lat="45.50789711842559" lon="3.2604185589440013"><ele>419.0</ele><time>2026-05-02T15:10:02.999Z</time></trkpt><trkpt lat="45.50806221864008" lon="3.2604526995358696"><ele>420.0</ele><time>2026-05-02T15:10:03.999Z</time></trkpt><trkpt lat="45.508213971886015" lon="3.26047921699062"><ele>421.0</ele><time>2026-05-02T15:10:04.999Z</time></trkpt><trkpt lat="45.50835907530146" lon="3.2604997480270557"><ele>421.0</ele><time>2026-05-02T15:10:05.999Z</time></trkpt><trkpt lat="45.50849878192732" lon="3.2605576039209287"><ele>421.0</ele><time>2026-05-02T15:10:06.999Z</time></trkpt><trkpt lat="45.508645833238" lon="3.2606298152461832"><ele>421.0</ele><time>2026-05-02T15:10:07.999Z</time></trkpt><trkpt lat="45.50879935618367" lon="3.2607162227357125"><ele>419.6666666666667</ele><time>2026-05-02T15:10:08.999Z</time></trkpt><trkpt lat="45.50895035986155" lon="3.260809796877088"><ele>418.33333333333337</ele><time>2026-05-02T15:10:09.999Z</time></trkpt><trkpt lat="45.509101827256174" lon="3.2609009865071856"><ele>417.0</ele><time>2026-05-02T15:10:10.999Z</time></trkpt><trkpt lat="45.50925691168163" lon="3.260985986980819"><ele>417.0</ele><time>2026-05-02T15:10:11.999Z</time></trkpt><trkpt lat="45.509410851106765" lon="3.2610522846441277"><ele>417.0</ele><time>2026-05-02T15:10:12.999Z</time></trkpt><trkpt lat="45.50957248499756" lon="3.2611100329582006"><ele>417.0</ele><time>2026-05-02T15:10:13.999Z</time></trkpt><trkpt lat="45.509731170390154" lon="3.261156032929807"><ele>419.66666666666663</ele><time>2026-05-02T15:10:14.999Z</time></trkpt><trkpt lat="45.50989705999529" lon="3.2611922287853163"><ele>422.3333333333333</ele><time>2026-05-02T15:10:15.999Z</time></trkpt><trkpt lat="45.510066317771276" lon="3.2612152502802054"><ele>425.0</ele><time>2026-05-02T15:10:16.999Z</time></trkpt><trkpt lat="45.510239282358945" lon="3.2612163793851603"><ele>425.0</ele><time>2026-05-02T15:10:17.999Z</time></trkpt><trkpt lat="45.510406566283926" lon="3.2612050686105523"><ele>425.0</ele><time>2026-05-02T15:10:18.999Z</time></trkpt><trkpt lat="45.51057517584807" lon="3.2611855573142923"><ele>425.0</ele><time>2026-05-02T15:10:19.999Z</time></trkpt><trkpt lat="45.51074060715528" lon="3.2611531839924344"><ele>425.0</ele><time>2026-05-02T15:10:20.999Z</time></trkpt><trkpt lat="45.510911884039196" lon="3.2611073700556386"><ele>425.0</ele><time>2026-05-02T15:10:21.999Z</time></trkpt><trkpt lat="45.511075438923605" lon="3.261046928960595"><ele>425.0</ele><time>2026-05-02T15:10:22.999Z</time></trkpt><trkpt lat="45.511244921928956" lon="3.260977420180437"><ele>425.0</ele><time>2026-05-02T15:10:23.999Z</time></trkpt><trkpt lat="45.51141108014309" lon="3.260908271054763"><ele>425.0</ele><time>2026-05-02T15:10:24.999Z</time></trkpt><trkpt lat="45.51157655844961" lon="3.260848464171617"><ele>425.0</ele><time>2026-05-02T15:10:25.999Z</time></trkpt><trkpt lat="45.51174970355335" lon="3.260782830178771"><ele>425.0</ele><time>2026-05-02T15:10:26.999Z</time></trkpt><trkpt lat="45.5119201563679" lon="3.260720367482613"><ele>425.0</ele><time>2026-05-02T15:10:27.999Z</time></trkpt><trkpt lat="45.51209282027274" lon="3.260654533393922"><ele>425.0</ele><time>2026-05-02T15:10:28.999Z</time></trkpt><trkpt lat="45.51226641787313" lon="3.2605902125120143"><ele>427.66666666666663</ele><time>2026-05-02T15:10:29.999Z</time></trkpt><trkpt lat="45.5124373028551" lon="3.260524888021092"><ele>430.33333333333337</ele><time>2026-05-02T15:10:30.999Z</time></trkpt><trkpt lat="45.51260717376662" lon="3.260455821462115"><ele>433.0</ele><time>2026-05-02T15:10:31.999Z</time></trkpt><trkpt lat="45.51277918876176" lon="3.260386017700928"><ele>432.6666666666667</ele><time>2026-05-02T15:10:32.999Z</time></trkpt><trkpt lat="45.51295823124364" lon="3.2603176517975885"><ele>432.33333333333337</ele><time>2026-05-02T15:10:33.999Z</time></trkpt><trkpt lat="45.513135906843" lon="3.2602466245708137"><ele>432.0</ele><time>2026-05-02T15:10:34.999Z</time></trkpt><trkpt lat="45.513308911170995" lon="3.260180631868034"><ele>432.0</ele><time>2026-05-02T15:10:35.999Z</time></trkpt><trkpt lat="45.51348763546969" lon="3.260121216853226"><ele>432.0</ele><time>2026-05-02T15:10:36.999Z</time></trkpt><trkpt lat="45.51365833388984" lon="3.2600584964080803"><ele>432.0</ele><time>2026-05-02T15:10:37.999Z</time></trkpt><trkpt lat="45.51382876609101" lon="3.259985121475697"><ele>433.33333333333337</ele><time>2026-05-02T15:10:38.999Z</time></trkpt><trkpt lat="45.513995548814584" lon="3.2599020955688243"><ele>434.6666666666667</ele><time>2026-05-02T15:10:39.999Z</time></trkpt><trkpt lat="45.514161934419434" lon="3.2597978555357376"><ele>436.0</ele><time>2026-05-02T15:10:40.999Z</time></trkpt><trkpt lat="45.514314078061645" lon="3.2596768829912475"><ele>436.0</ele><time>2026-05-02T15:10:41.999Z</time></trkpt><trkpt lat="45.51446215980566" lon="3.2595360645682883"><ele>436.0</ele><time>2026-05-02T15:10:42.999Z</time></trkpt><trkpt lat="45.51461747381786" lon="3.259389852924517"><ele>436.0</ele><time>2026-05-02T15:10:43.999Z</time></trkpt><trkpt lat="45.514762720196" lon="3.259239882003701"><ele>436.0</ele><time>2026-05-02T15:10:44.999Z</time></trkpt><trkpt lat="45.514909812498544" lon="3.2590802623388315"><ele>436.0</ele><time>2026-05-02T15:10:45.999Z</time></trkpt><trkpt lat="45.515051355764555" lon="3.258920129305079"><ele>436.0</ele><time>2026-05-02T15:10:46.999Z</time></trkpt><trkpt lat="45.5151851127824" lon="3.2587637252096737"><ele>436.0</ele><time>2026-05-02T15:10:47.999Z</time></trkpt><trkpt lat="45.51532856881872" lon="3.2586028592811527"><ele>436.0</ele><time>2026-05-02T15:10:48.999Z</time></trkpt><trkpt lat="45.51547295441465" lon="3.2584481251210886"><ele>436.0</ele><time>2026-05-02T15:10:49.999Z</time></trkpt><trkpt lat="45.51561923683202" lon="3.2583045396691572"><ele>435.33333333333337</ele><time>2026-05-02T15:10:50.999Z</time></trkpt><trkpt lat="45.51577301667721" lon="3.258172225526396"><ele>434.66666666666663</ele><time>2026-05-02T15:10:51.999Z</time></trkpt><trkpt lat="45.515927650358364" lon="3.2580533058109107"><ele>434.0</ele><time>2026-05-02T15:10:52.999Z</time></trkpt><trkpt lat="45.51608572982243" lon="3.2579516550325405"><ele>432.3333333333333</ele><time>2026-05-02T15:10:53.999Z</time></trkpt><trkpt lat="45.516246818736974" lon="3.2578665049178213"><ele>430.66666666666663</ele><time>2026-05-02T15:10:54.999Z</time></trkpt><trkpt lat="45.51641438762494" lon="3.25779781355022"><ele>429.0</ele><time>2026-05-02T15:10:55.999Z</time></trkpt><trkpt lat="45.516585435767915" lon="3.2577419322406063"><ele>429.0</ele><time>2026-05-02T15:10:56.999Z</time></trkpt><trkpt lat="45.5167589945362" lon="3.2576794948270944"><ele>429.0</ele><time>2026-05-02T15:10:57.999Z</time></trkpt><trkpt lat="45.516941970922694" lon="3.2576066242832935"><ele>429.0</ele><time>2026-05-02T15:10:58.999Z</time></trkpt><trkpt lat="45.51712100891296" lon="3.2575346019831386"><ele>427.0</ele><time>2026-05-02T15:10:59.999Z</time></trkpt><trkpt lat="45.51730444805234" lon="3.2574638300775405"><ele>425.0</ele><time>2026-05-02T15:11:00.999Z</time></trkpt><trkpt lat="45.51748555370303" lon="3.2573921147705662"><ele>423.0</ele><time>2026-05-02T15:11:01.999Z</time></trkpt><trkpt lat="45.517668803051514" lon="3.257317250527302"><ele>423.0</ele><time>2026-05-02T15:11:02.998Z</time></trkpt><trkpt lat="45.51785214281589" lon="3.257240600597528"><ele>423.0</ele><time>2026-05-02T15:11:03.998Z</time></trkpt><trkpt lat="45.518027903751786" lon="3.2571651108677435"><ele>423.0</ele><time>2026-05-02T15:11:04.998Z</time></trkpt><trkpt lat="45.518203637200756" lon="3.2570857379020786"><ele>423.0</ele><time>2026-05-02T15:11:05.998Z</time></trkpt><trkpt lat="45.51836973739816" lon="3.256986738444767"><ele>423.0</ele><time>2026-05-02T15:11:06.998Z</time></trkpt><trkpt lat="45.518524606416875" lon="3.256862836591497"><ele>423.0</ele><time>2026-05-02T15:11:07.998Z</time></trkpt><trkpt lat="45.51868481287008" lon="3.2567203557882225"><ele>423.0</ele><time>2026-05-02T15:11:08.998Z</time></trkpt><trkpt lat="45.51882819291122" lon="3.2565691443878375"><ele>423.0</ele><time>2026-05-02T15:11:09.998Z</time></trkpt><trkpt lat="45.518971391767955" lon="3.25640215020503"><ele>423.0</ele><time>2026-05-02T15:11:10.998Z</time></trkpt><trkpt lat="45.51910481945116" lon="3.2562296588657604"><ele>423.0</ele><time>2026-05-02T15:11:11.998Z</time></trkpt><trkpt lat="45.51924568067188" lon="3.2560413441495326"><ele>423.0</ele><time>2026-05-02T15:11:12.998Z</time></trkpt><trkpt lat="45.519390124772244" lon="3.2558449924667348"><ele>423.0</ele><time>2026-05-02T15:11:13.998Z</time></trkpt><trkpt lat="45.519524937408185" lon="3.25565882125624"><ele>420.33333333333337</ele><time>2026-05-02T15:11:14.998Z</time></trkpt><trkpt lat="45.519658637763996" lon="3.255478485531608"><ele>417.6666666666667</ele><time>2026-05-02T15:11:15.998Z</time></trkpt><trkpt lat="45.519794252865765" lon="3.2552974384462705"><ele>415.0</ele><time>2026-05-02T15:11:16.998Z</time></trkpt><trkpt lat="45.519931546956435" lon="3.255117850895374"><ele>415.0</ele><time>2026-05-02T15:11:17.998Z</time></trkpt><trkpt lat="45.52006127256197" lon="3.254953999692406"><ele>415.0</ele><time>2026-05-02T15:11:18.998Z</time></trkpt><trkpt lat="45.520187670823226" lon="3.2547938713354734"><ele>415.0</ele><time>2026-05-02T15:11:19.998Z</time></trkpt><trkpt lat="45.52030725197454" lon="3.2546507885098346"><ele>414.0</ele><time>2026-05-02T15:11:20.998Z</time></trkpt><trkpt lat="45.520431584894474" lon="3.254510494400529"><ele>413.0</ele><time>2026-05-02T15:11:21.998Z</time></trkpt><trkpt lat="45.520561683652964" lon="3.254390111891974"><ele>412.0</ele><time>2026-05-02T15:11:22.998Z</time></trkpt><trkpt lat="45.520704109657956" lon="3.254288962520148"><ele>412.0</ele><time>2026-05-02T15:11:23.998Z</time></trkpt><trkpt lat="45.520858214031186" lon="3.254187875053508"><ele>412.0</ele><time>2026-05-02T15:11:24.998Z</time></trkpt><trkpt lat="45.5210179166088" lon="3.2540893713589343"><ele>412.0</ele><time>2026-05-02T15:11:25.998Z</time></trkpt><trkpt lat="45.521190495232105" lon="3.253987068515746"><ele>410.33333333333337</ele><time>2026-05-02T15:11:26.998Z</time></trkpt><trkpt lat="45.521356740596836" lon="3.2538936621411425"><ele>408.66666666666663</ele><time>2026-05-02T15:11:27.998Z</time></trkpt><trkpt lat="45.52151975502887" lon="3.2537959527134284"><ele>407.0</ele><time>2026-05-02T15:11:28.998Z</time></trkpt><trkpt lat="45.52167835890199" lon="3.2537033404936238"><ele>407.0</ele><time>2026-05-02T15:11:29.998Z</time></trkpt><trkpt lat="45.521837311745365" lon="3.253623244926049"><ele>407.0</ele><time>2026-05-02T15:11:30.998Z</time></trkpt><trkpt lat="45.52199344423561" lon="3.253562596153008"><ele>407.0</ele><time>2026-05-02T15:11:31.998Z</time></trkpt><trkpt lat="45.52215740039531" lon="3.2535236323592045"><ele>405.0</ele><time>2026-05-02T15:11:32.998Z</time></trkpt><trkpt lat="45.522314376509094" lon="3.25351555060638"><ele>403.0</ele><time>2026-05-02T15:11:33.998Z</time></trkpt><trkpt lat="45.522471330319696" lon="3.253560743734878"><ele>401.0</ele><time>2026-05-02T15:11:34.998Z</time></trkpt><trkpt lat="45.5226186612472" lon="3.25360400122642"><ele>401.0</ele><time>2026-05-02T15:11:35.998Z</time></trkpt><trkpt lat="45.52276511575239" lon="3.2536644930194454"><ele>401.0</ele><time>2026-05-02T15:11:36.999Z</time></trkpt><trkpt lat="45.52290514831001" lon="3.2537340888657282"><ele>401.0</ele><time>2026-05-02T15:11:37.999Z</time></trkpt><trkpt lat="45.52304907902834" lon="3.2537912007472745"><ele>399.3333333333333</ele><time>2026-05-02T15:11:38.999Z</time></trkpt><trkpt lat="45.52318706674083" lon="3.2538781375372774"><ele>397.66666666666663</ele><time>2026-05-02T15:11:39.999Z</time></trkpt><trkpt lat="45.52333367172011" lon="3.2539617559896006"><ele>396.0</ele><time>2026-05-02T15:11:40.999Z</time></trkpt><trkpt lat="45.52348734014407" lon="3.254032650362796"><ele>395.0</ele><time>2026-05-02T15:11:41.999Z</time></trkpt><trkpt lat="45.52364981014308" lon="3.254082893922734"><ele>394.0</ele><time>2026-05-02T15:11:42.999Z</time></trkpt><trkpt lat="45.523823901885635" lon="3.2541258512554174"><ele>393.0</ele><time>2026-05-02T15:11:43.999Z</time></trkpt><trkpt lat="45.52399382129078" lon="3.2541547254328482"><ele>392.33333333333337</ele><time>2026-05-02T15:11:44.999Z</time></trkpt><trkpt lat="45.524168601547125" lon="3.254173753232347"><ele>391.6666666666667</ele><time>2026-05-02T15:11:45.999Z</time></trkpt><trkpt lat="45.52433461540745" lon="3.254182048363863"><ele>391.0</ele><time>2026-05-02T15:11:46.999Z</time></trkpt><trkpt lat="45.524489846244755" lon="3.2541744970644624"><ele>390.5</ele><time>2026-05-02T15:11:47.999Z</time></trkpt><trkpt lat="45.52464210051597" lon="3.2541575418221735"><ele>390.0</ele><time>2026-05-02T15:11:48.999Z</time></trkpt><trkpt lat="45.52478471973232" lon="3.254131079812747"><ele>389.5</ele><time>2026-05-02T15:11:49.999Z</time></trkpt><trkpt lat="45.52492725588929" lon="3.2540982005792713"><ele>389.0</ele><time>2026-05-02T15:11:50.999Z</time></trkpt><trkpt lat="45.52506386829046" lon="3.254059948032547"><ele>389.0</ele><time>2026-05-02T15:11:51.999Z</time></trkpt><trkpt lat="45.52521165612624" lon="3.2540172535761545"><ele>389.0</ele><time>2026-05-02T15:11:52.999Z</time></trkpt><trkpt lat="45.525351534447914" lon="3.253971917588708"><ele>389.0</ele><time>2026-05-02T15:11:53.999Z</time></trkpt><trkpt lat="45.52548503417656" lon="3.2539321612922047"><ele>389.0</ele><time>2026-05-02T15:11:54.999Z</time></trkpt><trkpt lat="45.52561434938672" lon="3.2538944995083754"><ele>388.79999999999995</ele><time>2026-05-02T15:11:55.999Z</time></trkpt><trkpt lat="45.52573770793484" lon="3.2538590384546566"><ele>388.59999999999997</ele><time>2026-05-02T15:11:56.999Z</time></trkpt><trkpt lat="45.525851933317995" lon="3.253824897624577"><ele>388.4</ele><time>2026-05-02T15:11:57.999Z</time></trkpt><trkpt lat="45.52594622910017" lon="3.253817356053543"><ele>388.2</ele><time>2026-05-02T15:11:58.999Z</time></trkpt><trkpt lat="45.52601889775128" lon="3.253856378912452"><ele>388.0</ele><time>2026-05-02T15:11:59.999Z</time></trkpt><trkpt lat="45.526082311879584" lon="3.253950619575212"><ele>388.0</ele><time>2026-05-02T15:12:00.999Z</time></trkpt><trkpt lat="45.5261172996941" lon="3.2540975638081564"><ele>388.0</ele><time>2026-05-02T15:12:01.999Z</time></trkpt><trkpt lat="45.52618592653445" lon="3.2542523300850776"><ele>388.0</ele><time>2026-05-02T15:12:02.999Z</time></trkpt><trkpt lat="45.5262454146484" lon="3.2544169690446454"><ele>388.0</ele><time>2026-05-02T15:12:03.999Z</time></trkpt><trkpt lat="45.52630215330501" lon="3.2545614138131183"><ele>387.4</ele><time>2026-05-02T15:12:04.999Z</time></trkpt><trkpt lat="45.52635403934918" lon="3.2546968605170155"><ele>386.79999999999995</ele><time>2026-05-02T15:12:05.999Z</time></trkpt><trkpt lat="45.52640242178229" lon="3.254832329985439"><ele>386.2</ele><time>2026-05-02T15:12:06.999Z</time></trkpt><trkpt lat="45.52644659540521" lon="3.2549651701493163"><ele>385.6</ele><time>2026-05-02T15:12:07.999Z</time></trkpt><trkpt lat="45.526490383966596" lon="3.255099318716585"><ele>385.0</ele><time>2026-05-02T15:12:08.999Z</time></trkpt><trkpt lat="45.52652957580633" lon="3.255227901666888"><ele>384.6</ele><time>2026-05-02T15:12:09.999Z</time></trkpt><trkpt lat="45.52655823604269" lon="3.255345056514336"><ele>384.2</ele><time>2026-05-02T15:12:10.999Z</time></trkpt><trkpt lat="45.52659024992467" lon="3.2554836444820845"><ele>383.79999999999995</ele><time>2026-05-02T15:12:12.999Z</time></trkpt><trkpt lat="45.52664510092192" lon="3.2555471637273405"><ele>383.4</ele><time>2026-05-02T15:12:21.999Z</time></trkpt><trkpt lat="45.52678141146231" lon="3.255525218544822"><ele>383.0</ele><time>2026-05-02T15:12:23.999Z</time></trkpt><trkpt lat="45.52686173909487" lon="3.2554853462787188"><ele>383.0</ele><time>2026-05-02T15:12:24.999Z</time></trkpt><trkpt lat="45.52695099583652" lon="3.25543199493585"><ele>383.0</ele><time>2026-05-02T15:12:25.999Z</time></trkpt><trkpt lat="45.527032570421156" lon="3.2553815582729735"><ele>383.0</ele><time>2026-05-02T15:12:26.999Z</time></trkpt><trkpt lat="45.52711548779426" lon="3.2553309467293916"><ele>383.0</ele><time>2026-05-02T15:12:27.999Z</time></trkpt><trkpt lat="45.52720217181059" lon="3.255282727406599"><ele>383.0</ele><time>2026-05-02T15:12:28.999Z</time></trkpt><trkpt lat="45.52728706091841" lon="3.255234023258934"><ele>383.79999999999995</ele><time>2026-05-02T15:12:29.999Z</time></trkpt><trkpt lat="45.52737736314648" lon="3.255184240034101"><ele>384.6</ele><time>2026-05-02T15:12:30.999Z</time></trkpt><trkpt lat="45.52746952058858" lon="3.2551308305331563"><ele>385.4</ele><time>2026-05-02T15:12:31.999Z</time></trkpt><trkpt lat="45.52755922528623" lon="3.255080045815575"><ele>386.20000000000005</ele><time>2026-05-02T15:12:32.999Z</time></trkpt><trkpt lat="45.52764939402247" lon="3.2550270933388794"><ele>387.0</ele><time>2026-05-02T15:12:33.999Z</time></trkpt><trkpt lat="45.52774425675545" lon="3.2549710136152727"><ele>387.0</ele><time>2026-05-02T15:12:34.999Z</time></trkpt><trkpt lat="45.527835653046665" lon="3.254922351555091"><ele>387.0</ele><time>2026-05-02T15:12:35.999Z</time></trkpt><trkpt lat="45.52792137032373" lon="3.2548745678900697"><ele>387.0</ele><time>2026-05-02T15:12:36.999Z</time></trkpt><trkpt lat="45.528006735697446" lon="3.2548340062039314"><ele>387.0</ele><time>2026-05-02T15:12:37.999Z</time></trkpt><trkpt lat="45.52809172394991" lon="3.2547891685647716"><ele>387.0</ele><time>2026-05-02T15:12:38.999Z</time></trkpt><trkpt lat="45.528183740839125" lon="3.254739980209841"><ele>388.0</ele><time>2026-05-02T15:12:39.999Z</time></trkpt><trkpt lat="45.52827611900776" lon="3.2546851779459374"><ele>389.0</ele><time>2026-05-02T15:12:40.999Z</time></trkpt><trkpt lat="45.528382323835366" lon="3.2546289856684183"><ele>390.0</ele><time>2026-05-02T15:12:41.999Z</time></trkpt><trkpt lat="45.52848027818096" lon="3.254571967646152"><ele>391.0</ele><time>2026-05-02T15:12:42.999Z</time></trkpt><trkpt lat="45.52857846012266" lon="3.2545180981183646"><ele>392.0</ele><time>2026-05-02T15:12:43.999Z</time></trkpt><trkpt lat="45.52866585748216" lon="3.2544723117815644"><ele>392.66666666666663</ele><time>2026-05-02T15:12:44.999Z</time></trkpt><trkpt lat="45.528739652552495" lon="3.254429641195751"><ele>393.3333333333333</ele><time>2026-05-02T15:12:45.999Z</time></trkpt><trkpt lat="45.5288133135895" lon="3.25439021204357"><ele>394.0</ele><time>2026-05-02T15:12:46.999Z</time></trkpt><trkpt lat="45.528891433455115" lon="3.2543479801302624"><ele>394.66666666666663</ele><time>2026-05-02T15:12:47.999Z</time></trkpt><trkpt lat="45.52897589767007" lon="3.2543055971334014"><ele>395.3333333333333</ele><time>2026-05-02T15:12:48.999Z</time></trkpt><trkpt lat="45.52907451014513" lon="3.254255759713328"><ele>396.0</ele><time>2026-05-02T15:12:49.999Z</time></trkpt><trkpt lat="45.5291923646824" lon="3.254203334123025"><ele>396.0</ele><time>2026-05-02T15:12:50.999Z</time></trkpt><trkpt lat="45.529318130061384" lon="3.254157668885387"><ele>396.0</ele><time>2026-05-02T15:12:51.999Z</time></trkpt><trkpt lat="45.52944919375278" lon="3.254114137305967"><ele>396.0</ele><time>2026-05-02T15:12:52.999Z</time></trkpt><trkpt lat="45.529582738957195" lon="3.2540706102453076"><ele>396.0</ele><time>2026-05-02T15:12:53.999Z</time></trkpt><trkpt lat="45.529724295560534" lon="3.2540233216753753"><ele>396.0</ele><time>2026-05-02T15:12:54.999Z</time></trkpt><trkpt lat="45.52988717678801" lon="3.2539651639468676"><ele>396.0</ele><time>2026-05-02T15:12:55.999Z</time></trkpt><trkpt lat="45.53000471133658" lon="3.2539315748494335"><ele>396.0</ele><time>2026-05-02T15:12:56.999Z</time></trkpt><trkpt lat="45.53012826335908" lon="3.2538914769998226"><ele>396.0</ele><time>2026-05-02T15:12:57.999Z</time></trkpt><trkpt lat="45.530257557742566" lon="3.2538444897100445"><ele>395.75</ele><time>2026-05-02T15:12:58.999Z</time></trkpt><trkpt lat="45.53039112647031" lon="3.253802365968852"><ele>395.5</ele><time>2026-05-02T15:12:59.999Z</time></trkpt><trkpt lat="45.53052544916741" lon="3.253760530875802"><ele>395.25</ele><time>2026-05-02T15:13:00.999Z</time></trkpt><trkpt lat="45.53065534841077" lon="3.253715367542122"><ele>395.0</ele><time>2026-05-02T15:13:01.999Z</time></trkpt><trkpt lat="45.530785256874076" lon="3.25366961431202"><ele>395.0</ele><time>2026-05-02T15:13:02.999Z</time></trkpt><trkpt lat="45.53091470510053" lon="3.2536301501586773"><ele>395.0</ele><time>2026-05-02T15:13:03.999Z</time></trkpt><trkpt lat="45.531042256363826" lon="3.253588053274241"><ele>395.0</ele><time>2026-05-02T15:13:04.999Z</time></trkpt><trkpt lat="45.531175826916204" lon="3.253540940513241"><ele>395.0</ele><time>2026-05-02T15:13:05.999Z</time></trkpt><trkpt lat="45.531312056546525" lon="3.253493983416375"><ele>394.75</ele><time>2026-05-02T15:13:06.999Z</time></trkpt><trkpt lat="45.531448824631475" lon="3.2534453745369736"><ele>394.5</ele><time>2026-05-02T15:13:07.999Z</time></trkpt><trkpt lat="45.53159158034408" lon="3.2533952492029283"><ele>394.25</ele><time>2026-05-02T15:13:08.999Z</time></trkpt><trkpt lat="45.53173446692631" lon="3.253346255599828"><ele>394.0</ele><time>2026-05-02T15:13:09.999Z</time></trkpt><trkpt lat="45.531878527636444" lon="3.253298570574881"><ele>394.0</ele><time>2026-05-02T15:13:10.999Z</time></trkpt><trkpt lat="45.53202540866978" lon="3.253249756848182"><ele>394.0</ele><time>2026-05-02T15:13:11.999Z</time></trkpt><trkpt lat="45.532169812937084" lon="3.2532034290458025"><ele>394.0</ele><time>2026-05-02T15:13:12.999Z</time></trkpt><trkpt lat="45.53231019117207" lon="3.2531562139420207"><ele>394.0</ele><time>2026-05-02T15:13:13.999Z</time></trkpt><trkpt lat="45.53244752310282" lon="3.2531090354110055"><ele>394.0</ele><time>2026-05-02T15:13:14.999Z</time></trkpt><trkpt lat="45.53258376630855" lon="3.2530613829044634"><ele>394.0</ele><time>2026-05-02T15:13:15.999Z</time></trkpt><trkpt lat="45.532719921574646" lon="3.2530146239976947"><ele>394.0</ele><time>2026-05-02T15:13:16.999Z</time></trkpt><trkpt lat="45.532856795354306" lon="3.252965546459246"><ele>394.0</ele><time>2026-05-02T15:13:17.999Z</time></trkpt><trkpt lat="45.53299169579795" lon="3.252915960843619"><ele>394.0</ele><time>2026-05-02T15:13:18.999Z</time></trkpt><trkpt lat="45.53312559757873" lon="3.252870745480075"><ele>394.0</ele><time>2026-05-02T15:13:19.998Z</time></trkpt><trkpt lat="45.5332617827952" lon="3.252824716878407"><ele>394.0</ele><time>2026-05-02T15:13:20.998Z</time></trkpt><trkpt lat="45.53339780606996" lon="3.2527808829094975"><ele>394.0</ele><time>2026-05-02T15:13:21.998Z</time></trkpt><trkpt lat="45.53353529055559" lon="3.2527364610017435"><ele>394.0</ele><time>2026-05-02T15:13:22.998Z</time></trkpt><trkpt lat="45.53367361730003" lon="3.2526900774365957"><ele>394.0</ele><time>2026-05-02T15:13:23.998Z</time></trkpt><trkpt lat="45.53381582592557" lon="3.252643048687047"><ele>394.0</ele><time>2026-05-02T15:13:24.998Z</time></trkpt><trkpt lat="45.533958653345906" lon="3.2525952886918623"><ele>394.0</ele><time>2026-05-02T15:13:25.998Z</time></trkpt><trkpt lat="45.534105497429216" lon="3.2525493075756637"><ele>393.5</ele><time>2026-05-02T15:13:26.998Z</time></trkpt><trkpt lat="45.53424351093628" lon="3.2525036961552476"><ele>393.0</ele><time>2026-05-02T15:13:27.998Z</time></trkpt><trkpt lat="45.53437275302219" lon="3.2524605153190005"><ele>392.5</ele><time>2026-05-02T15:13:28.998Z</time></trkpt><trkpt lat="45.53449135753898" lon="3.2524187688501374"><ele>392.0</ele><time>2026-05-02T15:13:29.998Z</time></trkpt><trkpt lat="45.53460763853212" lon="3.2523813640650205"><ele>392.0</ele><time>2026-05-02T15:13:30.998Z</time></trkpt><trkpt lat="45.53471584925848" lon="3.252344374506038"><ele>392.0</ele><time>2026-05-02T15:13:31.998Z</time></trkpt><trkpt lat="45.53482394573431" lon="3.252306100968014"><ele>392.0</ele><time>2026-05-02T15:13:32.998Z</time></trkpt><trkpt lat="45.534935026240085" lon="3.252269177507888"><ele>392.0</ele><time>2026-05-02T15:13:33.998Z</time></trkpt><trkpt lat="45.53504648379648" lon="3.25223299973169"><ele>392.0</ele><time>2026-05-02T15:13:34.998Z</time></trkpt><trkpt lat="45.53516528771733" lon="3.2521953707028377"><ele>392.0</ele><time>2026-05-02T15:13:35.998Z</time></trkpt><trkpt lat="45.5352825715163" lon="3.252156885590291"><ele>392.0</ele><time>2026-05-02T15:13:36.998Z</time></trkpt><trkpt lat="45.535401406514644" lon="3.2521147788108777"><ele>392.0</ele><time>2026-05-02T15:13:37.998Z</time></trkpt><trkpt lat="45.5355263145425" lon="3.2520707161771445"><ele>391.75</ele><time>2026-05-02T15:13:38.998Z</time></trkpt><trkpt lat="45.53565403459619" lon="3.2520221904801208"><ele>391.5</ele><time>2026-05-02T15:13:39.998Z</time></trkpt><trkpt lat="45.53578250874109" lon="3.2519742384914148"><ele>391.25</ele><time>2026-05-02T15:13:40.998Z</time></trkpt><trkpt lat="45.53590063652936" lon="3.2519282715185964"><ele>391.0</ele><time>2026-05-02T15:13:41.998Z</time></trkpt><trkpt lat="45.536011863029785" lon="3.251887018728623"><ele>391.0</ele><time>2026-05-02T15:13:42.999Z</time></trkpt><trkpt lat="45.536113789912086" lon="3.251839055152476"><ele>391.0</ele><time>2026-05-02T15:13:43.999Z</time></trkpt><trkpt lat="45.53620797214257" lon="3.25178643689809"><ele>391.0</ele><time>2026-05-02T15:13:44.999Z</time></trkpt><trkpt lat="45.536294364749054" lon="3.251728241051264"><ele>391.0</ele><time>2026-05-02T15:13:45.999Z</time></trkpt><trkpt lat="45.53637880645156" lon="3.251673163702199"><ele>391.0</ele><time>2026-05-02T15:13:46.999Z</time></trkpt><trkpt lat="45.536455740151965" lon="3.251625347213973"><ele>391.1428571428571</ele><time>2026-05-02T15:13:47.999Z</time></trkpt><trkpt lat="45.53652364138163" lon="3.251584456060013"><ele>391.2857142857143</ele><time>2026-05-02T15:13:48.999Z</time></trkpt><trkpt lat="45.53658460937451" lon="3.251546544707166"><ele>391.42857142857144</ele><time>2026-05-02T15:13:49.999Z</time></trkpt><trkpt lat="45.53667181938063" lon="3.251497020818814"><ele>391.57142857142856</ele><time>2026-05-02T15:13:51.999Z</time></trkpt><trkpt lat="45.536737985161224" lon="3.25146861759627"><ele>391.7142857142857</ele><time>2026-05-02T15:13:55.999Z</time></trkpt><trkpt lat="45.53680581596099" lon="3.251440256239201"><ele>391.85714285714283</ele><time>2026-05-02T15:13:59.999Z</time></trkpt><trkpt lat="45.53687439080432" lon="3.2514265931184636"><ele>392.0</ele><time>2026-05-02T15:14:02.999Z</time></trkpt><trkpt lat="45.5369463130398" lon="3.251407704091221"><ele>392.0</ele><time>2026-05-02T15:14:04.999Z</time></trkpt><trkpt lat="45.537046980559104" lon="3.2514509644996625"><ele>392.0</ele><time>2026-05-02T15:14:06.999Z</time></trkpt><trkpt lat="45.53715317626019" lon="3.2514711179578253"><ele>392.0</ele><time>2026-05-02T15:14:08.999Z</time></trkpt><trkpt lat="45.537223684656105" lon="3.2513777524411704"><ele>392.0</ele><time>2026-05-02T15:14:10.999Z</time></trkpt><trkpt lat="45.537207678910235" lon="3.2512160289538"><ele>392.0</ele><time>2026-05-02T15:14:12.999Z</time></trkpt><trkpt lat="45.53715281358115" lon="3.251137071521522"><ele>391.99999999999994</ele><time>2026-05-02T15:14:13.999Z</time></trkpt><trkpt lat="45.537099289835055" lon="3.25105773137746"><ele>392.0</ele><time>2026-05-02T15:14:14.999Z</time></trkpt><trkpt lat="45.53705910684314" lon="3.2509682337760673"><ele>392.0</ele><time>2026-05-02T15:14:15.999Z</time></trkpt><trkpt lat="45.53703381346443" lon="3.2508730202121163"><ele>392.0</ele><time>2026-05-02T15:14:16.999Z</time></trkpt><trkpt lat="45.53701401426246" lon="3.2507597562253423"><ele>391.99999999999994</ele><time>2026-05-02T15:14:17.999Z</time></trkpt><trkpt lat="45.536996169175076" lon="3.250623054628304"><ele>392.0</ele><time>2026-05-02T15:14:18.999Z</time></trkpt><trkpt lat="45.53698020828722" lon="3.2504951367961645"><ele>392.0</ele><time>2026-05-02T15:14:19.999Z</time></trkpt><trkpt lat="45.536965334025766" lon="3.250357174114236"><ele>392.0</ele><time>2026-05-02T15:14:20.999Z</time></trkpt><trkpt lat="45.536952222427686" lon="3.250219442329958"><ele>392.0</ele><time>2026-05-02T15:14:21.999Z</time></trkpt><trkpt lat="45.53694012188123" lon="3.250083946274556"><ele>392.0</ele><time>2026-05-02T15:14:22.999Z</time></trkpt><trkpt lat="45.53692571263526" lon="3.2499460673456424"><ele>392.0</ele><time>2026-05-02T15:14:23.999Z</time></trkpt><trkpt lat="45.536908838072016" lon="3.249812017267112"><ele>392.40000000000003</ele><time>2026-05-02T15:14:24.999Z</time></trkpt><trkpt lat="45.53689271348504" lon="3.24967480179528"><ele>392.8</ele><time>2026-05-02T15:14:26Z</time></trkpt><trkpt lat="45.53687642904799" lon="3.2495459896877956"><ele>393.2</ele><time>2026-05-02T15:14:27Z</time></trkpt><trkpt lat="45.536857875270115" lon="3.249417704420297"><ele>393.6</ele><time>2026-05-02T15:14:28Z</time></trkpt><trkpt lat="45.53683947415524" lon="3.249291307175422"><ele>394.0</ele><time>2026-05-02T15:14:29Z</time></trkpt><trkpt lat="45.53682228061518" lon="3.249149880552507"><ele>394.0</ele><time>2026-05-02T15:14:30Z</time></trkpt><trkpt lat="45.536802262554424" lon="3.2490162881388605"><ele>394.0</ele><time>2026-05-02T15:14:31Z</time></trkpt><trkpt lat="45.536786495627034" lon="3.2488660250991197"><ele>394.0</ele><time>2026-05-02T15:14:32Z</time></trkpt><trkpt lat="45.53677106938142" lon="3.2487256409203056"><ele>394.0</ele><time>2026-05-02T15:14:33Z</time></trkpt><trkpt lat="45.536753216012535" lon="3.2485726983307353"><ele>394.0</ele><time>2026-05-02T15:14:34Z</time></trkpt><trkpt lat="45.536734232846825" lon="3.2484215249617474"><ele>394.2</ele><time>2026-05-02T15:14:35Z</time></trkpt><trkpt lat="45.536714963180685" lon="3.248265122324015"><ele>394.4</ele><time>2026-05-02T15:14:36Z</time></trkpt><trkpt lat="45.53669750004524" lon="3.248117746410727"><ele>394.6</ele><time>2026-05-02T15:14:37Z</time></trkpt><trkpt lat="45.536679164319764" lon="3.24797911440132"><ele>394.8</ele><time>2026-05-02T15:14:38Z</time></trkpt><trkpt lat="45.53666078345067" lon="3.247840930186053"><ele>395.0</ele><time>2026-05-02T15:14:39Z</time></trkpt><trkpt lat="45.53664214711482" lon="3.2477037606720507"><ele>395.0</ele><time>2026-05-02T15:14:40Z</time></trkpt><trkpt lat="45.5366230429601" lon="3.247555614300664"><ele>395.0</ele><time>2026-05-02T15:14:41Z</time></trkpt><trkpt lat="45.53660302956528" lon="3.2473976456460867"><ele>395.0</ele><time>2026-05-02T15:14:42Z</time></trkpt><trkpt lat="45.53658458863808" lon="3.247241834512823"><ele>395.0</ele><time>2026-05-02T15:14:43Z</time></trkpt><trkpt lat="45.536571626902294" lon="3.2470889564641534"><ele>395.0</ele><time>2026-05-02T15:14:44Z</time></trkpt><trkpt lat="45.53657268305972" lon="3.2469506246252906"><ele>394.99999999999994</ele><time>2026-05-02T15:14:45Z</time></trkpt><trkpt lat="45.53658017594434" lon="3.246835690341322"><ele>395.0</ele><time>2026-05-02T15:14:46Z</time></trkpt><trkpt lat="45.536597837371026" lon="3.24672242545828"><ele>395.0</ele><time>2026-05-02T15:14:47Z</time></trkpt><trkpt lat="45.536620337875895" lon="3.2466353234511915"><ele>395.0</ele><time>2026-05-02T15:14:48Z</time></trkpt><trkpt lat="45.5366474695715" lon="3.246523056529964"><ele>394.99999999999994</ele><time>2026-05-02T15:14:50Z</time></trkpt><trkpt lat="45.5366679847176" lon="3.246428071864251"><ele>395.0</ele><time>2026-05-02T15:14:53Z</time></trkpt><trkpt lat="45.53669486323611" lon="3.2463224656123866"><ele>395.2</ele><time>2026-05-02T15:15:08Z</time></trkpt><trkpt lat="45.53672086575642" lon="3.2461822653569588"><ele>395.4</ele><time>2026-05-02T15:15:10Z</time></trkpt><trkpt lat="45.53674679441372" lon="3.2460449262983353"><ele>395.6</ele><time>2026-05-02T15:15:12Z</time></trkpt><trkpt lat="45.536796419838204" lon="3.245902186640517"><ele>395.8</ele><time>2026-05-02T15:15:14Z</time></trkpt><trkpt lat="45.5368690790114" lon="3.2457565645254367"><ele>396.0</ele><time>2026-05-02T15:15:16Z</time></trkpt><trkpt lat="45.53691216231048" lon="3.2456669283268464"><ele>396.0</ele><time>2026-05-02T15:15:17Z</time></trkpt><trkpt lat="45.536956473829306" lon="3.2455741428430156"><ele>396.0</ele><time>2026-05-02T15:15:18Z</time></trkpt><trkpt lat="45.53700384869434" lon="3.245470686218801"><ele>396.0</ele><time>2026-05-02T15:15:19Z</time></trkpt><trkpt lat="45.53705634657211" lon="3.245358968223912"><ele>396.0</ele><time>2026-05-02T15:15:20Z</time></trkpt><trkpt lat="45.537107779304165" lon="3.2452587950056397"><ele>396.0</ele><time>2026-05-02T15:15:21Z</time></trkpt><trkpt lat="45.537154768244854" lon="3.2451643109827057"><ele>396.0</ele><time>2026-05-02T15:15:22Z</time></trkpt><trkpt lat="45.537200875884004" lon="3.2450733602451214"><ele>396.0</ele><time>2026-05-02T15:15:23Z</time></trkpt><trkpt lat="45.537258352007385" lon="3.2449852917687765"><ele>396.0</ele><time>2026-05-02T15:15:24Z</time></trkpt><trkpt lat="45.537325729245" lon="3.244903869870185"><ele>396.0</ele><time>2026-05-02T15:15:25Z</time></trkpt><trkpt lat="45.53740539109616" lon="3.2448431151095942"><ele>396.0</ele><time>2026-05-02T15:15:26Z</time></trkpt><trkpt lat="45.53749146074268" lon="3.2447810757107582"><ele>396.0</ele><time>2026-05-02T15:15:27Z</time></trkpt><trkpt lat="45.537583910820594" lon="3.2447243838190998"><ele>395.8</ele><time>2026-05-02T15:15:28Z</time></trkpt><trkpt lat="45.53767524866632" lon="3.2446688351389668"><ele>395.6</ele><time>2026-05-02T15:15:28.999Z</time></trkpt><trkpt lat="45.53776949862145" lon="3.2446160429805393"><ele>395.4</ele><time>2026-05-02T15:15:29.999Z</time></trkpt><trkpt lat="45.53786648613179" lon="3.244561804114711"><ele>395.2</ele><time>2026-05-02T15:15:30.999Z</time></trkpt><trkpt lat="45.53796452984168" lon="3.2445072751624844"><ele>395.0</ele><time>2026-05-02T15:15:31.999Z</time></trkpt><trkpt lat="45.538064164656355" lon="3.2444501456372814"><ele>395.0</ele><time>2026-05-02T15:15:32.999Z</time></trkpt><trkpt lat="45.53816892446381" lon="3.244394316317649"><ele>395.0</ele><time>2026-05-02T15:15:33.999Z</time></trkpt><trkpt lat="45.538274688528325" lon="3.244335274739296"><ele>395.0</ele><time>2026-05-02T15:15:34.999Z</time></trkpt><trkpt lat="45.538386156574624" lon="3.2442753426995483"><ele>395.0</ele><time>2026-05-02T15:15:35.999Z</time></trkpt><trkpt lat="45.53849110764647" lon="3.2442182961430124"><ele>395.0</ele><time>2026-05-02T15:15:36.999Z</time></trkpt><trkpt lat="45.538585333913495" lon="3.244165342808638"><ele>395.0</ele><time>2026-05-02T15:15:37.999Z</time></trkpt><trkpt lat="45.53867154717034" lon="3.2441139513378063"><ele>395.0</ele><time>2026-05-02T15:15:38.999Z</time></trkpt><trkpt lat="45.538752604917434" lon="3.2440641385250317"><ele>395.0</ele><time>2026-05-02T15:15:39.999Z</time></trkpt><trkpt lat="45.53884872831613" lon="3.244007490191452"><ele>395.0</ele><time>2026-05-02T15:15:40.999Z</time></trkpt><trkpt lat="45.53894916613195" lon="3.243943091037951"><ele>393.5</ele><time>2026-05-02T15:15:41.999Z</time></trkpt><trkpt lat="45.53906060708451" lon="3.243872928940781"><ele>392.0</ele><time>2026-05-02T15:15:42.999Z</time></trkpt><trkpt lat="45.53917340519931" lon="3.2438034379398886"><ele>390.5</ele><time>2026-05-02T15:15:43.999Z</time></trkpt><trkpt lat="45.53928603337385" lon="3.2437359550198046"><ele>389.0</ele><time>2026-05-02T15:15:44.999Z</time></trkpt><trkpt lat="45.539395619309914" lon="3.243669294157034"><ele>389.0</ele><time>2026-05-02T15:15:45.999Z</time></trkpt><trkpt lat="45.53949875429788" lon="3.243603116345077"><ele>389.0</ele><time>2026-05-02T15:15:46.999Z</time></trkpt><trkpt lat="45.539594897614535" lon="3.2435469588836336"><ele>389.0</ele><time>2026-05-02T15:15:47.999Z</time></trkpt><trkpt lat="45.53968864087206" lon="3.2435051971463675"><ele>389.0</ele><time>2026-05-02T15:15:49Z</time></trkpt><trkpt lat="45.539787295550525" lon="3.2434386698261695"><ele>389.0</ele><time>2026-05-02T15:15:50Z</time></trkpt><trkpt lat="45.53989015620076" lon="3.24337160693741"><ele>388.75</ele><time>2026-05-02T15:15:51Z</time></trkpt><trkpt lat="45.53999888656687" lon="3.2433008944736623"><ele>388.5</ele><time>2026-05-02T15:15:52Z</time></trkpt><trkpt lat="45.540111648545455" lon="3.2432314106535265"><ele>388.25</ele><time>2026-05-02T15:15:53Z</time></trkpt><trkpt lat="45.540229549318646" lon="3.243156785051455"><ele>388.0</ele><time>2026-05-02T15:15:54Z</time></trkpt><trkpt lat="45.54034985247826" lon="3.2430806958642426"><ele>388.75</ele><time>2026-05-02T15:15:55Z</time></trkpt><trkpt lat="45.540476583158956" lon="3.243005668082619"><ele>389.5</ele><time>2026-05-02T15:15:56Z</time></trkpt><trkpt lat="45.54060533911601" lon="3.242930801466971"><ele>390.25</ele><time>2026-05-02T15:15:57Z</time></trkpt><trkpt lat="45.54071369235209" lon="3.242866140088894"><ele>391.0</ele><time>2026-05-02T15:15:58Z</time></trkpt><trkpt lat="45.540813566744234" lon="3.2428060704800417"><ele>391.0</ele><time>2026-05-02T15:15:59Z</time></trkpt><trkpt lat="45.54091355492298" lon="3.2427431339797526"><ele>391.0</ele><time>2026-05-02T15:16:00Z</time></trkpt><trkpt lat="45.54102589055694" lon="3.2426712941894396"><ele>391.0</ele><time>2026-05-02T15:16:01Z</time></trkpt><trkpt lat="45.541136289073094" lon="3.2426048339714204"><ele>391.0</ele><time>2026-05-02T15:16:02Z</time></trkpt><trkpt lat="45.541237701895994" lon="3.242546691921406"><ele>391.20000000000005</ele><time>2026-05-02T15:16:03Z</time></trkpt><trkpt lat="45.54132800532155" lon="3.242493434796675"><ele>391.40000000000003</ele><time>2026-05-02T15:16:04Z</time></trkpt><trkpt lat="45.54141624607044" lon="3.2424394623232784"><ele>391.6</ele><time>2026-05-02T15:16:05Z</time></trkpt><trkpt lat="45.54151310719357" lon="3.242382687419175"><ele>391.8</ele><time>2026-05-02T15:16:06Z</time></trkpt><trkpt lat="45.541611707802986" lon="3.242326824187178"><ele>392.0</ele><time>2026-05-02T15:16:07Z</time></trkpt><trkpt lat="45.541706944484176" lon="3.242275913147074"><ele>392.20000000000005</ele><time>2026-05-02T15:16:08Z</time></trkpt><trkpt lat="45.541798643196536" lon="3.2422315005926974"><ele>392.4</ele><time>2026-05-02T15:16:09Z</time></trkpt><trkpt lat="45.54189388576563" lon="3.2421868880748432"><ele>392.6</ele><time>2026-05-02T15:16:10Z</time></trkpt><trkpt lat="45.54199710251706" lon="3.242136419913156"><ele>392.79999999999995</ele><time>2026-05-02T15:16:11Z</time></trkpt><trkpt lat="45.54210088968325" lon="3.2420893308018646"><ele>393.0</ele><time>2026-05-02T15:16:12Z</time></trkpt><trkpt lat="45.54219799377463" lon="3.242048447314375"><ele>393.0</ele><time>2026-05-02T15:16:13Z</time></trkpt><trkpt lat="45.54228550451316" lon="3.242010779948645"><ele>393.0</ele><time>2026-05-02T15:16:14Z</time></trkpt><trkpt lat="45.5423739933267" lon="3.2419704502495925"><ele>393.0</ele><time>2026-05-02T15:16:15Z</time></trkpt><trkpt lat="45.542467326899164" lon="3.2419274610211297"><ele>393.0</ele><time>2026-05-02T15:16:16Z</time></trkpt><trkpt lat="45.54257076227408" lon="3.2418827690354024"><ele>393.0</ele><time>2026-05-02T15:16:17Z</time></trkpt><trkpt lat="45.54267106232479" lon="3.241836704668969"><ele>393.0</ele><time>2026-05-02T15:16:18Z</time></trkpt><trkpt lat="45.54277157544819" lon="3.241793331449327"><ele>393.0</ele><time>2026-05-02T15:16:19Z</time></trkpt><trkpt lat="45.542876741570254" lon="3.2417522263999086"><ele>393.0</ele><time>2026-05-02T15:16:20Z</time></trkpt><trkpt lat="45.54297871319661" lon="3.2417179740950957"><ele>393.0</ele><time>2026-05-02T15:16:21Z</time></trkpt><trkpt lat="45.54307126123578" lon="3.241692788200225"><ele>393.0</ele><time>2026-05-02T15:16:22Z</time></trkpt><trkpt lat="45.54314081514822" lon="3.2416800465589946"><ele>392.8333333333333</ele><time>2026-05-02T15:16:23Z</time></trkpt><trkpt lat="45.54321568550058" lon="3.24168880669099"><ele>392.66666666666663</ele><time>2026-05-02T15:16:25Z</time></trkpt><trkpt lat="45.543296741228225" lon="3.241679393450633"><ele>392.5</ele><time>2026-05-02T15:16:34Z</time></trkpt><trkpt lat="45.54336465371408" lon="3.2416755299136226"><ele>392.3333333333333</ele><time>2026-05-02T15:16:35Z</time></trkpt><trkpt lat="45.5434437590336" lon="3.241672137721042"><ele>392.16666666666663</ele><time>2026-05-02T15:16:36Z</time></trkpt><trkpt lat="45.543563221625774" lon="3.241670949041974"><ele>392.0</ele><time>2026-05-02T15:16:37Z</time></trkpt><trkpt lat="45.54368094758714" lon="3.2416720575975106"><ele>391.99999999999994</ele><time>2026-05-02T15:16:38Z</time></trkpt><trkpt lat="45.54378075198654" lon="3.2416744008955667"><ele>392.0</ele><time>2026-05-02T15:16:39Z</time></trkpt><trkpt lat="45.54386323815632" lon="3.241676251854008"><ele>392.0</ele><time>2026-05-02T15:16:40Z</time></trkpt><trkpt lat="45.54393275515741" lon="3.241677897969767"><ele>392.0</ele><time>2026-05-02T15:16:41Z</time></trkpt><trkpt lat="45.54401429109681" lon="3.241681507487915"><ele>391.99999999999994</ele><time>2026-05-02T15:16:43Z</time></trkpt><trkpt lat="45.544081194013714" lon="3.241693976739187"><ele>392.0</ele><time>2026-05-02T15:16:50Z</time></trkpt><trkpt lat="45.54416846152233" lon="3.241768185370791"><ele>391.99999999999994</ele><time>2026-05-02T15:16:52Z</time></trkpt><trkpt lat="45.54426560039941" lon="3.2417421488404137"><ele>392.0</ele><time>2026-05-02T15:16:54Z</time></trkpt><trkpt lat="45.54433328205913" lon="3.2416649017210055"><ele>392.0</ele><time>2026-05-02T15:16:56Z</time></trkpt><trkpt lat="45.54430310371798" lon="3.241502757744546"><ele>392.0</ele><time>2026-05-02T15:16:58Z</time></trkpt><trkpt lat="45.544268870042245" lon="3.24142096900565"><ele>391.99999999999994</ele><time>2026-05-02T15:16:59Z</time></trkpt><trkpt lat="45.544237894467784" lon="3.2413291225586685"><ele>392.0</ele><time>2026-05-02T15:17:00Z</time></trkpt><trkpt lat="45.54421314594686" lon="3.241227435426919"><ele>392.20000000000005</ele><time>2026-05-02T15:17:01Z</time></trkpt><trkpt lat="45.54418705551309" lon="3.241111553488295"><ele>392.4</ele><time>2026-05-02T15:17:02Z</time></trkpt><trkpt lat="45.5441595933337" lon="3.24098774253869"><ele>392.6</ele><time>2026-05-02T15:17:03Z</time></trkpt><trkpt lat="45.54413184553073" lon="3.2408524053909"><ele>392.79999999999995</ele><time>2026-05-02T15:17:04Z</time></trkpt><trkpt lat="45.54410341667757" lon="3.2407175705211855"><ele>393.0</ele><time>2026-05-02T15:17:05Z</time></trkpt><trkpt lat="45.544069380536925" lon="3.240582991945866"><ele>393.2</ele><time>2026-05-02T15:17:06Z</time></trkpt><trkpt lat="45.54403649384363" lon="3.2404472544624525"><ele>393.4</ele><time>2026-05-02T15:17:07Z</time></trkpt><trkpt lat="45.5439979600385" lon="3.2403063232543174"><ele>393.59999999999997</ele><time>2026-05-02T15:17:08Z</time></trkpt><trkpt lat="45.54395796269989" lon="3.2401593068389736"><ele>393.79999999999995</ele><time>2026-05-02T15:17:09Z</time></trkpt><trkpt lat="45.54392400396323" lon="3.2400075433064974"><ele>394.0</ele><time>2026-05-02T15:17:10Z</time></trkpt><trkpt lat="45.54388620001445" lon="3.239845456770673"><ele>394.25</ele><time>2026-05-02T15:17:11Z</time></trkpt><trkpt lat="45.543845440937226" lon="3.2396880203472027"><ele>394.5</ele><time>2026-05-02T15:17:12Z</time></trkpt><trkpt lat="45.543803322401814" lon="3.2395256766769305"><ele>394.75</ele><time>2026-05-02T15:17:13Z</time></trkpt><trkpt lat="45.54375985080799" lon="3.239359617644514"><ele>395.0</ele><time>2026-05-02T15:17:14Z</time></trkpt><trkpt lat="45.54371832851147" lon="3.2392002611667268"><ele>394.8</ele><time>2026-05-02T15:17:15Z</time></trkpt><trkpt lat="45.5436843647303" lon="3.2390542597816245"><ele>394.6</ele><time>2026-05-02T15:17:16Z</time></trkpt><trkpt lat="45.543652571885715" lon="3.238912828738543"><ele>394.4</ele><time>2026-05-02T15:17:17Z</time></trkpt><trkpt lat="45.543622990436035" lon="3.238772080033734"><ele>394.2</ele><time>2026-05-02T15:17:18Z</time></trkpt><trkpt lat="45.54359712755888" lon="3.238617749902"><ele>394.0</ele><time>2026-05-02T15:17:19Z</time></trkpt><trkpt lat="45.5435738937039" lon="3.2384466951310418"><ele>394.4</ele><time>2026-05-02T15:17:20Z</time></trkpt><trkpt lat="45.54355810818215" lon="3.2382739773323808"><ele>394.79999999999995</ele><time>2026-05-02T15:17:21Z</time></trkpt><trkpt lat="45.5435523619832" lon="3.2381219311048195"><ele>395.20000000000005</ele><time>2026-05-02T15:17:22Z</time></trkpt><trkpt lat="45.5435508284185" lon="3.2379749721699103"><ele>395.6</ele><time>2026-05-02T15:17:23Z</time></trkpt><trkpt lat="45.54354680908583" lon="3.237833144905529"><ele>396.0</ele><time>2026-05-02T15:17:24Z</time></trkpt><trkpt lat="45.54354770381632" lon="3.237667482212069"><ele>396.0</ele><time>2026-05-02T15:17:25Z</time></trkpt><trkpt lat="45.543548350946935" lon="3.2374917652356703"><ele>396.0</ele><time>2026-05-02T15:17:26Z</time></trkpt><trkpt lat="45.54354851942552" lon="3.2373056635150768"><ele>396.0</ele><time>2026-05-02T15:17:27Z</time></trkpt><trkpt lat="45.54354943753061" lon="3.2371216829230107"><ele>396.0</ele><time>2026-05-02T15:17:28Z</time></trkpt><trkpt lat="45.54354862644313" lon="3.236945937731063"><ele>396.0</ele><time>2026-05-02T15:17:29Z</time></trkpt><trkpt lat="45.54354736445523" lon="3.236784326023849"><ele>396.0</ele><time>2026-05-02T15:17:30Z</time></trkpt><trkpt lat="45.54354657353765" lon="3.236607777906591"><ele>396.0</ele><time>2026-05-02T15:17:31Z</time></trkpt><trkpt lat="45.54354470810833" lon="3.236409994538355"><ele>396.0</ele><time>2026-05-02T15:17:32Z</time></trkpt><trkpt lat="45.54354351894875" lon="3.23620630765954"><ele>396.25</ele><time>2026-05-02T15:17:33Z</time></trkpt><trkpt lat="45.54354039766769" lon="3.2360127248682113"><ele>396.5</ele><time>2026-05-02T15:17:34Z</time></trkpt><trkpt lat="45.5435404677738" lon="3.235814023534235"><ele>396.75</ele><time>2026-05-02T15:17:35Z</time></trkpt><trkpt lat="45.5435413902648" lon="3.2356300635776782"><ele>397.0</ele><time>2026-05-02T15:17:36Z</time></trkpt><trkpt lat="45.54354307431611" lon="3.2354462597563414"><ele>397.0</ele><time>2026-05-02T15:17:37Z</time></trkpt><trkpt lat="45.543544119107246" lon="3.235273186848675"><ele>397.0</ele><time>2026-05-02T15:17:38Z</time></trkpt><trkpt lat="45.54354696060388" lon="3.235109490979914"><ele>397.0</ele><time>2026-05-02T15:17:39Z</time></trkpt><trkpt lat="45.543545460605664" lon="3.234957091008342"><ele>397.0</ele><time>2026-05-02T15:17:40Z</time></trkpt><trkpt lat="45.543544081960064" lon="3.2348110772030316"><ele>397.0</ele><time>2026-05-02T15:17:41Z</time></trkpt><trkpt lat="45.54354382862334" lon="3.234655437361984"><ele>397.20000000000005</ele><time>2026-05-02T15:17:42Z</time></trkpt><trkpt lat="45.54354345384608" lon="3.234483030324638"><ele>397.4</ele><time>2026-05-02T15:17:43Z</time></trkpt><trkpt lat="45.54354218471264" lon="3.2343277947047513"><ele>397.6</ele><time>2026-05-02T15:17:44Z</time></trkpt><trkpt lat="45.54354494508927" lon="3.2341809862518662"><ele>397.79999999999995</ele><time>2026-05-02T15:17:45Z</time></trkpt><trkpt lat="45.54354396461808" lon="3.2340455843646025"><ele>398.0</ele><time>2026-05-02T15:17:46Z</time></trkpt><trkpt lat="45.543541134667095" lon="3.2339031710023924"><ele>398.25</ele><time>2026-05-02T15:17:47Z</time></trkpt><trkpt lat="45.54354115981267" lon="3.233739766940461"><ele>398.5</ele><time>2026-05-02T15:17:48Z</time></trkpt><trkpt lat="45.54354159243085" lon="3.2335595964611152"><ele>398.75</ele><time>2026-05-02T15:17:49Z</time></trkpt><trkpt lat="45.54354074030535" lon="3.233386425780933"><ele>399.0</ele><time>2026-05-02T15:17:50Z</time></trkpt><trkpt lat="45.54354096956438" lon="3.233233710561053"><ele>399.0</ele><time>2026-05-02T15:17:51Z</time></trkpt><trkpt lat="45.543541276403865" lon="3.2330964691164623"><ele>399.0</ele><time>2026-05-02T15:17:52Z</time></trkpt><trkpt lat="45.543540838988314" lon="3.2329754799625414"><ele>399.0</ele><time>2026-05-02T15:17:53Z</time></trkpt><trkpt lat="45.54354083601398" lon="3.2328582018623786"><ele>399.0</ele><time>2026-05-02T15:17:53.999Z</time></trkpt><trkpt lat="45.54354151896192" lon="3.232743704607421"><ele>399.0</ele><time>2026-05-02T15:17:55Z</time></trkpt><trkpt lat="45.54354062673244" lon="3.2326328713653125"><ele>399.0</ele><time>2026-05-02T15:17:56Z</time></trkpt><trkpt lat="45.54354116409934" lon="3.232527564941326"><ele>399.0</ele><time>2026-05-02T15:17:57Z</time></trkpt><trkpt lat="45.543542267763286" lon="3.2324155404858823"><ele>399.0</ele><time>2026-05-02T15:17:58Z</time></trkpt><trkpt lat="45.54354182563992" lon="3.2322956205263305"><ele>399.0</ele><time>2026-05-02T15:17:59Z</time></trkpt><trkpt lat="45.54354226433374" lon="3.2321824666359977"><ele>399.0</ele><time>2026-05-02T15:18:00Z</time></trkpt><trkpt lat="45.54353882253957" lon="3.2320644556674694"><ele>399.0</ele><time>2026-05-02T15:18:01Z</time></trkpt><trkpt lat="45.54353710320548" lon="3.231939571526388"><ele>399.0</ele><time>2026-05-02T15:18:02Z</time></trkpt><trkpt lat="45.54353887727507" lon="3.2318035336248565"><ele>399.0</ele><time>2026-05-02T15:18:03Z</time></trkpt><trkpt lat="45.5435399650995" lon="3.2316626981114966"><ele>399.0</ele><time>2026-05-02T15:18:04Z</time></trkpt><trkpt lat="45.54354050424032" lon="3.231519861590158"><ele>399.0</ele><time>2026-05-02T15:18:05Z</time></trkpt><trkpt lat="45.54354146425181" lon="3.2313662774169583"><ele>399.0</ele><time>2026-05-02T15:18:06Z</time></trkpt><trkpt lat="45.5435434475152" lon="3.2312161438259053"><ele>399.0</ele><time>2026-05-02T15:18:07Z</time></trkpt><trkpt lat="45.54354283661027" lon="3.2310804509309516"><ele>399.0</ele><time>2026-05-02T15:18:08Z</time></trkpt><trkpt lat="45.54354141286321" lon="3.230949916789206"><ele>399.0</ele><time>2026-05-02T15:18:09Z</time></trkpt><trkpt lat="45.54354043098686" lon="3.2308167601032203"><ele>399.0</ele><time>2026-05-02T15:18:10Z</time></trkpt><trkpt lat="45.543542138572136" lon="3.2306594017333157"><ele>399.0</ele><time>2026-05-02T15:18:11Z</time></trkpt><trkpt lat="45.54354178361295" lon="3.2304971297874947"><ele>399.0</ele><time>2026-05-02T15:18:12Z</time></trkpt><trkpt lat="45.54353999872682" lon="3.2303265396286998"><ele>399.0</ele><time>2026-05-02T15:18:13Z</time></trkpt><trkpt lat="45.543536859284245" lon="3.230167448935553"><ele>399.0</ele><time>2026-05-02T15:18:14Z</time></trkpt><trkpt lat="45.54353642856062" lon="3.230025882206432"><ele>399.0</ele><time>2026-05-02T15:18:15Z</time></trkpt><trkpt lat="45.54353650753872" lon="3.2298958027442612"><ele>399.0</ele><time>2026-05-02T15:18:16Z</time></trkpt><trkpt lat="45.54353661922341" lon="3.2297744363439005"><ele>399.0</ele><time>2026-05-02T15:18:17Z</time></trkpt><trkpt lat="45.54353636655828" lon="3.229646333315894"><ele>399.25</ele><time>2026-05-02T15:18:18Z</time></trkpt><trkpt lat="45.543536152785705" lon="3.2295099276155477"><ele>399.5</ele><time>2026-05-02T15:18:19Z</time></trkpt><trkpt lat="45.54353833577079" lon="3.2293484864309656"><ele>399.75</ele><time>2026-05-02T15:18:20Z</time></trkpt><trkpt lat="45.54354013070412" lon="3.229181212953321"><ele>400.0</ele><time>2026-05-02T15:18:21Z</time></trkpt><trkpt lat="45.54354058079502" lon="3.2290018160947698"><ele>400.2</ele><time>2026-05-02T15:18:22Z</time></trkpt><trkpt lat="45.54353944935462" lon="3.2288331113530666"><ele>400.4</ele><time>2026-05-02T15:18:23Z</time></trkpt><trkpt lat="45.54353861762785" lon="3.22868173350668"><ele>400.6</ele><time>2026-05-02T15:18:24Z</time></trkpt><trkpt lat="45.543538934055526" lon="3.2285381111982874"><ele>400.8</ele><time>2026-05-02T15:18:25Z</time></trkpt><trkpt lat="45.54353910616895" lon="3.228397405863028"><ele>401.0</ele><time>2026-05-02T15:18:26Z</time></trkpt><trkpt lat="45.54353799448982" lon="3.228253784760874"><ele>400.75</ele><time>2026-05-02T15:18:27Z</time></trkpt><trkpt lat="45.543535189754664" lon="3.228103478855945"><ele>400.5</ele><time>2026-05-02T15:18:28Z</time></trkpt><trkpt lat="45.543536431597424" lon="3.227931352105545"><ele>400.25</ele><time>2026-05-02T15:18:29Z</time></trkpt><trkpt lat="45.54353838768503" lon="3.22776822513448"><ele>400.0</ele><time>2026-05-02T15:18:30Z</time></trkpt><trkpt lat="45.543538125018266" lon="3.22761117001618"><ele>400.0</ele><time>2026-05-02T15:18:31Z</time></trkpt><trkpt lat="45.54353632845845" lon="3.2274735551130056"><ele>400.0</ele><time>2026-05-02T15:18:32Z</time></trkpt><trkpt lat="45.54353291393961" lon="3.2273407595061663"><ele>400.0</ele><time>2026-05-02T15:18:33Z</time></trkpt><trkpt lat="45.54353270471208" lon="3.227207513512348"><ele>400.0</ele><time>2026-05-02T15:18:34Z</time></trkpt><trkpt lat="45.54353449121088" lon="3.2270809375859537"><ele>400.0</ele><time>2026-05-02T15:18:35Z</time></trkpt><trkpt lat="45.543533710118915" lon="3.2269407368235266"><ele>400.5</ele><time>2026-05-02T15:18:36Z</time></trkpt><trkpt lat="45.543535749489514" lon="3.2267823213482747"><ele>401.0</ele><time>2026-05-02T15:18:37Z</time></trkpt><trkpt lat="45.54353308288007" lon="3.2266186928246654"><ele>401.5</ele><time>2026-05-02T15:18:38Z</time></trkpt><trkpt lat="45.54353321518666" lon="3.2264492537692697"><ele>402.0</ele><time>2026-05-02T15:18:39Z</time></trkpt><trkpt lat="45.543532019109016" lon="3.226294252539578"><ele>402.0</ele><time>2026-05-02T15:18:40Z</time></trkpt><trkpt lat="45.54353281237863" lon="3.226154421936585"><ele>402.0</ele><time>2026-05-02T15:18:41Z</time></trkpt><trkpt lat="45.54353301657494" lon="3.226021900434604"><ele>402.0</ele><time>2026-05-02T15:18:42Z</time></trkpt><trkpt lat="45.54353394375403" lon="3.2258798365695425"><ele>402.0</ele><time>2026-05-02T15:18:43Z</time></trkpt><trkpt lat="45.54353363864879" lon="3.2257236044718454"><ele>402.0</ele><time>2026-05-02T15:18:44Z</time></trkpt><trkpt lat="45.54353317551923" lon="3.2255726798243605"><ele>401.8333333333333</ele><time>2026-05-02T15:18:45Z</time></trkpt><trkpt lat="45.54353242414493" lon="3.2254318744872355"><ele>401.66666666666663</ele><time>2026-05-02T15:18:46Z</time></trkpt><trkpt lat="45.54353218211549" lon="3.225304382505228"><ele>401.5</ele><time>2026-05-02T15:18:47Z</time></trkpt><trkpt lat="45.54353153104918" lon="3.2251876084906383"><ele>401.3333333333333</ele><time>2026-05-02T15:18:48Z</time></trkpt><trkpt lat="45.54353426166025" lon="3.2250727316463585"><ele>401.16666666666663</ele><time>2026-05-02T15:18:49Z</time></trkpt><trkpt lat="45.54353836482065" lon="3.2249644267213413"><ele>401.0</ele><time>2026-05-02T15:18:50Z</time></trkpt><trkpt lat="45.54354378801975" lon="3.2248606852207238"><ele>401.4</ele><time>2026-05-02T15:18:51Z</time></trkpt><trkpt lat="45.54354457809896" lon="3.224768434822162"><ele>401.8</ele><time>2026-05-02T15:18:52Z</time></trkpt><trkpt lat="45.543543095489866" lon="3.2246024122227746"><ele>402.2</ele><time>2026-05-02T15:18:54Z</time></trkpt><trkpt lat="45.5435588764078" lon="3.2244484888505296"><ele>402.59999999999997</ele><time>2026-05-02T15:18:56Z</time></trkpt><trkpt lat="45.54356354983214" lon="3.224307945519428"><ele>403.0</ele><time>2026-05-02T15:18:58Z</time></trkpt><trkpt lat="45.54354081187437" lon="3.2241255046455506"><ele>403.0</ele><time>2026-05-02T15:19:00Z</time></trkpt><trkpt lat="45.543535091485666" lon="3.2240051527977394"><ele>403.0</ele><time>2026-05-02T15:19:01Z</time></trkpt><trkpt lat="45.543531345261705" lon="3.223880822580932"><ele>403.0</ele><time>2026-05-02T15:19:02Z</time></trkpt><trkpt lat="45.54352883864156" lon="3.2237374650581447"><ele>403.0</ele><time>2026-05-02T15:19:03Z</time></trkpt><trkpt lat="45.54352769125274" lon="3.2235812525420946"><ele>403.0</ele><time>2026-05-02T15:19:04Z</time></trkpt><trkpt lat="45.54352630335585" lon="3.223410002216876"><ele>403.0</ele><time>2026-05-02T15:19:05Z</time></trkpt><trkpt lat="45.54352827338395" lon="3.2232268938634627"><ele>403.0</ele><time>2026-05-02T15:19:06Z</time></trkpt><trkpt lat="45.54352812365133" lon="3.223053357728758"><ele>403.0</ele><time>2026-05-02T15:19:07Z</time></trkpt><trkpt lat="45.54352674331091" lon="3.2228826508313038"><ele>403.0</ele><time>2026-05-02T15:19:08Z</time></trkpt><trkpt lat="45.543526202719256" lon="3.222715679190096"><ele>403.0</ele><time>2026-05-02T15:19:09Z</time></trkpt><trkpt lat="45.543529629103396" lon="3.222547033585997"><ele>403.0</ele><time>2026-05-02T15:19:10Z</time></trkpt><trkpt lat="45.5435296706369" lon="3.2223727189825273"><ele>403.0</ele><time>2026-05-02T15:19:11Z</time></trkpt><trkpt lat="45.543529041130085" lon="3.2221866027164903"><ele>403.0</ele><time>2026-05-02T15:19:12Z</time></trkpt><trkpt lat="45.54352725773785" lon="3.222000254634787"><ele>403.75</ele><time>2026-05-02T15:19:13Z</time></trkpt><trkpt lat="45.54352652401393" lon="3.2218122111166756"><ele>404.5</ele><time>2026-05-02T15:19:14Z</time></trkpt><trkpt lat="45.54352799181165" lon="3.2216307747452744"><ele>405.25</ele><time>2026-05-02T15:19:15Z</time></trkpt><trkpt lat="45.543531086382046" lon="3.2214572603502667"><ele>406.0</ele><time>2026-05-02T15:19:16Z</time></trkpt><trkpt lat="45.54353396691617" lon="3.221295945050377"><ele>406.0</ele><time>2026-05-02T15:19:17Z</time></trkpt><trkpt lat="45.54353345983171" lon="3.221138433248222"><ele>406.0</ele><time>2026-05-02T15:19:18Z</time></trkpt><trkpt lat="45.543531586575476" lon="3.220980053934303"><ele>406.0</ele><time>2026-05-02T15:19:19Z</time></trkpt><trkpt lat="45.54352624597403" lon="3.2208141170701174"><ele>406.0</ele><time>2026-05-02T15:19:20Z</time></trkpt><trkpt lat="45.543527751579724" lon="3.2206324214175597"><ele>406.5</ele><time>2026-05-02T15:19:21Z</time></trkpt><trkpt lat="45.54352879245636" lon="3.220440903493149"><ele>407.0</ele><time>2026-05-02T15:19:22Z</time></trkpt><trkpt lat="45.54352936184269" lon="3.2202362848717216"><ele>407.5</ele><time>2026-05-02T15:19:23Z</time></trkpt><trkpt lat="45.543528871317086" lon="3.220023261567015"><ele>408.0</ele><time>2026-05-02T15:19:24Z</time></trkpt><trkpt lat="45.54352791148089" lon="3.219804279575224"><ele>408.0</ele><time>2026-05-02T15:19:25Z</time></trkpt><trkpt lat="45.54352784951223" lon="3.2195846281784326"><ele>408.0</ele><time>2026-05-02T15:19:26Z</time></trkpt><trkpt lat="45.54352814153787" lon="3.2193870695150344"><ele>408.0</ele><time>2026-05-02T15:19:27Z</time></trkpt><trkpt lat="45.54352794520079" lon="3.2192088338760887"><ele>408.0</ele><time>2026-05-02T15:19:28Z</time></trkpt><trkpt lat="45.54352848825471" lon="3.2190331290694467"><ele>408.0</ele><time>2026-05-02T15:19:29Z</time></trkpt><trkpt lat="45.54352880978268" lon="3.2188537054999435"><ele>408.0</ele><time>2026-05-02T15:19:30Z</time></trkpt><trkpt lat="45.54353002255288" lon="3.218665292314777"><ele>408.0</ele><time>2026-05-02T15:19:31Z</time></trkpt><trkpt lat="45.54352632775401" lon="3.2184781983471065"><ele>408.0</ele><time>2026-05-02T15:19:32Z</time></trkpt><trkpt lat="45.543526126621664" lon="3.218280625419637"><ele>408.25</ele><time>2026-05-02T15:19:33Z</time></trkpt><trkpt lat="45.543527251529724" lon="3.2180799225528687"><ele>408.5</ele><time>2026-05-02T15:19:34Z</time></trkpt><trkpt lat="45.54352842571013" lon="3.21788729581582"><ele>408.75</ele><time>2026-05-02T15:19:35Z</time></trkpt><trkpt lat="45.54352885557641" lon="3.21770924488901"><ele>409.0</ele><time>2026-05-02T15:19:36Z</time></trkpt><trkpt lat="45.543528230326615" lon="3.2175297407693533"><ele>409.0</ele><time>2026-05-02T15:19:37Z</time></trkpt><trkpt lat="45.54352575577672" lon="3.2173458313962624"><ele>409.0</ele><time>2026-05-02T15:19:38Z</time></trkpt><trkpt lat="45.543526043381995" lon="3.2171485623007356"><ele>409.0</ele><time>2026-05-02T15:19:39Z</time></trkpt><trkpt lat="45.543528068978524" lon="3.216958728065838"><ele>409.0</ele><time>2026-05-02T15:19:40Z</time></trkpt><trkpt lat="45.54352773530953" lon="3.2167672768939575"><ele>409.0</ele><time>2026-05-02T15:19:41Z</time></trkpt><trkpt lat="45.54352748846821" lon="3.216577190431982"><ele>409.0</ele><time>2026-05-02T15:19:42Z</time></trkpt><trkpt lat="45.5435250461188" lon="3.216403552180356"><ele>409.0</ele><time>2026-05-02T15:19:43Z</time></trkpt><trkpt lat="45.54352451696477" lon="3.216233497287351"><ele>409.0</ele><time>2026-05-02T15:19:44Z</time></trkpt><trkpt lat="45.543523681616875" lon="3.2160660172529925"><ele>409.0</ele><time>2026-05-02T15:19:45Z</time></trkpt><trkpt lat="45.54352253145948" lon="3.21589154222773"><ele>409.0</ele><time>2026-05-02T15:19:46Z</time></trkpt><trkpt lat="45.543524186909956" lon="3.21571185774132"><ele>409.0</ele><time>2026-05-02T15:19:47Z</time></trkpt><trkpt lat="45.543524055611954" lon="3.215524770971094"><ele>409.0</ele><time>2026-05-02T15:19:48Z</time></trkpt><trkpt lat="45.54352242062531" lon="3.215325300104255"><ele>409.0</ele><time>2026-05-02T15:19:49Z</time></trkpt><trkpt lat="45.54352374838358" lon="3.215128159419779"><ele>409.0</ele><time>2026-05-02T15:19:50Z</time></trkpt><trkpt lat="45.543522256729254" lon="3.214953485464099"><ele>409.0</ele><time>2026-05-02T15:19:51Z</time></trkpt><trkpt lat="45.54352288636617" lon="3.214785976377544"><ele>409.0</ele><time>2026-05-02T15:19:52Z</time></trkpt><trkpt lat="45.54352349076467" lon="3.2146227079448746"><ele>409.5</ele><time>2026-05-02T15:19:53Z</time></trkpt><trkpt lat="45.54352429645338" lon="3.214445080437511"><ele>410.0</ele><time>2026-05-02T15:19:54Z</time></trkpt><trkpt lat="45.54352289618883" lon="3.2142621959011755"><ele>410.5</ele><time>2026-05-02T15:19:55Z</time></trkpt><trkpt lat="45.54352147910197" lon="3.2140752994067543"><ele>411.0</ele><time>2026-05-02T15:19:56Z</time></trkpt><trkpt lat="45.543521173618174" lon="3.2138908122163405"><ele>411.25</ele><time>2026-05-02T15:19:57Z</time></trkpt><trkpt lat="45.5435195887442" lon="3.21370784283614"><ele>411.5</ele><time>2026-05-02T15:19:58Z</time></trkpt><trkpt lat="45.54351801940805" lon="3.2135235748286286"><ele>411.75</ele><time>2026-05-02T15:19:59Z</time></trkpt><trkpt lat="45.54351726580795" lon="3.213340748094522"><ele>412.0</ele><time>2026-05-02T15:20:00Z</time></trkpt><trkpt lat="45.54351713771637" lon="3.2131629250796063"><ele>411.75</ele><time>2026-05-02T15:20:01Z</time></trkpt><trkpt lat="45.543519380191796" lon="3.2129840677179557"><ele>411.5</ele><time>2026-05-02T15:20:02Z</time></trkpt><trkpt lat="45.543517306514616" lon="3.2128052529317555"><ele>411.25</ele><time>2026-05-02T15:20:03Z</time></trkpt><trkpt lat="45.54351748188386" lon="3.2126298347365716"><ele>411.0</ele><time>2026-05-02T15:20:04Z</time></trkpt><trkpt lat="45.54351914783335" lon="3.212440697046995"><ele>411.0</ele><time>2026-05-02T15:20:05Z</time></trkpt><trkpt lat="45.543515488467925" lon="3.212260595541228"><ele>411.0</ele><time>2026-05-02T15:20:06Z</time></trkpt><trkpt lat="45.543519192204606" lon="3.212070842750057"><ele>411.0</ele><time>2026-05-02T15:20:07Z</time></trkpt><trkpt lat="45.54352007833047" lon="3.211892293889729"><ele>411.0</ele><time>2026-05-02T15:20:08Z</time></trkpt><trkpt lat="45.54352325126373" lon="3.2117200098298833"><ele>411.0</ele><time>2026-05-02T15:20:09Z</time></trkpt><trkpt lat="45.54352267783256" lon="3.2115641314984713"><ele>411.0</ele><time>2026-05-02T15:20:10Z</time></trkpt><trkpt lat="45.54352418375554" lon="3.2113913082302115"><ele>411.0</ele><time>2026-05-02T15:20:11Z</time></trkpt><trkpt lat="45.54352168482763" lon="3.211210081006934"><ele>411.0</ele><time>2026-05-02T15:20:12Z</time></trkpt><trkpt lat="45.543523113233434" lon="3.211026811183107"><ele>411.25</ele><time>2026-05-02T15:20:13Z</time></trkpt><trkpt lat="45.54352148979711" lon="3.210848622904146"><ele>411.5</ele><time>2026-05-02T15:20:14Z</time></trkpt><trkpt lat="45.54351957934488" lon="3.2106713536763882"><ele>411.75</ele><time>2026-05-02T15:20:15Z</time></trkpt><trkpt lat="45.54351936357878" lon="3.210495713249689"><ele>412.0</ele><time>2026-05-02T15:20:16Z</time></trkpt><trkpt lat="45.543519393106955" lon="3.210323328779578"><ele>412.5</ele><time>2026-05-02T15:20:17Z</time></trkpt><trkpt lat="45.54352024020045" lon="3.210148956956178"><ele>413.0</ele><time>2026-05-02T15:20:18Z</time></trkpt><trkpt lat="45.543521629598075" lon="3.209973229858451"><ele>413.5</ele><time>2026-05-02T15:20:19Z</time></trkpt><trkpt lat="45.5435176301984" lon="3.209792582378828"><ele>414.0</ele><time>2026-05-02T15:20:20Z</time></trkpt><trkpt lat="45.54351743302381" lon="3.2096063058215694"><ele>414.0</ele><time>2026-05-02T15:20:21Z</time></trkpt><trkpt lat="45.54351635250518" lon="3.2094051385608267"><ele>414.0</ele><time>2026-05-02T15:20:22Z</time></trkpt><trkpt lat="45.54351435812715" lon="3.2092157208982495"><ele>414.0</ele><time>2026-05-02T15:20:23Z</time></trkpt><trkpt lat="45.54351334234008" lon="3.209025317372246"><ele>414.0</ele><time>2026-05-02T15:20:24Z</time></trkpt><trkpt lat="45.54351267469702" lon="3.2088367675964817"><ele>414.25</ele><time>2026-05-02T15:20:25Z</time></trkpt><trkpt lat="45.54351026063844" lon="3.2086448534660184"><ele>414.5</ele><time>2026-05-02T15:20:26Z</time></trkpt><trkpt lat="45.54351032315462" lon="3.208448788134979"><ele>414.75</ele><time>2026-05-02T15:20:27Z</time></trkpt><trkpt lat="45.54351056894487" lon="3.208256643533731"><ele>415.0</ele><time>2026-05-02T15:20:28Z</time></trkpt><trkpt lat="45.54351051992419" lon="3.208066200327011"><ele>415.5</ele><time>2026-05-02T15:20:29Z</time></trkpt><trkpt lat="45.54351289978143" lon="3.2078778843014897"><ele>416.0</ele><time>2026-05-02T15:20:30Z</time></trkpt><trkpt lat="45.54351255956435" lon="3.2076973632200096"><ele>416.5</ele><time>2026-05-02T15:20:31Z</time></trkpt><trkpt lat="45.54351681078118" lon="3.2075301921543273"><ele>417.0</ele><time>2026-05-02T15:20:32Z</time></trkpt><trkpt lat="45.54352418637215" lon="3.207368989014343"><ele>417.0</ele><time>2026-05-02T15:20:33Z</time></trkpt><trkpt lat="45.54354115115418" lon="3.207200602295003"><ele>417.0</ele><time>2026-05-02T15:20:34Z</time></trkpt><trkpt lat="45.54356655282799" lon="3.2070283487031817"><ele>417.0</ele><time>2026-05-02T15:20:35Z</time></trkpt><trkpt lat="45.54360329773986" lon="3.206849100492522"><ele>417.0</ele><time>2026-05-02T15:20:36Z</time></trkpt><trkpt lat="45.54364062453663" lon="3.2066615389311695"><ele>417.0</ele><time>2026-05-02T15:20:37Z</time></trkpt><trkpt lat="45.54368198346298" lon="3.206483206236846"><ele>417.0</ele><time>2026-05-02T15:20:38Z</time></trkpt><trkpt lat="45.54372284674371" lon="3.2063063589453136"><ele>417.0</ele><time>2026-05-02T15:20:39Z</time></trkpt><trkpt lat="45.54376267078347" lon="3.2061309810905048"><ele>417.0</ele><time>2026-05-02T15:20:40Z</time></trkpt><trkpt lat="45.54379878586707" lon="3.2059620268728435"><ele>417.75</ele><time>2026-05-02T15:20:41Z</time></trkpt><trkpt lat="45.54383389009193" lon="3.2057999710461162"><ele>418.5</ele><time>2026-05-02T15:20:42Z</time></trkpt><trkpt lat="45.543865606720054" lon="3.205636871333649"><ele>419.25</ele><time>2026-05-02T15:20:43Z</time></trkpt><trkpt lat="45.54389610280863" lon="3.2054685343055223"><ele>420.0</ele><time>2026-05-02T15:20:44Z</time></trkpt><trkpt lat="45.5439152033891" lon="3.20529670950686"><ele>420.25</ele><time>2026-05-02T15:20:45Z</time></trkpt><trkpt lat="45.5439252871305" lon="3.2051235662052653"><ele>420.5</ele><time>2026-05-02T15:20:46Z</time></trkpt><trkpt lat="45.54392564804729" lon="3.2049490160514678"><ele>420.75</ele><time>2026-05-02T15:20:47Z</time></trkpt><trkpt lat="45.5439160466065" lon="3.204769416505135"><ele>421.0</ele><time>2026-05-02T15:20:48Z</time></trkpt><trkpt lat="45.54390522886162" lon="3.2045884873576984"><ele>421.0</ele><time>2026-05-02T15:20:49Z</time></trkpt><trkpt lat="45.54389849499246" lon="3.2044137742067327"><ele>421.0</ele><time>2026-05-02T15:20:50Z</time></trkpt><trkpt lat="45.54389386951305" lon="3.204250259993299"><ele>421.0</ele><time>2026-05-02T15:20:51Z</time></trkpt><trkpt lat="45.54388638821086" lon="3.2040938244506822"><ele>421.0</ele><time>2026-05-02T15:20:52Z</time></trkpt><trkpt lat="45.543879083095696" lon="3.2039340280496504"><ele>421.6</ele><time>2026-05-02T15:20:53Z</time></trkpt><trkpt lat="45.54387409105077" lon="3.2037741034673295"><ele>422.20000000000005</ele><time>2026-05-02T15:20:54Z</time></trkpt><trkpt lat="45.54386915224549" lon="3.203627821603034"><ele>422.79999999999995</ele><time>2026-05-02T15:20:55Z</time></trkpt><trkpt lat="45.54386346186225" lon="3.2034905975872636"><ele>423.4</ele><time>2026-05-02T15:20:56Z</time></trkpt><trkpt lat="45.54386444834048" lon="3.2033651665751264"><ele>424.0</ele><time>2026-05-02T15:20:57Z</time></trkpt><trkpt lat="45.54387708261744" lon="3.203245624968185"><ele>423.79999999999995</ele><time>2026-05-02T15:20:58Z</time></trkpt><trkpt lat="45.543909136312244" lon="3.203122864166478"><ele>423.59999999999997</ele><time>2026-05-02T15:20:59Z</time></trkpt><trkpt lat="45.54396219506617" lon="3.2029889858074903"><ele>423.4</ele><time>2026-05-02T15:21:00Z</time></trkpt><trkpt lat="45.54403427862542" lon="3.202864937704009"><ele>423.2</ele><time>2026-05-02T15:21:01Z</time></trkpt><trkpt lat="45.54412944021355" lon="3.2027309727229527"><ele>423.0</ele><time>2026-05-02T15:21:02Z</time></trkpt><trkpt lat="45.544214409772096" lon="3.202613960335206"><ele>423.0</ele><time>2026-05-02T15:21:03Z</time></trkpt><trkpt lat="45.544271677933374" lon="3.2024886351866537"><ele>423.0</ele><time>2026-05-02T15:21:04Z</time></trkpt><trkpt lat="45.544300371724674" lon="3.202353638842607"><ele>423.0</ele><time>2026-05-02T15:21:05Z</time></trkpt><trkpt lat="45.544324725061834" lon="3.2022146936678237"><ele>423.0</ele><time>2026-05-02T15:21:06Z</time></trkpt><trkpt lat="45.54434724472711" lon="3.2020639881464557"><ele>423.0</ele><time>2026-05-02T15:21:07Z</time></trkpt><trkpt lat="45.54436666793942" lon="3.2018994584579095"><ele>423.2</ele><time>2026-05-02T15:21:08Z</time></trkpt><trkpt lat="45.544391776538546" lon="3.20173697533807"><ele>423.4</ele><time>2026-05-02T15:21:09Z</time></trkpt><trkpt lat="45.54442621463967" lon="3.201588647295364"><ele>423.59999999999997</ele><time>2026-05-02T15:21:10Z</time></trkpt><trkpt lat="45.544468698828496" lon="3.2014460591108795"><ele>423.79999999999995</ele><time>2026-05-02T15:21:11Z</time></trkpt><trkpt lat="45.54452077456858" lon="3.2013109681870886"><ele>424.0</ele><time>2026-05-02T15:21:12Z</time></trkpt><trkpt lat="45.54458859435992" lon="3.2011772845385593"><ele>424.0</ele><time>2026-05-02T15:21:13Z</time></trkpt><trkpt lat="45.54467178787069" lon="3.201044048732776"><ele>424.0</ele><time>2026-05-02T15:21:14Z</time></trkpt><trkpt lat="45.5447609287073" lon="3.200910284467363"><ele>424.0</ele><time>2026-05-02T15:21:15Z</time></trkpt><trkpt lat="45.54484469695738" lon="3.2007792237144863"><ele>424.0</ele><time>2026-05-02T15:21:16Z</time></trkpt><trkpt lat="45.54492276305862" lon="3.2006526394995016"><ele>423.25</ele><time>2026-05-02T15:21:17Z</time></trkpt><trkpt lat="45.545004537361145" lon="3.2005247839013804"><ele>422.5</ele><time>2026-05-02T15:21:18Z</time></trkpt><trkpt lat="45.54508137380256" lon="3.200393799478179"><ele>421.75</ele><time>2026-05-02T15:21:19Z</time></trkpt><trkpt lat="45.54515414108867" lon="3.200260137165041"><ele>421.0</ele><time>2026-05-02T15:21:20Z</time></trkpt><trkpt lat="45.54522934184886" lon="3.2001260334975257"><ele>421.0</ele><time>2026-05-02T15:21:21Z</time></trkpt><trkpt lat="45.54531218705549" lon="3.19998770056975"><ele>421.0</ele><time>2026-05-02T15:21:22Z</time></trkpt><trkpt lat="45.545395059132325" lon="3.1998546733864"><ele>421.0</ele><time>2026-05-02T15:21:23Z</time></trkpt><trkpt lat="45.545473122410456" lon="3.1997246836303623"><ele>421.0</ele><time>2026-05-02T15:21:24Z</time></trkpt><trkpt lat="45.54555598495097" lon="3.1995919228181995"><ele>422.75</ele><time>2026-05-02T15:21:25Z</time></trkpt><trkpt lat="45.54562539491608" lon="3.1994420088840383"><ele>424.5</ele><time>2026-05-02T15:21:26Z</time></trkpt><trkpt lat="45.54569874127323" lon="3.1992946832284335"><ele>426.25</ele><time>2026-05-02T15:21:27Z</time></trkpt><trkpt lat="45.54577225721829" lon="3.199152891357377"><ele>428.0</ele><time>2026-05-02T15:21:28Z</time></trkpt><trkpt lat="45.54584583742325" lon="3.1990201899609816"><ele>427.4</ele><time>2026-05-02T15:21:29Z</time></trkpt><trkpt lat="45.545916775164" lon="3.1988865238570643"><ele>426.79999999999995</ele><time>2026-05-02T15:21:30Z</time></trkpt><trkpt lat="45.54598007643871" lon="3.1987547262050513"><ele>426.2</ele><time>2026-05-02T15:21:31Z</time></trkpt><trkpt lat="45.54603652627041" lon="3.198620992976439"><ele>425.6</ele><time>2026-05-02T15:21:32Z</time></trkpt><trkpt lat="45.54607903340121" lon="3.1984932894307696"><ele>425.0</ele><time>2026-05-02T15:21:33Z</time></trkpt><trkpt lat="45.54611819664033" lon="3.198359099734942"><ele>425.0</ele><time>2026-05-02T15:21:34Z</time></trkpt><trkpt lat="45.5461496367412" lon="3.198220277439389"><ele>425.0</ele><time>2026-05-02T15:21:35Z</time></trkpt><trkpt lat="45.546178262825556" lon="3.198075658734799"><ele>425.0</ele><time>2026-05-02T15:21:36Z</time></trkpt><trkpt lat="45.546206355229465" lon="3.197926116969417"><ele>425.0</ele><time>2026-05-02T15:21:37Z</time></trkpt><trkpt lat="45.546240523073415" lon="3.1977718318395523"><ele>425.0</ele><time>2026-05-02T15:21:38Z</time></trkpt><trkpt lat="45.54627206802464" lon="3.197618422496142"><ele>426.4</ele><time>2026-05-02T15:21:39Z</time></trkpt><trkpt lat="45.54630381569282" lon="3.1974637213593162"><ele>427.8</ele><time>2026-05-02T15:21:40Z</time></trkpt><trkpt lat="45.546334378758885" lon="3.197307860954079"><ele>429.20000000000005</ele><time>2026-05-02T15:21:41Z</time></trkpt><trkpt lat="45.54636366355668" lon="3.197154795001015"><ele>430.6</ele><time>2026-05-02T15:21:42Z</time></trkpt><trkpt lat="45.54639513691394" lon="3.1970068369161413"><ele>432.0</ele><time>2026-05-02T15:21:43Z</time></trkpt><trkpt lat="45.546437216565025" lon="3.1968727977831586"><ele>432.0</ele><time>2026-05-02T15:21:44Z</time></trkpt><trkpt lat="45.54648699363613" lon="3.196763482899703"><ele>432.00000000000006</ele><time>2026-05-02T15:21:45Z</time></trkpt><trkpt lat="45.54655065449716" lon="3.1966486821761233"><ele>432.00000000000006</ele><time>2026-05-02T15:21:46Z</time></trkpt><trkpt lat="45.54662279598237" lon="3.196546440195844"><ele>432.0</ele><time>2026-05-02T15:21:47Z</time></trkpt><trkpt lat="45.54669800853356" lon="3.196438262643042"><ele>432.0</ele><time>2026-05-02T15:21:48Z</time></trkpt><trkpt lat="45.54676862731994" lon="3.196330542340841"><ele>431.25</ele><time>2026-05-02T15:21:49Z</time></trkpt><trkpt lat="45.54684634013612" lon="3.196213126223395"><ele>430.5</ele><time>2026-05-02T15:21:50Z</time></trkpt><trkpt lat="45.54693012712408" lon="3.19609272286723"><ele>429.75</ele><time>2026-05-02T15:21:51Z</time></trkpt><trkpt lat="45.54701320056618" lon="3.1959750949899393"><ele>429.0</ele><time>2026-05-02T15:21:52Z</time></trkpt><trkpt lat="45.54709846767901" lon="3.195844880753698"><ele>430.75</ele><time>2026-05-02T15:21:53Z</time></trkpt><trkpt lat="45.54717834097148" lon="3.1956972413506337"><ele>432.5</ele><time>2026-05-02T15:21:54Z</time></trkpt><trkpt lat="45.5472405492045" lon="3.1955369938546108"><ele>434.25</ele><time>2026-05-02T15:21:55Z</time></trkpt><trkpt lat="45.54728948023577" lon="3.1953540142413934"><ele>436.0</ele><time>2026-05-02T15:21:56Z</time></trkpt><trkpt lat="45.54732755187171" lon="3.195163129803993"><ele>436.0</ele><time>2026-05-02T15:21:57Z</time></trkpt><trkpt lat="45.547364786420516" lon="3.194961153374783"><ele>436.0</ele><time>2026-05-02T15:21:58Z</time></trkpt><trkpt lat="45.547402859936085" lon="3.1947489924872254"><ele>436.0</ele><time>2026-05-02T15:21:59Z</time></trkpt><trkpt lat="45.54744359431396" lon="3.1945489489463497"><ele>436.0</ele><time>2026-05-02T15:22:00Z</time></trkpt><trkpt lat="45.54747947149136" lon="3.1943693091700665"><ele>435.25</ele><time>2026-05-02T15:22:01Z</time></trkpt><trkpt lat="45.54751601251098" lon="3.1941861077764235"><ele>434.5</ele><time>2026-05-02T15:22:02Z</time></trkpt><trkpt lat="45.54755321985819" lon="3.1939994032520826"><ele>433.75</ele><time>2026-05-02T15:22:03Z</time></trkpt><trkpt lat="45.547588578464634" lon="3.193813916245773"><ele>433.0</ele><time>2026-05-02T15:22:04Z</time></trkpt><trkpt lat="45.547624299072424" lon="3.193633334057493"><ele>432.0</ele><time>2026-05-02T15:22:05Z</time></trkpt><trkpt lat="45.547667612594914" lon="3.1934571718448463"><ele>431.0</ele><time>2026-05-02T15:22:06Z</time></trkpt><trkpt lat="45.547722735033716" lon="3.1932855532250217"><ele>430.0</ele><time>2026-05-02T15:22:07Z</time></trkpt><trkpt lat="45.54778355774061" lon="3.1931181194067824"><ele>429.0</ele><time>2026-05-02T15:22:08Z</time></trkpt><trkpt lat="45.547846036820786" lon="3.1929593835109897"><ele>430.0</ele><time>2026-05-02T15:22:09Z</time></trkpt><trkpt lat="45.547906280108904" lon="3.192805209524086"><ele>431.0</ele><time>2026-05-02T15:22:10Z</time></trkpt><trkpt lat="45.547965567074996" lon="3.1926478414002664"><ele>432.0</ele><time>2026-05-02T15:22:11Z</time></trkpt><trkpt lat="45.5480227220435" lon="3.1924862702190735"><ele>433.0</ele><time>2026-05-02T15:22:12Z</time></trkpt><trkpt lat="45.54807697106184" lon="3.1923371841947703"><ele>433.0</ele><time>2026-05-02T15:22:13Z</time></trkpt><trkpt lat="45.54812818548255" lon="3.192194333717895"><ele>433.0</ele><time>2026-05-02T15:22:14Z</time></trkpt><trkpt lat="45.54817935270992" lon="3.192047331747604"><ele>433.0</ele><time>2026-05-02T15:22:15Z</time></trkpt><trkpt lat="45.54823545726052" lon="3.19189443499624"><ele>433.0</ele><time>2026-05-02T15:22:16Z</time></trkpt><trkpt lat="45.548298153660895" lon="3.191725144166736"><ele>433.0</ele><time>2026-05-02T15:22:17Z</time></trkpt><trkpt lat="45.54836140064909" lon="3.191556000493478"><ele>433.0</ele><time>2026-05-02T15:22:18Z</time></trkpt><trkpt lat="45.54842041245401" lon="3.191392338251236"><ele>433.0</ele><time>2026-05-02T15:22:19Z</time></trkpt><trkpt lat="45.54847694907435" lon="3.1912317542189528"><ele>433.0</ele><time>2026-05-02T15:22:20Z</time></trkpt><trkpt lat="45.54853495625299" lon="3.191066649402985"><ele>433.0</ele><time>2026-05-02T15:22:21Z</time></trkpt><trkpt lat="45.54859334412084" lon="3.1909097995379825"><ele>433.0</ele><time>2026-05-02T15:22:22Z</time></trkpt><trkpt lat="45.54866052974401" lon="3.1907464111450987"><ele>433.0</ele><time>2026-05-02T15:22:23Z</time></trkpt><trkpt lat="45.54872475519115" lon="3.1906003800777207"><ele>433.0</ele><time>2026-05-02T15:22:24Z</time></trkpt><trkpt lat="45.54879123753233" lon="3.1904584415589086"><ele>434.25</ele><time>2026-05-02T15:22:25Z</time></trkpt><trkpt lat="45.548860419873165" lon="3.190314574283064"><ele>435.5</ele><time>2026-05-02T15:22:26Z</time></trkpt><trkpt lat="45.54893659211454" lon="3.1901662154337753"><ele>436.75</ele><time>2026-05-02T15:22:27Z</time></trkpt><trkpt lat="45.54901472089814" lon="3.1900151410841433"><ele>438.0</ele><time>2026-05-02T15:22:28Z</time></trkpt><trkpt lat="45.54909049741544" lon="3.1898702007196897"><ele>438.0</ele><time>2026-05-02T15:22:29Z</time></trkpt><trkpt lat="45.54916843516557" lon="3.189722170928839"><ele>438.0</ele><time>2026-05-02T15:22:30Z</time></trkpt><trkpt lat="45.54924829144321" lon="3.1895766340141356"><ele>438.0</ele><time>2026-05-02T15:22:31Z</time></trkpt><trkpt lat="45.549331726325384" lon="3.189420191153103"><ele>438.0</ele><time>2026-05-02T15:22:32Z</time></trkpt><trkpt lat="45.5494220472327" lon="3.1892604478226048"><ele>438.0</ele><time>2026-05-02T15:22:33Z</time></trkpt><trkpt lat="45.549515961675795" lon="3.1890953783297924"><ele>438.0</ele><time>2026-05-02T15:22:34Z</time></trkpt><trkpt lat="45.549606520053466" lon="3.188932452782317"><ele>438.0</ele><time>2026-05-02T15:22:35Z</time></trkpt><trkpt lat="45.5496916071125" lon="3.1887762264404342"><ele>438.0</ele><time>2026-05-02T15:22:36Z</time></trkpt><trkpt lat="45.549774944809585" lon="3.188623422089599"><ele>438.75</ele><time>2026-05-02T15:22:37Z</time></trkpt><trkpt lat="45.54986136240314" lon="3.188464667876407"><ele>439.5</ele><time>2026-05-02T15:22:38Z</time></trkpt><trkpt lat="45.54995051549246" lon="3.1882961872441125"><ele>440.25</ele><time>2026-05-02T15:22:39Z</time></trkpt><trkpt lat="45.55003931871574" lon="3.1881357811256423"><ele>441.0</ele><time>2026-05-02T15:22:40Z</time></trkpt><trkpt lat="45.550128196642774" lon="3.1879800322738276"><ele>441.0</ele><time>2026-05-02T15:22:41Z</time></trkpt><trkpt lat="45.5502082597593" lon="3.187837070880437"><ele>441.0</ele><time>2026-05-02T15:22:42Z</time></trkpt><trkpt lat="45.55028511154525" lon="3.1877081686713544"><ele>441.0</ele><time>2026-05-02T15:22:43Z</time></trkpt><trkpt lat="45.55036028571686" lon="3.187577641893665"><ele>441.0</ele><time>2026-05-02T15:22:44Z</time></trkpt><trkpt lat="45.5504385382283" lon="3.1874399139652563"><ele>444.5</ele><time>2026-05-02T15:22:45Z</time></trkpt><trkpt lat="45.5505107361597" lon="3.1873007386855763"><ele>448.0</ele><time>2026-05-02T15:22:46Z</time></trkpt><trkpt lat="45.55058325001116" lon="3.1871554244797804"><ele>451.5</ele><time>2026-05-02T15:22:47Z</time></trkpt><trkpt lat="45.55065375990551" lon="3.186999812234661"><ele>455.0</ele><time>2026-05-02T15:22:48Z</time></trkpt><trkpt lat="45.5507081645072" lon="3.1868238532525583"><ele>455.0</ele><time>2026-05-02T15:22:49Z</time></trkpt><trkpt lat="45.55074405480187" lon="3.186625938497522"><ele>455.0</ele><time>2026-05-02T15:22:50Z</time></trkpt><trkpt lat="45.550756340806245" lon="3.186413369428821"><ele>455.0</ele><time>2026-05-02T15:22:51Z</time></trkpt><trkpt lat="45.55074752558684" lon="3.186192687548799"><ele>455.0</ele><time>2026-05-02T15:22:52Z</time></trkpt><trkpt lat="45.55072054047328" lon="3.1859738975913343"><ele>455.0</ele><time>2026-05-02T15:22:53Z</time></trkpt><trkpt lat="45.55068848907217" lon="3.1857502041271446"><ele>455.0</ele><time>2026-05-02T15:22:54Z</time></trkpt><trkpt lat="45.55066336401062" lon="3.185535579214061"><ele>455.0</ele><time>2026-05-02T15:22:55Z</time></trkpt><trkpt lat="45.55064670804443" lon="3.185332383434814"><ele>454.75</ele><time>2026-05-02T15:22:56Z</time></trkpt><trkpt lat="45.55063797063446" lon="3.1851322085217717"><ele>454.5</ele><time>2026-05-02T15:22:57Z</time></trkpt><trkpt lat="45.55064730091413" lon="3.1849232998237356"><ele>454.25</ele><time>2026-05-02T15:22:58Z</time></trkpt><trkpt lat="45.55067349236663" lon="3.1846948473704253"><ele>454.0</ele><time>2026-05-02T15:22:59Z</time></trkpt><trkpt lat="45.55071566207831" lon="3.184465123144463"><ele>454.0</ele><time>2026-05-02T15:23:00Z</time></trkpt><trkpt lat="45.550762875250506" lon="3.184236396337104"><ele>454.0</ele><time>2026-05-02T15:23:01Z</time></trkpt><trkpt lat="45.550813393689424" lon="3.1839853881838844"><ele>454.0</ele><time>2026-05-02T15:23:02Z</time></trkpt><trkpt lat="45.550867899941096" lon="3.1837179640802353"><ele>452.6666666666667</ele><time>2026-05-02T15:23:03Z</time></trkpt><trkpt lat="45.55092061491994" lon="3.1834459604026564"><ele>451.33333333333337</ele><time>2026-05-02T15:23:04Z</time></trkpt><trkpt lat="45.55097154341047" lon="3.183203840599502"><ele>450.0</ele><time>2026-05-02T15:23:05Z</time></trkpt><trkpt lat="45.551025542270715" lon="3.1829593109942587"><ele>449.0</ele><time>2026-05-02T15:23:06Z</time></trkpt><trkpt lat="45.55108918632363" lon="3.1827140372035734"><ele>448.0</ele><time>2026-05-02T15:23:07Z</time></trkpt><trkpt lat="45.5511674661374" lon="3.182473664905931"><ele>447.0</ele><time>2026-05-02T15:23:08Z</time></trkpt><trkpt lat="45.55125638513805" lon="3.182230104550245"><ele>450.33333333333337</ele><time>2026-05-02T15:23:09Z</time></trkpt><trkpt lat="45.551354142277205" lon="3.1819862477799696"><ele>453.6666666666667</ele><time>2026-05-02T15:23:10Z</time></trkpt><trkpt lat="45.551450822345174" lon="3.1817445881312465"><ele>457.0</ele><time>2026-05-02T15:23:11Z</time></trkpt><trkpt lat="45.551539978309904" lon="3.181514135987161"><ele>457.0</ele><time>2026-05-02T15:23:12Z</time></trkpt><trkpt lat="45.55162727020034" lon="3.1812856197681345"><ele>457.0</ele><time>2026-05-02T15:23:13Z</time></trkpt><trkpt lat="45.551715056836535" lon="3.181061716001632"><ele>457.0</ele><time>2026-05-02T15:23:14Z</time></trkpt><trkpt lat="45.55181498404802" lon="3.1808359808737374"><ele>454.6666666666667</ele><time>2026-05-02T15:23:15Z</time></trkpt><trkpt lat="45.55192130667842" lon="3.180618103813116"><ele>452.33333333333337</ele><time>2026-05-02T15:23:16Z</time></trkpt><trkpt lat="45.55203268227509" lon="3.180403378587453"><ele>450.0</ele><time>2026-05-02T15:23:17Z</time></trkpt><trkpt lat="45.55215129587876" lon="3.1801866970713024"><ele>453.66666666666663</ele><time>2026-05-02T15:23:18Z</time></trkpt><trkpt lat="45.552267742449246" lon="3.1799681086239384"><ele>457.3333333333333</ele><time>2026-05-02T15:23:19Z</time></trkpt><trkpt lat="45.552384397486094" lon="3.1797453520765107"><ele>461.0</ele><time>2026-05-02T15:23:20Z</time></trkpt><trkpt lat="45.55249457645911" lon="3.179531897154505"><ele>461.0</ele><time>2026-05-02T15:23:21Z</time></trkpt><trkpt lat="45.55259927941927" lon="3.179332504375574"><ele>461.0</ele><time>2026-05-02T15:23:22Z</time></trkpt><trkpt lat="45.5526967659702" lon="3.179148460576854"><ele>461.0</ele><time>2026-05-02T15:23:23Z</time></trkpt><trkpt lat="45.55279684902455" lon="3.1789775118437684"><ele>463.66666666666663</ele><time>2026-05-02T15:23:24Z</time></trkpt><trkpt lat="45.552915165655236" lon="3.1788209644252268"><ele>466.33333333333337</ele><time>2026-05-02T15:23:25Z</time></trkpt><trkpt lat="45.553058951680384" lon="3.1786831885097584"><ele>469.0</ele><time>2026-05-02T15:23:26Z</time></trkpt><trkpt lat="45.55321902201928" lon="3.1785502679141797"><ele>469.0</ele><time>2026-05-02T15:23:27Z</time></trkpt><trkpt lat="45.55336717359572" lon="3.1784130622602143"><ele>469.0</ele><time>2026-05-02T15:23:28Z</time></trkpt><trkpt lat="45.55349342281786" lon="3.1782428160085328"><ele>469.0</ele><time>2026-05-02T15:23:29Z</time></trkpt><trkpt lat="45.553592682729146" lon="3.1780335419810477"><ele>467.33333333333337</ele><time>2026-05-02T15:23:30Z</time></trkpt><trkpt lat="45.553669182575014" lon="3.1778097363649813"><ele>465.66666666666663</ele><time>2026-05-02T15:23:31Z</time></trkpt><trkpt lat="45.553743161172704" lon="3.177570473763117"><ele>464.0</ele><time>2026-05-02T15:23:32Z</time></trkpt><trkpt lat="45.55382557825136" lon="3.1773186581404778"><ele>468.0</ele><time>2026-05-02T15:23:33Z</time></trkpt><trkpt lat="45.553911331701265" lon="3.1770599879640518"><ele>472.0</ele><time>2026-05-02T15:23:34Z</time></trkpt><trkpt lat="45.55400171947038" lon="3.1767992904288835"><ele>476.0</ele><time>2026-05-02T15:23:35Z</time></trkpt><trkpt lat="45.55407320412174" lon="3.176557761012795"><ele>476.0</ele><time>2026-05-02T15:23:36Z</time></trkpt><trkpt lat="45.55411697850057" lon="3.176323808483112"><ele>476.0</ele><time>2026-05-02T15:23:37Z</time></trkpt><trkpt lat="45.55413050378782" lon="3.1761019790776057"><ele>476.0</ele><time>2026-05-02T15:23:38Z</time></trkpt><trkpt lat="45.55411053391599" lon="3.1758855694120816"><ele>476.0</ele><time>2026-05-02T15:23:39Z</time></trkpt><trkpt lat="45.55406323886834" lon="3.1756907377873516"><ele>476.0</ele><time>2026-05-02T15:23:40Z</time></trkpt><trkpt lat="45.55399639945192" lon="3.1755015663882027"><ele>476.0</ele><time>2026-05-02T15:23:41Z</time></trkpt><trkpt lat="45.55391730927508" lon="3.175301600401172"><ele>478.0</ele><time>2026-05-02T15:23:42Z</time></trkpt><trkpt lat="45.5538376809944" lon="3.175106782088182"><ele>480.0</ele><time>2026-05-02T15:23:43Z</time></trkpt><trkpt lat="45.55377904651577" lon="3.1749194407880728"><ele>482.0</ele><time>2026-05-02T15:23:44Z</time></trkpt><trkpt lat="45.553754966142655" lon="3.1747416744530406"><ele>484.0</ele><time>2026-05-02T15:23:45Z</time></trkpt><trkpt lat="45.55375506674182" lon="3.174564633971928"><ele>484.25</ele><time>2026-05-02T15:23:46Z</time></trkpt><trkpt lat="45.55377543912097" lon="3.1743752152173874"><ele>484.5</ele><time>2026-05-02T15:23:47Z</time></trkpt><trkpt lat="45.553819697701485" lon="3.1741834801426183"><ele>484.75</ele><time>2026-05-02T15:23:48Z</time></trkpt><trkpt lat="45.553883459754296" lon="3.173994139054764"><ele>485.0</ele><time>2026-05-02T15:23:49Z</time></trkpt><trkpt lat="45.553953527484786" lon="3.17380507426014"><ele>483.75</ele><time>2026-05-02T15:23:50Z</time></trkpt><trkpt lat="45.55401706552272" lon="3.1736277751253326"><ele>482.5</ele><time>2026-05-02T15:23:51Z</time></trkpt><trkpt lat="45.55406727628815" lon="3.173463645226116"><ele>481.25</ele><time>2026-05-02T15:23:52Z</time></trkpt><trkpt lat="45.5541148515255" lon="3.173309787580214"><ele>480.0</ele><time>2026-05-02T15:23:53Z</time></trkpt><trkpt lat="45.55415999357284" lon="3.173164616844051"><ele>479.25</ele><time>2026-05-02T15:23:54Z</time></trkpt><trkpt lat="45.55420244105875" lon="3.1730213789902835"><ele>478.5</ele><time>2026-05-02T15:23:55Z</time></trkpt><trkpt lat="45.554245319017724" lon="3.1728733307728465"><ele>477.75</ele><time>2026-05-02T15:23:56Z</time></trkpt><trkpt lat="45.55429533226855" lon="3.172710730991454"><ele>477.0</ele><time>2026-05-02T15:23:57Z</time></trkpt><trkpt lat="45.554349070259384" lon="3.172533970420444"><ele>477.0</ele><time>2026-05-02T15:23:58Z</time></trkpt><trkpt lat="45.55440984214969" lon="3.172354919703104"><ele>477.0</ele><time>2026-05-02T15:23:59Z</time></trkpt><trkpt lat="45.55447740837668" lon="3.1721750112005282"><ele>477.0</ele><time>2026-05-02T15:24:00Z</time></trkpt><trkpt lat="45.554555570301474" lon="3.171999123969419"><ele>477.0</ele><time>2026-05-02T15:24:01Z</time></trkpt><trkpt lat="45.55465511065507" lon="3.17183896371098"><ele>481.0</ele><time>2026-05-02T15:24:02Z</time></trkpt><trkpt lat="45.55476329766193" lon="3.171680169758342"><ele>485.0</ele><time>2026-05-02T15:24:03Z</time></trkpt><trkpt lat="45.554868777060136" lon="3.171523578719836"><ele>489.0</ele><time>2026-05-02T15:24:04Z</time></trkpt><trkpt lat="45.55497093279889" lon="3.171362910355724"><ele>489.0</ele><time>2026-05-02T15:24:05Z</time></trkpt><trkpt lat="45.55506767074498" lon="3.1712058405153423"><ele>489.0</ele><time>2026-05-02T15:24:06Z</time></trkpt><trkpt lat="45.55516886687266" lon="3.171053272962459"><ele>489.0</ele><time>2026-05-02T15:24:07Z</time></trkpt><trkpt lat="45.55526055810284" lon="3.170913580638457"><ele>489.0</ele><time>2026-05-02T15:24:08Z</time></trkpt><trkpt lat="45.555357330880454" lon="3.1707668348582825"><ele>488.75</ele><time>2026-05-02T15:24:09Z</time></trkpt><trkpt lat="45.55545391550886" lon="3.1706168535691295"><ele>488.5</ele><time>2026-05-02T15:24:10Z</time></trkpt><trkpt lat="45.555557509922146" lon="3.170461259774476"><ele>488.25</ele><time>2026-05-02T15:24:11Z</time></trkpt><trkpt lat="45.555659097559214" lon="3.1703060197955777"><ele>488.0</ele><time>2026-05-02T15:24:12Z</time></trkpt><trkpt lat="45.555761326273064" lon="3.170144483083178"><ele>488.0</ele><time>2026-05-02T15:24:13Z</time></trkpt><trkpt lat="45.55586440150419" lon="3.1699806112348514"><ele>488.0</ele><time>2026-05-02T15:24:14Z</time></trkpt><trkpt lat="45.55597256511006" lon="3.169810646233922"><ele>488.0</ele><time>2026-05-02T15:24:15Z</time></trkpt><trkpt lat="45.55608031611621" lon="3.1696448388997776"><ele>488.3333333333333</ele><time>2026-05-02T15:24:16Z</time></trkpt><trkpt lat="45.5561879559789" lon="3.1694788059205306"><ele>488.66666666666663</ele><time>2026-05-02T15:24:17Z</time></trkpt><trkpt lat="45.556300132461985" lon="3.1693102414093786"><ele>489.0</ele><time>2026-05-02T15:24:18Z</time></trkpt><trkpt lat="45.55641109445188" lon="3.169141115381231"><ele>489.33333333333337</ele><time>2026-05-02T15:24:19Z</time></trkpt><trkpt lat="45.55652034444599" lon="3.1689769803621757"><ele>489.6666666666667</ele><time>2026-05-02T15:24:20Z</time></trkpt><trkpt lat="45.556627150324836" lon="3.1688072972728123"><ele>490.0</ele><time>2026-05-02T15:24:21Z</time></trkpt><trkpt lat="45.5567395500882" lon="3.1686387947594117"><ele>490.0</ele><time>2026-05-02T15:24:22Z</time></trkpt><trkpt lat="45.556851468906274" lon="3.1684685570126363"><ele>490.0</ele><time>2026-05-02T15:24:23Z</time></trkpt><trkpt lat="45.556961324335894" lon="3.1682940748121697"><ele>490.0</ele><time>2026-05-02T15:24:24Z</time></trkpt><trkpt lat="45.557078863595656" lon="3.1681166726221233"><ele>490.6666666666667</ele><time>2026-05-02T15:24:25Z</time></trkpt><trkpt lat="45.55719178999922" lon="3.1679403903642513"><ele>491.33333333333337</ele><time>2026-05-02T15:24:26Z</time></trkpt><trkpt lat="45.55731531931373" lon="3.1677710913201116"><ele>492.0</ele><time>2026-05-02T15:24:27Z</time></trkpt><trkpt lat="45.55743801767349" lon="3.1675976384611007"><ele>492.0</ele><time>2026-05-02T15:24:28Z</time></trkpt><trkpt lat="45.557564340058065" lon="3.167431874009046"><ele>492.0</ele><time>2026-05-02T15:24:29Z</time></trkpt><trkpt lat="45.55769476357909" lon="3.167279325079464"><ele>492.0</ele><time>2026-05-02T15:24:30Z</time></trkpt><trkpt lat="45.55783331397278" lon="3.167142128031181"><ele>492.0</ele><time>2026-05-02T15:24:31Z</time></trkpt><trkpt lat="45.55797802291298" lon="3.167012572539964"><ele>492.0</ele><time>2026-05-02T15:24:32Z</time></trkpt><trkpt lat="45.55812352687609" lon="3.166878605279947"><ele>492.0</ele><time>2026-05-02T15:24:33Z</time></trkpt><trkpt lat="45.55828017854044" lon="3.1667326559557627"><ele>492.0</ele><time>2026-05-02T15:24:34Z</time></trkpt><trkpt lat="45.558438159026025" lon="3.1665857983527035"><ele>492.0</ele><time>2026-05-02T15:24:35Z</time></trkpt><trkpt lat="45.55860034164525" lon="3.166432538907496"><ele>492.0</ele><time>2026-05-02T15:24:36Z</time></trkpt><trkpt lat="45.55876452114841" lon="3.1662817403393744"><ele>492.66666666666663</ele><time>2026-05-02T15:24:37Z</time></trkpt><trkpt lat="45.558931362246" lon="3.1661234086424446"><ele>493.3333333333333</ele><time>2026-05-02T15:24:38Z</time></trkpt><trkpt lat="45.55910754610599" lon="3.1659677858447046"><ele>494.0</ele><time>2026-05-02T15:24:39Z</time></trkpt><trkpt lat="45.55927958584213" lon="3.165804912554782"><ele>494.3333333333333</ele><time>2026-05-02T15:24:40Z</time></trkpt><trkpt lat="45.559455523924285" lon="3.165642357455214"><ele>494.66666666666663</ele><time>2026-05-02T15:24:41Z</time></trkpt><trkpt lat="45.559631644624716" lon="3.165475401154659"><ele>495.0</ele><time>2026-05-02T15:24:42Z</time></trkpt><trkpt lat="45.55981336426939" lon="3.1653064765303505"><ele>495.0</ele><time>2026-05-02T15:24:43Z</time></trkpt><trkpt lat="45.559999359107984" lon="3.1651360721738895"><ele>495.0</ele><time>2026-05-02T15:24:44Z</time></trkpt><trkpt lat="45.56018465747584" lon="3.1649642192718987"><ele>495.0</ele><time>2026-05-02T15:24:45Z</time></trkpt><trkpt lat="45.56036809277316" lon="3.164790714636567"><ele>496.0</ele><time>2026-05-02T15:24:46Z</time></trkpt><trkpt lat="45.560549389115266" lon="3.1646258609005917"><ele>497.0</ele><time>2026-05-02T15:24:47Z</time></trkpt><trkpt lat="45.56073101505492" lon="3.1644537912116077"><ele>498.0</ele><time>2026-05-02T15:24:48Z</time></trkpt><trkpt lat="45.56091235839594" lon="3.164280120208526"><ele>498.0</ele><time>2026-05-02T15:24:49Z</time></trkpt><trkpt lat="45.56109635166817" lon="3.164108456201584"><ele>498.0</ele><time>2026-05-02T15:24:50Z</time></trkpt><trkpt lat="45.561281464434074" lon="3.1639366828435094"><ele>498.0</ele><time>2026-05-02T15:24:51Z</time></trkpt><trkpt lat="45.561465592357436" lon="3.163763684398977"><ele>499.33333333333337</ele><time>2026-05-02T15:24:52Z</time></trkpt><trkpt lat="45.561652855780416" lon="3.163590421176963"><ele>500.6666666666667</ele><time>2026-05-02T15:24:53Z</time></trkpt><trkpt lat="45.561838275359044" lon="3.163416750668052"><ele>502.0</ele><time>2026-05-02T15:24:54Z</time></trkpt><trkpt lat="45.56202514242172" lon="3.1632447536181383"><ele>502.6666666666667</ele><time>2026-05-02T15:24:55Z</time></trkpt><trkpt lat="45.56221176294463" lon="3.1630742284585964"><ele>503.33333333333337</ele><time>2026-05-02T15:24:56Z</time></trkpt><trkpt lat="45.56239463701847" lon="3.162901183336296"><ele>504.0</ele><time>2026-05-02T15:24:57Z</time></trkpt><trkpt lat="45.5625744610796" lon="3.162729217232299"><ele>504.0</ele><time>2026-05-02T15:24:58Z</time></trkpt><trkpt lat="45.562754860832776" lon="3.1625598990863715"><ele>504.0</ele><time>2026-05-02T15:24:59Z</time></trkpt><trkpt lat="45.562932479356505" lon="3.162395108251379"><ele>504.0</ele><time>2026-05-02T15:25:00Z</time></trkpt><trkpt lat="45.56310906057388" lon="3.1622312835923276"><ele>505.0</ele><time>2026-05-02T15:25:01Z</time></trkpt><trkpt lat="45.56328419883367" lon="3.162068408748438"><ele>506.0</ele><time>2026-05-02T15:25:02Z</time></trkpt><trkpt lat="45.563461663163146" lon="3.161907276742568"><ele>507.0</ele><time>2026-05-02T15:25:03Z</time></trkpt><trkpt lat="45.56363640460163" lon="3.1617507020648357"><ele>507.0</ele><time>2026-05-02T15:25:04Z</time></trkpt><trkpt lat="45.563805871577195" lon="3.1615938177351923"><ele>507.0</ele><time>2026-05-02T15:25:05Z</time></trkpt><trkpt lat="45.56397272263295" lon="3.1614375311554443"><ele>507.0</ele><time>2026-05-02T15:25:06Z</time></trkpt><trkpt lat="45.5641418492434" lon="3.161278777524159"><ele>507.0</ele><time>2026-05-02T15:25:07Z</time></trkpt><trkpt lat="45.56430915260897" lon="3.1611238942249074"><ele>507.0</ele><time>2026-05-02T15:25:08Z</time></trkpt><trkpt lat="45.56446740472764" lon="3.160975500393487"><ele>507.0</ele><time>2026-05-02T15:25:09Z</time></trkpt><trkpt lat="45.56463047748073" lon="3.160826665109879"><ele>507.66666666666663</ele><time>2026-05-02T15:25:10Z</time></trkpt><trkpt lat="45.56479930168873" lon="3.1606747934999344"><ele>508.3333333333333</ele><time>2026-05-02T15:25:11Z</time></trkpt><trkpt lat="45.56496026067623" lon="3.1605297720693746"><ele>509.0</ele><time>2026-05-02T15:25:12Z</time></trkpt><trkpt lat="45.565135940279276" lon="3.1603677600591924"><ele>509.0</ele><time>2026-05-02T15:25:13Z</time></trkpt><trkpt lat="45.565295453034" lon="3.160222757764919"><ele>509.0</ele><time>2026-05-02T15:25:14Z</time></trkpt><trkpt lat="45.56545962653888" lon="3.1600672916397055"><ele>509.0</ele><time>2026-05-02T15:25:15Z</time></trkpt><trkpt lat="45.56562529928702" lon="3.1599031748690267"><ele>510.0</ele><time>2026-05-02T15:25:16Z</time></trkpt><trkpt lat="45.565785913877" lon="3.1597503008753574"><ele>511.0</ele><time>2026-05-02T15:25:17Z</time></trkpt><trkpt lat="45.56594712048272" lon="3.159594595161733"><ele>512.0</ele><time>2026-05-02T15:25:18Z</time></trkpt><trkpt lat="45.56611127238124" lon="3.1594351873059976"><ele>512.0</ele><time>2026-05-02T15:25:19Z</time></trkpt><trkpt lat="45.56626953556757" lon="3.1592892266837556"><ele>512.0</ele><time>2026-05-02T15:25:20Z</time></trkpt><trkpt lat="45.566434252617206" lon="3.1591291383813664"><ele>512.0</ele><time>2026-05-02T15:25:21Z</time></trkpt><trkpt lat="45.566595444629606" lon="3.1589825838384384"><ele>512.0</ele><time>2026-05-02T15:25:22Z</time></trkpt><trkpt lat="45.566761848351625" lon="3.1588217606292757"><ele>512.0</ele><time>2026-05-02T15:25:23Z</time></trkpt><trkpt lat="45.566925297900426" lon="3.158668262834145"><ele>512.0</ele><time>2026-05-02T15:25:24Z</time></trkpt><trkpt lat="45.56708419114277" lon="3.158513930187238"><ele>511.66666666666663</ele><time>2026-05-02T15:25:25Z</time></trkpt><trkpt lat="45.567252734016" lon="3.158344775535181"><ele>511.33333333333337</ele><time>2026-05-02T15:25:26Z</time></trkpt><trkpt lat="45.567417989221916" lon="3.1581892307319954"><ele>511.0</ele><time>2026-05-02T15:25:27Z</time></trkpt><trkpt lat="45.56758502155704" lon="3.158026023836691"><ele>511.0</ele><time>2026-05-02T15:25:28Z</time></trkpt><trkpt lat="45.567755932138695" lon="3.157866417905684"><ele>511.0</ele><time>2026-05-02T15:25:29Z</time></trkpt><trkpt lat="45.567925870491415" lon="3.1577134965478693"><ele>511.0</ele><time>2026-05-02T15:25:30Z</time></trkpt><trkpt lat="45.56809060765678" lon="3.1575618797512535"><ele>510.6666666666667</ele><time>2026-05-02T15:25:31Z</time></trkpt><trkpt lat="45.568235218004325" lon="3.15742833204442"><ele>510.33333333333337</ele><time>2026-05-02T15:25:32Z</time></trkpt><trkpt lat="45.56836768804099" lon="3.1573119785616868"><ele>510.0</ele><time>2026-05-02T15:25:33Z</time></trkpt><trkpt lat="45.56849370488888" lon="3.15720187734541"><ele>511.0</ele><time>2026-05-02T15:25:34Z</time></trkpt><trkpt lat="45.568609690390616" lon="3.1570989744304185"><ele>512.0</ele><time>2026-05-02T15:25:35Z</time></trkpt><trkpt lat="45.56871855706442" lon="3.1570009605400933"><ele>513.0</ele><time>2026-05-02T15:25:36Z</time></trkpt><trkpt lat="45.568822741073355" lon="3.1569055510060156"><ele>514.0</ele><time>2026-05-02T15:25:37Z</time></trkpt><trkpt lat="45.56891852024951" lon="3.1568143981233088"><ele>514.2</ele><time>2026-05-02T15:25:38Z</time></trkpt><trkpt lat="45.569009052342345" lon="3.1567296889568985"><ele>514.4</ele><time>2026-05-02T15:25:39Z</time></trkpt><trkpt lat="45.56909122051003" lon="3.156651369413464"><ele>514.6</ele><time>2026-05-02T15:25:40Z</time></trkpt><trkpt lat="45.569174726630564" lon="3.1565743951349874"><ele>514.8</ele><time>2026-05-02T15:25:41Z</time></trkpt><trkpt lat="45.56925701035685" lon="3.156499470837423"><ele>515.0</ele><time>2026-05-02T15:25:42Z</time></trkpt><trkpt lat="45.569343348893746" lon="3.156415017345645"><ele>515.2</ele><time>2026-05-02T15:25:43Z</time></trkpt><trkpt lat="45.569431118844264" lon="3.1563323785147785"><ele>515.4</ele><time>2026-05-02T15:25:44Z</time></trkpt><trkpt lat="45.569525055573216" lon="3.156257124923931"><ele>515.6</ele><time>2026-05-02T15:25:45Z</time></trkpt><trkpt lat="45.56961839031789" lon="3.156167919737939"><ele>515.8</ele><time>2026-05-02T15:25:46Z</time></trkpt><trkpt lat="45.56970971147911" lon="3.1560815483804796"><ele>516.0</ele><time>2026-05-02T15:25:47Z</time></trkpt><trkpt lat="45.56980096493539" lon="3.155991171374918"><ele>516.0</ele><time>2026-05-02T15:25:48Z</time></trkpt><trkpt lat="45.56989611961673" lon="3.155902950685604"><ele>516.0</ele><time>2026-05-02T15:25:49Z</time></trkpt><trkpt lat="45.56999346202459" lon="3.1558118370321586"><ele>516.0</ele><time>2026-05-02T15:25:50Z</time></trkpt><trkpt lat="45.5700860440428" lon="3.1557237398645643"><ele>516.0</ele><time>2026-05-02T15:25:51Z</time></trkpt><trkpt lat="45.57017159553822" lon="3.1556411330120504"><ele>516.0</ele><time>2026-05-02T15:25:52Z</time></trkpt><trkpt lat="45.57025453097388" lon="3.155564495255317"><ele>516.0</ele><time>2026-05-02T15:25:53Z</time></trkpt><trkpt lat="45.57033585012469" lon="3.15548689550332"><ele>516.0</ele><time>2026-05-02T15:25:54Z</time></trkpt><trkpt lat="45.570425687680995" lon="3.1553961607696137"><ele>516.0</ele><time>2026-05-02T15:25:55Z</time></trkpt><trkpt lat="45.57051805509814" lon="3.155310097435044"><ele>516.0</ele><time>2026-05-02T15:25:56Z</time></trkpt><trkpt lat="45.5706135997038" lon="3.155218148163092"><ele>516.0</ele><time>2026-05-02T15:25:57Z</time></trkpt><trkpt lat="45.57070854064726" lon="3.1551258772182087"><ele>516.0</ele><time>2026-05-02T15:25:58Z</time></trkpt><trkpt lat="45.570799056657656" lon="3.1550363487102713"><ele>516.0</ele><time>2026-05-02T15:25:59Z</time></trkpt><trkpt lat="45.57089421083756" lon="3.1549385522931885"><ele>516.0</ele><time>2026-05-02T15:26:00Z</time></trkpt><trkpt lat="45.570987772967825" lon="3.1548523250661815"><ele>516.0</ele><time>2026-05-02T15:26:01Z</time></trkpt><trkpt lat="45.57108350287242" lon="3.1547599253153313"><ele>516.0</ele><time>2026-05-02T15:26:02Z</time></trkpt><trkpt lat="45.57118685427038" lon="3.154664472561609"><ele>516.0</ele><time>2026-05-02T15:26:03Z</time></trkpt><trkpt lat="45.57128433249471" lon="3.1545813298506196"><ele>516.0</ele><time>2026-05-02T15:26:04Z</time></trkpt><trkpt lat="45.57137291691119" lon="3.154504853457297"><ele>516.0</ele><time>2026-05-02T15:26:05Z</time></trkpt><trkpt lat="45.5714584172481" lon="3.154430493147218"><ele>516.0</ele><time>2026-05-02T15:26:06Z</time></trkpt><trkpt lat="45.57154321005168" lon="3.1543572944481744"><ele>516.0</ele><time>2026-05-02T15:26:07Z</time></trkpt><trkpt lat="45.57162851323697" lon="3.154283828040295"><ele>516.0</ele><time>2026-05-02T15:26:08Z</time></trkpt><trkpt lat="45.57171310030195" lon="3.154205574952658"><ele>516.0</ele><time>2026-05-02T15:26:09Z</time></trkpt><trkpt lat="45.57180206326573" lon="3.1541236974519054"><ele>516.0</ele><time>2026-05-02T15:26:10Z</time></trkpt><trkpt lat="45.571891969294676" lon="3.1540393909858317"><ele>516.0</ele><time>2026-05-02T15:26:11Z</time></trkpt><trkpt lat="45.5719785076236" lon="3.1539573478760583"><ele>516.0</ele><time>2026-05-02T15:26:12Z</time></trkpt><trkpt lat="45.57205827539396" lon="3.1538833818516827"><ele>516.0</ele><time>2026-05-02T15:26:13Z</time></trkpt><trkpt lat="45.57213705437946" lon="3.1538080162240933"><ele>516.0</ele><time>2026-05-02T15:26:14Z</time></trkpt><trkpt lat="45.572215279683704" lon="3.153734397872407"><ele>516.0</ele><time>2026-05-02T15:26:15Z</time></trkpt><trkpt lat="45.572298587388765" lon="3.15365748161793"><ele>516.0</ele><time>2026-05-02T15:26:16Z</time></trkpt><trkpt lat="45.572383136703664" lon="3.15357865474826"><ele>516.0</ele><time>2026-05-02T15:26:17Z</time></trkpt><trkpt lat="45.57247080898636" lon="3.153498145467699"><ele>516.0</ele><time>2026-05-02T15:26:18Z</time></trkpt><trkpt lat="45.57255953541266" lon="3.153414744192977"><ele>516.0</ele><time>2026-05-02T15:26:19Z</time></trkpt><trkpt lat="45.572645036679916" lon="3.1533356969871686"><ele>516.0</ele><time>2026-05-02T15:26:20Z</time></trkpt><trkpt lat="45.572729825254164" lon="3.153252791984752"><ele>516.0</ele><time>2026-05-02T15:26:21Z</time></trkpt><trkpt lat="45.572816525442846" lon="3.1531613518409216"><ele>516.6</ele><time>2026-05-02T15:26:22Z</time></trkpt><trkpt lat="45.5729090052963" lon="3.153071888941735"><ele>517.2</ele><time>2026-05-02T15:26:23Z</time></trkpt><trkpt lat="45.573006447650094" lon="3.1529767981761294"><ele>517.8</ele><time>2026-05-02T15:26:24Z</time></trkpt><trkpt lat="45.57309290357757" lon="3.15289493536683"><ele>518.4</ele><time>2026-05-02T15:26:25Z</time></trkpt><trkpt lat="45.57317650096316" lon="3.152820322867139"><ele>519.0</ele><time>2026-05-02T15:26:26Z</time></trkpt><trkpt lat="45.573263768113016" lon="3.1527412565991737"><ele>519.0</ele><time>2026-05-02T15:26:27Z</time></trkpt><trkpt lat="45.573352055343335" lon="3.1526669241563186"><ele>519.0</ele><time>2026-05-02T15:26:28Z</time></trkpt><trkpt lat="45.57343777949954" lon="3.152596110065679"><ele>519.0</ele><time>2026-05-02T15:26:29Z</time></trkpt><trkpt lat="45.573519097127004" lon="3.1525240969173147"><ele>519.0</ele><time>2026-05-02T15:26:30Z</time></trkpt><trkpt lat="45.57361198381122" lon="3.1524428263031488"><ele>519.0</ele><time>2026-05-02T15:26:31Z</time></trkpt><trkpt lat="45.57369799081105" lon="3.1523622503494537"><ele>519.8</ele><time>2026-05-02T15:26:32Z</time></trkpt><trkpt lat="45.57378799444748" lon="3.1522764208368765"><ele>520.5999999999999</ele><time>2026-05-02T15:26:33Z</time></trkpt><trkpt lat="45.573874386852026" lon="3.1521916806132144"><ele>521.4</ele><time>2026-05-02T15:26:34Z</time></trkpt><trkpt lat="45.57395830871246" lon="3.1521112165544496"><ele>522.1999999999999</ele><time>2026-05-02T15:26:35Z</time></trkpt><trkpt lat="45.57403814495159" lon="3.152036514968632"><ele>523.0</ele><time>2026-05-02T15:26:36Z</time></trkpt><trkpt lat="45.57411788748936" lon="3.1519649646099737"><ele>523.0</ele><time>2026-05-02T15:26:37Z</time></trkpt><trkpt lat="45.57419781060775" lon="3.151892827205191"><ele>523.0</ele><time>2026-05-02T15:26:38Z</time></trkpt><trkpt lat="45.574280103588876" lon="3.1518149650235383"><ele>523.0</ele><time>2026-05-02T15:26:39Z</time></trkpt><trkpt lat="45.57436459417331" lon="3.1517383440515707"><ele>523.0</ele><time>2026-05-02T15:26:40Z</time></trkpt><trkpt lat="45.574457042322386" lon="3.1516534319466096"><ele>523.0</ele><time>2026-05-02T15:26:41Z</time></trkpt><trkpt lat="45.57454129301135" lon="3.151575880050198"><ele>522.8</ele><time>2026-05-02T15:26:42Z</time></trkpt><trkpt lat="45.57462170678195" lon="3.1514996782514437"><ele>522.5999999999999</ele><time>2026-05-02T15:26:43Z</time></trkpt><trkpt lat="45.57470541861258" lon="3.1514170453335755"><ele>522.4000000000001</ele><time>2026-05-02T15:26:44Z</time></trkpt><trkpt lat="45.57479469500429" lon="3.1513345250743825"><ele>522.2</ele><time>2026-05-02T15:26:45Z</time></trkpt><trkpt lat="45.57488669734771" lon="3.1512498285594455"><ele>522.0</ele><time>2026-05-02T15:26:46Z</time></trkpt><trkpt lat="45.574976451878854" lon="3.151165785022952"><ele>522.0</ele><time>2026-05-02T15:26:47Z</time></trkpt><trkpt lat="45.57506592870123" lon="3.1510829407303396"><ele>522.0</ele><time>2026-05-02T15:26:48Z</time></trkpt><trkpt lat="45.5751512977676" lon="3.1510031668108853"><ele>522.0</ele><time>2026-05-02T15:26:49Z</time></trkpt><trkpt lat="45.57523904374889" lon="3.150924193088724"><ele>522.0</ele><time>2026-05-02T15:26:50Z</time></trkpt><trkpt lat="45.57532826676756" lon="3.150842564562631"><ele>522.0</ele><time>2026-05-02T15:26:51Z</time></trkpt><trkpt lat="45.575416778722" lon="3.150761260738505"><ele>521.8000000000001</ele><time>2026-05-02T15:26:52Z</time></trkpt><trkpt lat="45.57550353319858" lon="3.1506771233717417"><ele>521.6</ele><time>2026-05-02T15:26:53Z</time></trkpt><trkpt lat="45.57559188917577" lon="3.150591798431974"><ele>521.4000000000001</ele><time>2026-05-02T15:26:54Z</time></trkpt><trkpt lat="45.57567997804589" lon="3.1505108620464948"><ele>521.2</ele><time>2026-05-02T15:26:55Z</time></trkpt><trkpt lat="45.575767504337826" lon="3.150432300422592"><ele>521.0</ele><time>2026-05-02T15:26:56Z</time></trkpt><trkpt lat="45.57584950160783" lon="3.1503578571245208"><ele>521.0</ele><time>2026-05-02T15:26:57Z</time></trkpt><trkpt lat="45.57593555312691" lon="3.150279082492273"><ele>521.0</ele><time>2026-05-02T15:26:58Z</time></trkpt><trkpt lat="45.576020553596294" lon="3.1501980439473227"><ele>521.0</ele><time>2026-05-02T15:26:59Z</time></trkpt><trkpt lat="45.576111829536146" lon="3.1501101655032455"><ele>521.0</ele><time>2026-05-02T15:27:00Z</time></trkpt><trkpt lat="45.5761969241972" lon="3.15002984247422"><ele>521.0</ele><time>2026-05-02T15:27:01Z</time></trkpt><trkpt lat="45.576275863636766" lon="3.1499620720704002"><ele>521.4</ele><time>2026-05-02T15:27:02Z</time></trkpt><trkpt lat="45.576348005216396" lon="3.1498978931784816"><ele>521.8</ele><time>2026-05-02T15:27:03Z</time></trkpt><trkpt lat="45.576417446203045" lon="3.1498369938435924"><ele>522.1999999999999</ele><time>2026-05-02T15:27:04Z</time></trkpt><trkpt lat="45.57649206324811" lon="3.14976836213354"><ele>522.6</ele><time>2026-05-02T15:27:05Z</time></trkpt><trkpt lat="45.5765766863132" lon="3.1496889576878977"><ele>523.0</ele><time>2026-05-02T15:27:06Z</time></trkpt><trkpt lat="45.57666660596406" lon="3.149598530982512"><ele>523.0</ele><time>2026-05-02T15:27:07Z</time></trkpt><trkpt lat="45.57676201738651" lon="3.1495111803429863"><ele>523.0</ele><time>2026-05-02T15:27:08Z</time></trkpt><trkpt lat="45.576857444100085" lon="3.149427436838904"><ele>523.0</ele><time>2026-05-02T15:27:09Z</time></trkpt><trkpt lat="45.576953552857454" lon="3.1493409807394244"><ele>523.0</ele><time>2026-05-02T15:27:10Z</time></trkpt><trkpt lat="45.57705259120053" lon="3.149249268592945"><ele>523.25</ele><time>2026-05-02T15:27:11Z</time></trkpt><trkpt lat="45.577153137420744" lon="3.1491631741351918"><ele>523.5</ele><time>2026-05-02T15:27:12Z</time></trkpt><trkpt lat="45.57725844004539" lon="3.1490826548746274"><ele>523.75</ele><time>2026-05-02T15:27:13Z</time></trkpt><trkpt lat="45.57736499846479" lon="3.1490157415852464"><ele>524.0</ele><time>2026-05-02T15:27:14Z</time></trkpt><trkpt lat="45.57746467837477" lon="3.1489708384043693"><ele>524.0</ele><time>2026-05-02T15:27:15Z</time></trkpt><trkpt lat="45.57756609930012" lon="3.1489409404689304"><ele>524.0</ele><time>2026-05-02T15:27:16Z</time></trkpt><trkpt lat="45.57766732907176" lon="3.1489207688903034"><ele>524.0</ele><time>2026-05-02T15:27:17Z</time></trkpt><trkpt lat="45.577768067655306" lon="3.1489108603679625"><ele>524.0</ele><time>2026-05-02T15:27:18Z</time></trkpt><trkpt lat="45.5778742864283" lon="3.1489154232209002"><ele>524.0</ele><time>2026-05-02T15:27:19Z</time></trkpt><trkpt lat="45.5779840989135" lon="3.148932424259174"><ele>523.6</ele><time>2026-05-02T15:27:20Z</time></trkpt><trkpt lat="45.578094513149445" lon="3.1489573337481365"><ele>523.2</ele><time>2026-05-02T15:27:21Z</time></trkpt><trkpt lat="45.57820255768997" lon="3.1489952607866813"><ele>522.8000000000001</ele><time>2026-05-02T15:27:22Z</time></trkpt><trkpt lat="45.578303241707935" lon="3.149038989423416"><ele>522.4</ele><time>2026-05-02T15:27:23Z</time></trkpt><trkpt lat="45.578405783703275" lon="3.1490775542913987"><ele>522.0</ele><time>2026-05-02T15:27:24Z</time></trkpt><trkpt lat="45.57850711435007" lon="3.149120962095275"><ele>521.0</ele><time>2026-05-02T15:27:25Z</time></trkpt><trkpt lat="45.57860510668231" lon="3.1491627470838126"><ele>520.0</ele><time>2026-05-02T15:27:26Z</time></trkpt><trkpt lat="45.5787035160117" lon="3.1492015316004123"><ele>519.0</ele><time>2026-05-02T15:27:27Z</time></trkpt><trkpt lat="45.578804343280936" lon="3.149239520758696"><ele>518.0</ele><time>2026-05-02T15:27:28Z</time></trkpt><trkpt lat="45.57891078821288" lon="3.14928257125952"><ele>517.0</ele><time>2026-05-02T15:27:29Z</time></trkpt><trkpt lat="45.57901595625246" lon="3.1493240032199337"><ele>516.6</ele><time>2026-05-02T15:27:30Z</time></trkpt><trkpt lat="45.57911399262272" lon="3.1493614596062134"><ele>516.2</ele><time>2026-05-02T15:27:31Z</time></trkpt><trkpt lat="45.57920543153324" lon="3.1493946779545245"><ele>515.8</ele><time>2026-05-02T15:27:32Z</time></trkpt><trkpt lat="45.57930314159378" lon="3.1494298384175408"><ele>515.4</ele><time>2026-05-02T15:27:33Z</time></trkpt><trkpt lat="45.579410900386165" lon="3.14946904316445"><ele>515.0</ele><time>2026-05-02T15:27:34Z</time></trkpt><trkpt lat="45.57951809235423" lon="3.149514182442893"><ele>515.0</ele><time>2026-05-02T15:27:35Z</time></trkpt><trkpt lat="45.57961499217528" lon="3.1495563776188384"><ele>515.0</ele><time>2026-05-02T15:27:36Z</time></trkpt><trkpt lat="45.57970818206549" lon="3.1495946379985154"><ele>515.0</ele><time>2026-05-02T15:27:37Z</time></trkpt><trkpt lat="45.57980273818997" lon="3.1496305561431486"><ele>515.0</ele><time>2026-05-02T15:27:38Z</time></trkpt><trkpt lat="45.57989916220545" lon="3.149668355533029"><ele>515.0</ele><time>2026-05-02T15:27:39Z</time></trkpt><trkpt lat="45.579986149287706" lon="3.1497004293369977"><ele>515.0</ele><time>2026-05-02T15:27:40Z</time></trkpt><trkpt lat="45.58007329685748" lon="3.149733750643819"><ele>515.0</ele><time>2026-05-02T15:27:41Z</time></trkpt><trkpt lat="45.580180189750386" lon="3.1497679785175388"><ele>515.0</ele><time>2026-05-02T15:27:42Z</time></trkpt><trkpt lat="45.58029642929652" lon="3.149791069672716"><ele>515.0</ele><time>2026-05-02T15:27:43Z</time></trkpt><trkpt lat="45.58042395418575" lon="3.149802000579992"><ele>515.0</ele><time>2026-05-02T15:27:44Z</time></trkpt><trkpt lat="45.58054398595438" lon="3.149794597549632"><ele>514.6</ele><time>2026-05-02T15:27:45Z</time></trkpt><trkpt lat="45.58065495058694" lon="3.149768362534459"><ele>514.2</ele><time>2026-05-02T15:27:46Z</time></trkpt><trkpt lat="45.58075517957407" lon="3.1497369314898487"><ele>513.8</ele><time>2026-05-02T15:27:47Z</time></trkpt><trkpt lat="45.58084944580318" lon="3.149696421387162"><ele>513.4</ele><time>2026-05-02T15:27:48Z</time></trkpt><trkpt lat="45.58093961945629" lon="3.1496498778365787"><ele>513.0</ele><time>2026-05-02T15:27:49Z</time></trkpt><trkpt lat="45.58101963973377" lon="3.1495910216853176"><ele>513.0</ele><time>2026-05-02T15:27:50Z</time></trkpt><trkpt lat="45.58110048211169" lon="3.1495208032673006"><ele>513.0</ele><time>2026-05-02T15:27:51Z</time></trkpt><trkpt lat="45.58118252708746" lon="3.149445350005121"><ele>513.0</ele><time>2026-05-02T15:27:52Z</time></trkpt><trkpt lat="45.58126935678743" lon="3.1493537231415125"><ele>513.0</ele><time>2026-05-02T15:27:53Z</time></trkpt><trkpt lat="45.581356211845495" lon="3.1492451661668603"><ele>513.0</ele><time>2026-05-02T15:27:54Z</time></trkpt><trkpt lat="45.58142615386257" lon="3.149134358646158"><ele>511.79999999999995</ele><time>2026-05-02T15:27:55Z</time></trkpt><trkpt lat="45.58149153526989" lon="3.1490176209263785"><ele>510.59999999999997</ele><time>2026-05-02T15:27:56Z</time></trkpt><trkpt lat="45.581549867251134" lon="3.148891880054403"><ele>509.40000000000003</ele><time>2026-05-02T15:27:57Z</time></trkpt><trkpt lat="45.581606758282184" lon="3.1487541755576336"><ele>508.20000000000005</ele><time>2026-05-02T15:27:58Z</time></trkpt><trkpt lat="45.58165377266101" lon="3.1486046900512483"><ele>507.0</ele><time>2026-05-02T15:27:59Z</time></trkpt><trkpt lat="45.58169680991628" lon="3.148450382405709"><ele>507.0</ele><time>2026-05-02T15:28:00Z</time></trkpt><trkpt lat="45.58172851226599" lon="3.1482968465208674"><ele>507.00000000000006</ele><time>2026-05-02T15:28:01Z</time></trkpt><trkpt lat="45.58174351444331" lon="3.148153023417534"><ele>507.00000000000006</ele><time>2026-05-02T15:28:02Z</time></trkpt><trkpt lat="45.581750745843785" lon="3.148006030458071"><ele>507.0</ele><time>2026-05-02T15:28:03Z</time></trkpt><trkpt lat="45.58175082819116" lon="3.147865109084518"><ele>507.0</ele><time>2026-05-02T15:28:04Z</time></trkpt><trkpt lat="45.58174623608257" lon="3.147723485940893"><ele>506.40000000000003</ele><time>2026-05-02T15:28:05Z</time></trkpt><trkpt lat="45.58173349324327" lon="3.1475863071297425"><ele>505.80000000000007</ele><time>2026-05-02T15:28:06Z</time></trkpt><trkpt lat="45.58171591615572" lon="3.147436648700177"><ele>505.2</ele><time>2026-05-02T15:28:07Z</time></trkpt><trkpt lat="45.5816935371152" lon="3.147280112441872"><ele>504.6</ele><time>2026-05-02T15:28:08Z</time></trkpt><trkpt lat="45.58167297448891" lon="3.147126404233719"><ele>504.0</ele><time>2026-05-02T15:28:09Z</time></trkpt><trkpt lat="45.581652932009234" lon="3.146986780854534"><ele>503.6</ele><time>2026-05-02T15:28:10Z</time></trkpt><trkpt lat="45.58163162600317" lon="3.1468372291128155"><ele>503.2</ele><time>2026-05-02T15:28:11Z</time></trkpt><trkpt lat="45.58161246977032" lon="3.1466877277415706"><ele>502.80000000000007</ele><time>2026-05-02T15:28:12Z</time></trkpt><trkpt lat="45.58159443837481" lon="3.1465469437762916"><ele>502.40000000000003</ele><time>2026-05-02T15:28:13Z</time></trkpt><trkpt lat="45.58157627934229" lon="3.1464182355228365"><ele>502.0</ele><time>2026-05-02T15:28:14Z</time></trkpt><trkpt lat="45.58155894647287" lon="3.1462779487226453"><ele>501.40000000000003</ele><time>2026-05-02T15:28:15Z</time></trkpt><trkpt lat="45.58154053227342" lon="3.1461339099516517"><ele>500.80000000000007</ele><time>2026-05-02T15:28:16Z</time></trkpt><trkpt lat="45.58151795536808" lon="3.1459879549683554"><ele>500.2</ele><time>2026-05-02T15:28:17Z</time></trkpt><trkpt lat="45.5814952022514" lon="3.145828297510253"><ele>499.6</ele><time>2026-05-02T15:28:18Z</time></trkpt><trkpt lat="45.58147350602351" lon="3.14566714386378"><ele>499.0</ele><time>2026-05-02T15:28:19Z</time></trkpt><trkpt lat="45.58145206683171" lon="3.145497857855615"><ele>499.2</ele><time>2026-05-02T15:28:20Z</time></trkpt><trkpt lat="45.581438548060554" lon="3.1453500192518065"><ele>499.4</ele><time>2026-05-02T15:28:21Z</time></trkpt><trkpt lat="45.58142993737311" lon="3.145205111209023"><ele>499.6</ele><time>2026-05-02T15:28:22Z</time></trkpt><trkpt lat="45.5814331441712" lon="3.1450603383383293"><ele>499.8</ele><time>2026-05-02T15:28:23Z</time></trkpt><trkpt lat="45.581454237427195" lon="3.1449089113150706"><ele>500.0</ele><time>2026-05-02T15:28:24Z</time></trkpt><trkpt lat="45.58151264747751" lon="3.1447744575911534"><ele>500.0</ele><time>2026-05-02T15:28:25Z</time></trkpt><trkpt lat="45.58157194746437" lon="3.1446576810225744"><ele>500.0</ele><time>2026-05-02T15:28:26Z</time></trkpt><trkpt lat="45.58164269700507" lon="3.144559358462613"><ele>500.0</ele><time>2026-05-02T15:28:27Z</time></trkpt><trkpt lat="45.581717607646624" lon="3.1444759371278215"><ele>500.0</ele><time>2026-05-02T15:28:28Z</time></trkpt><trkpt lat="45.58181001285567" lon="3.144408868167307"><ele>500.0</ele><time>2026-05-02T15:28:29Z</time></trkpt><trkpt lat="45.58190867209409" lon="3.1443347895029827"><ele>500.0</ele><time>2026-05-02T15:28:30Z</time></trkpt><trkpt lat="45.58201336203583" lon="3.144318644235407"><ele>500.0</ele><time>2026-05-02T15:28:31Z</time></trkpt><trkpt lat="45.582117574812706" lon="3.1443222756092633"><ele>500.0</ele><time>2026-05-02T15:28:32Z</time></trkpt><trkpt lat="45.58221924958665" lon="3.1443441575822515"><ele>500.0</ele><time>2026-05-02T15:28:33Z</time></trkpt><trkpt lat="45.58232297006436" lon="3.1443886670744035"><ele>500.0</ele><time>2026-05-02T15:28:34Z</time></trkpt><trkpt lat="45.58242284591826" lon="3.144466986544651"><ele>501.0</ele><time>2026-05-02T15:28:35Z</time></trkpt><trkpt lat="45.58251250500848" lon="3.1445565542040015"><ele>502.0</ele><time>2026-05-02T15:28:36Z</time></trkpt><trkpt lat="45.582600055657586" lon="3.14463796685372"><ele>503.0</ele><time>2026-05-02T15:28:37Z</time></trkpt><trkpt lat="45.58268237241785" lon="3.144709071255382"><ele>504.0</ele><time>2026-05-02T15:28:38Z</time></trkpt><trkpt lat="45.58276759494026" lon="3.1447734952116835"><ele>505.0</ele><time>2026-05-02T15:28:39Z</time></trkpt><trkpt lat="45.582860703659534" lon="3.144845702417257"><ele>502.4</ele><time>2026-05-02T15:28:40Z</time></trkpt><trkpt lat="45.582957905069" lon="3.1449203596481285"><ele>499.8</ele><time>2026-05-02T15:28:41Z</time></trkpt><trkpt lat="45.58306709988414" lon="3.144979465921289"><ele>497.20000000000005</ele><time>2026-05-02T15:28:42Z</time></trkpt><trkpt lat="45.58317937242869" lon="3.1450079916861267"><ele>494.6</ele><time>2026-05-02T15:28:43Z</time></trkpt><trkpt lat="45.58328460318025" lon="3.1450284275110936"><ele>492.0</ele><time>2026-05-02T15:28:44Z</time></trkpt><trkpt lat="45.583381691074685" lon="3.145032293068696"><ele>492.0</ele><time>2026-05-02T15:28:45Z</time></trkpt><trkpt lat="45.583482961783616" lon="3.145023646584871"><ele>492.00000000000006</ele><time>2026-05-02T15:28:46Z</time></trkpt><trkpt lat="45.583586043513435" lon="3.145002088948834"><ele>492.00000000000006</ele><time>2026-05-02T15:28:47Z</time></trkpt><trkpt lat="45.58369254652525" lon="3.144965855610299"><ele>492.0</ele><time>2026-05-02T15:28:48Z</time></trkpt><trkpt lat="45.583789815583934" lon="3.1449149467436897"><ele>492.0</ele><time>2026-05-02T15:28:49Z</time></trkpt><trkpt lat="45.583879705146195" lon="3.144856335778421"><ele>492.0</ele><time>2026-05-02T15:28:50Z</time></trkpt><trkpt lat="45.58396542502471" lon="3.144787049258502"><ele>492.00000000000006</ele><time>2026-05-02T15:28:51Z</time></trkpt><trkpt lat="45.584042593926085" lon="3.144710572487212"><ele>492.00000000000006</ele><time>2026-05-02T15:28:52Z</time></trkpt><trkpt lat="45.58412279632792" lon="3.1446157815461246"><ele>492.0</ele><time>2026-05-02T15:28:53Z</time></trkpt><trkpt lat="45.58420736552776" lon="3.144499623305695"><ele>492.0</ele><time>2026-05-02T15:28:54Z</time></trkpt><trkpt lat="45.58427725244624" lon="3.144378565570122"><ele>492.0</ele><time>2026-05-02T15:28:55Z</time></trkpt><trkpt lat="45.584333770268785" lon="3.1442540026582577"><ele>492.00000000000006</ele><time>2026-05-02T15:28:56Z</time></trkpt><trkpt lat="45.58438024963441" lon="3.144126366187977"><ele>492.00000000000006</ele><time>2026-05-02T15:28:57Z</time></trkpt><trkpt lat="45.58441753842445" lon="3.143994756511829"><ele>492.0</ele><time>2026-05-02T15:28:58Z</time></trkpt><trkpt lat="45.58445134201707" lon="3.1438504161653014"><ele>492.0</ele><time>2026-05-02T15:28:59Z</time></trkpt><trkpt lat="45.5844769167396" lon="3.14369023858086"><ele>491.8</ele><time>2026-05-02T15:29:00Z</time></trkpt><trkpt lat="45.58448054735572" lon="3.143538564280474"><ele>491.6</ele><time>2026-05-02T15:29:01Z</time></trkpt><trkpt lat="45.584474183042175" lon="3.1433958300134726"><ele>491.40000000000003</ele><time>2026-05-02T15:29:02Z</time></trkpt><trkpt lat="45.58446325384084" lon="3.1432593569287093"><ele>491.20000000000005</ele><time>2026-05-02T15:29:03Z</time></trkpt><trkpt lat="45.584448869115874" lon="3.1431250309452343"><ele>491.0</ele><time>2026-05-02T15:29:04Z</time></trkpt><trkpt lat="45.58443385901332" lon="3.1429704387879194"><ele>491.0</ele><time>2026-05-02T15:29:05Z</time></trkpt><trkpt lat="45.58442043179053" lon="3.142814632383745"><ele>491.0</ele><time>2026-05-02T15:29:06Z</time></trkpt><trkpt lat="45.584408742665744" lon="3.1426736975447294"><ele>491.0</ele><time>2026-05-02T15:29:07Z</time></trkpt><trkpt lat="45.58440111166883" lon="3.1425346058892587"><ele>491.0</ele><time>2026-05-02T15:29:08Z</time></trkpt><trkpt lat="45.58439579982704" lon="3.142401894566362"><ele>491.0</ele><time>2026-05-02T15:29:09Z</time></trkpt><trkpt lat="45.58438234024414" lon="3.142260128899623"><ele>489.4</ele><time>2026-05-02T15:29:10Z</time></trkpt><trkpt lat="45.58436326376078" lon="3.142102060620928"><ele>487.8</ele><time>2026-05-02T15:29:11Z</time></trkpt><trkpt lat="45.58433790881505" lon="3.141944985747126"><ele>486.19999999999993</ele><time>2026-05-02T15:29:12Z</time></trkpt><trkpt lat="45.584297884485096" lon="3.1418061674610374"><ele>484.59999999999997</ele><time>2026-05-02T15:29:13Z</time></trkpt><trkpt lat="45.584244332743665" lon="3.1416908649448683"><ele>483.0</ele><time>2026-05-02T15:29:14Z</time></trkpt><trkpt lat="45.584183114944295" lon="3.1415840642113686"><ele>481.2</ele><time>2026-05-02T15:29:15Z</time></trkpt><trkpt lat="45.584117712854535" lon="3.1414788973837062"><ele>479.4</ele><time>2026-05-02T15:29:16Z</time></trkpt><trkpt lat="45.584051234103725" lon="3.1413753921137135"><ele>477.59999999999997</ele><time>2026-05-02T15:29:17Z</time></trkpt><trkpt lat="45.58398700364651" lon="3.141276625442044"><ele>475.79999999999995</ele><time>2026-05-02T15:29:18Z</time></trkpt><trkpt lat="45.58392281077889" lon="3.1411777261150706"><ele>474.0</ele><time>2026-05-02T15:29:19Z</time></trkpt><trkpt lat="45.58385740242724" lon="3.141065861964715"><ele>474.0</ele><time>2026-05-02T15:29:20Z</time></trkpt><trkpt lat="45.583798619027846" lon="3.140944033747999"><ele>474.0</ele><time>2026-05-02T15:29:21Z</time></trkpt><trkpt lat="45.58374845961109" lon="3.140802619155276"><ele>474.0</ele><time>2026-05-02T15:29:22Z</time></trkpt><trkpt lat="45.5837231749704" lon="3.140647436361696"><ele>474.0</ele><time>2026-05-02T15:29:23Z</time></trkpt><trkpt lat="45.58371976098234" lon="3.1404889389238524"><ele>474.0</ele><time>2026-05-02T15:29:24Z</time></trkpt><trkpt lat="45.58373346060301" lon="3.1403347568902986"><ele>474.25</ele><time>2026-05-02T15:29:25Z</time></trkpt><trkpt lat="45.58376771507833" lon="3.140180886811248"><ele>474.5</ele><time>2026-05-02T15:29:26Z</time></trkpt><trkpt lat="45.58382205385755" lon="3.1400331722490296"><ele>474.75</ele><time>2026-05-02T15:29:27Z</time></trkpt><trkpt lat="45.58389569780827" lon="3.139903635743965"><ele>475.0</ele><time>2026-05-02T15:29:28Z</time></trkpt><trkpt lat="45.583997366296536" lon="3.139810725200526"><ele>479.8</ele><time>2026-05-02T15:29:29Z</time></trkpt><trkpt lat="45.584093962444896" lon="3.139735658188695"><ele>484.6</ele><time>2026-05-02T15:29:30Z</time></trkpt><trkpt lat="45.58419646932083" lon="3.1396868578603203"><ele>489.4</ele><time>2026-05-02T15:29:31Z</time></trkpt><trkpt lat="45.584300395195655" lon="3.1396648992329053"><ele>494.2</ele><time>2026-05-02T15:29:32Z</time></trkpt><trkpt lat="45.58440337670851" lon="3.1396653508674692"><ele>499.0</ele><time>2026-05-02T15:29:33Z</time></trkpt><trkpt lat="45.58450974654982" lon="3.1396716014434722"><ele>496.79999999999995</ele><time>2026-05-02T15:29:34Z</time></trkpt><trkpt lat="45.58461489722235" lon="3.139704818051771"><ele>494.59999999999997</ele><time>2026-05-02T15:29:35Z</time></trkpt><trkpt lat="45.584717793920625" lon="3.1397323147189655"><ele>492.4</ele><time>2026-05-02T15:29:36Z</time></trkpt><trkpt lat="45.584817621411545" lon="3.1397538801723175"><ele>490.2</ele><time>2026-05-02T15:29:37Z</time></trkpt><trkpt lat="45.58491049840577" lon="3.139764217410773"><ele>488.0</ele><time>2026-05-02T15:29:38Z</time></trkpt><trkpt lat="45.58500827438856" lon="3.1397651317613624"><ele>488.0</ele><time>2026-05-02T15:29:39Z</time></trkpt><trkpt lat="45.585114604384195" lon="3.139760385402552"><ele>487.99999999999994</ele><time>2026-05-02T15:29:40Z</time></trkpt><trkpt lat="45.585222194855234" lon="3.1397362886460516"><ele>487.99999999999994</ele><time>2026-05-02T15:29:41Z</time></trkpt><trkpt lat="45.58532546219262" lon="3.1396880900777395"><ele>488.0</ele><time>2026-05-02T15:29:42Z</time></trkpt><trkpt lat="45.58542021412689" lon="3.1396197377312647"><ele>488.0</ele><time>2026-05-02T15:29:43Z</time></trkpt><trkpt lat="45.58550641245173" lon="3.1395407042636676"><ele>485.2</ele><time>2026-05-02T15:29:44Z</time></trkpt><trkpt lat="45.58558374333717" lon="3.139456190449412"><ele>482.4</ele><time>2026-05-02T15:29:45Z</time></trkpt><trkpt lat="45.58566458514455" lon="3.139352893225991"><ele>479.59999999999997</ele><time>2026-05-02T15:29:46Z</time></trkpt><trkpt lat="45.58574363598244" lon="3.1392397611684606"><ele>476.79999999999995</ele><time>2026-05-02T15:29:47Z</time></trkpt><trkpt lat="45.585819780394246" lon="3.139141302285243"><ele>474.0</ele><time>2026-05-02T15:29:48Z</time></trkpt><trkpt lat="45.58589708440743" lon="3.1390537519742834"><ele>473.79999999999995</ele><time>2026-05-02T15:29:49Z</time></trkpt><trkpt lat="45.585980577955084" lon="3.138972899472882"><ele>473.59999999999997</ele><time>2026-05-02T15:29:50Z</time></trkpt><trkpt lat="45.58606947151915" lon="3.138899347674246"><ele>473.4</ele><time>2026-05-02T15:29:51Z</time></trkpt><trkpt lat="45.58616679871554" lon="3.138834130725511"><ele>473.2</ele><time>2026-05-02T15:29:52Z</time></trkpt><trkpt lat="45.586272126310746" lon="3.138782606106295"><ele>473.0</ele><time>2026-05-02T15:29:53Z</time></trkpt><trkpt lat="45.58638894791751" lon="3.1387494913750813"><ele>473.0</ele><time>2026-05-02T15:29:54Z</time></trkpt><trkpt lat="45.58650136763288" lon="3.138769097146018"><ele>472.99999999999994</ele><time>2026-05-02T15:29:55Z</time></trkpt><trkpt lat="45.586607285256896" lon="3.138767742319437"><ele>472.99999999999994</ele><time>2026-05-02T15:29:56Z</time></trkpt><trkpt lat="45.586703165813674" lon="3.1387925181504763"><ele>473.0</ele><time>2026-05-02T15:29:57Z</time></trkpt><trkpt lat="45.58679935622033" lon="3.138809370995019"><ele>473.0</ele><time>2026-05-02T15:29:58Z</time></trkpt><trkpt lat="45.58690132788472" lon="3.138822970061463"><ele>473.0</ele><time>2026-05-02T15:29:59Z</time></trkpt><trkpt lat="45.587006823886846" lon="3.1388385020917644"><ele>472.99999999999994</ele><time>2026-05-02T15:30:00Z</time></trkpt><trkpt lat="45.5871070695383" lon="3.1388494630881034"><ele>472.99999999999994</ele><time>2026-05-02T15:30:01Z</time></trkpt><trkpt lat="45.58720259869678" lon="3.1388566612730058"><ele>473.0</ele><time>2026-05-02T15:30:02Z</time></trkpt><trkpt lat="45.58729424735982" lon="3.1388593939747813"><ele>473.0</ele><time>2026-05-02T15:30:03Z</time></trkpt><trkpt lat="45.587382793736474" lon="3.1388550234781065"><ele>472.0</ele><time>2026-05-02T15:30:04Z</time></trkpt><trkpt lat="45.587480916546255" lon="3.138837537525657"><ele>470.99999999999994</ele><time>2026-05-02T15:30:05Z</time></trkpt><trkpt lat="45.58757961476985" lon="3.1388034604722423"><ele>469.99999999999994</ele><time>2026-05-02T15:30:06Z</time></trkpt><trkpt lat="45.5876808160406" lon="3.1387480210935177"><ele>469.0</ele><time>2026-05-02T15:30:07Z</time></trkpt><trkpt lat="45.58777681938791" lon="3.1386677840209134"><ele>468.0</ele><time>2026-05-02T15:30:08Z</time></trkpt><trkpt lat="45.587865844071224" lon="3.138567497682021"><ele>467.0</ele><time>2026-05-02T15:30:09Z</time></trkpt><trkpt lat="45.587948130139665" lon="3.138452367202491"><ele>465.99999999999994</ele><time>2026-05-02T15:30:10Z</time></trkpt><trkpt lat="45.588019952347146" lon="3.138327085707309"><ele>464.99999999999994</ele><time>2026-05-02T15:30:11Z</time></trkpt><trkpt lat="45.588083107523204" lon="3.1382103591449146"><ele>464.0</ele><time>2026-05-02T15:30:12Z</time></trkpt><trkpt lat="45.58814498985738" lon="3.1381022806739893"><ele>463.0</ele><time>2026-05-02T15:30:13Z</time></trkpt><trkpt lat="45.58820793911252" lon="3.1379957539748933"><ele>463.0</ele><time>2026-05-02T15:30:14Z</time></trkpt><trkpt lat="45.58826570336085" lon="3.137893088203719"><ele>462.99999999999994</ele><time>2026-05-02T15:30:15Z</time></trkpt><trkpt lat="45.5883299471886" lon="3.137783918252365"><ele>462.99999999999994</ele><time>2026-05-02T15:30:16Z</time></trkpt><trkpt lat="45.58840233663577" lon="3.137663116843605"><ele>463.0</ele><time>2026-05-02T15:30:17Z</time></trkpt><trkpt lat="45.588474387588406" lon="3.137539701065854"><ele>463.0</ele><time>2026-05-02T15:30:18Z</time></trkpt><trkpt lat="45.5885441578496" lon="3.1374260424658718"><ele>463.79999999999995</ele><time>2026-05-02T15:30:19Z</time></trkpt><trkpt lat="45.588610603292736" lon="3.137319997762721"><ele>464.59999999999997</ele><time>2026-05-02T15:30:20Z</time></trkpt><trkpt lat="45.58867249833037" lon="3.1372189260088565"><ele>465.40000000000003</ele><time>2026-05-02T15:30:21Z</time></trkpt><trkpt lat="45.58873393531477" lon="3.137111199754241"><ele>466.20000000000005</ele><time>2026-05-02T15:30:22Z</time></trkpt><trkpt lat="45.5887845412614" lon="3.13700560793862"><ele>467.0</ele><time>2026-05-02T15:30:23Z</time></trkpt><trkpt lat="45.588819582243765" lon="3.1368889891570535"><ele>463.6</ele><time>2026-05-02T15:30:24Z</time></trkpt><trkpt lat="45.58884712082515" lon="3.1367555857832183"><ele>460.20000000000005</ele><time>2026-05-02T15:30:25Z</time></trkpt><trkpt lat="45.58886480427899" lon="3.136618447550541"><ele>456.8</ele><time>2026-05-02T15:30:26Z</time></trkpt><trkpt lat="45.58887287177588" lon="3.1364934921954446"><ele>453.4</ele><time>2026-05-02T15:30:27Z</time></trkpt><trkpt lat="45.588871014947856" lon="3.1363700582238794"><ele>450.0</ele><time>2026-05-02T15:30:28Z</time></trkpt><trkpt lat="45.58885370928134" lon="3.136251796883921"><ele>450.0</ele><time>2026-05-02T15:30:29Z</time></trkpt><trkpt lat="45.588829346812624" lon="3.1361319721361696"><ele>450.0</ele><time>2026-05-02T15:30:30Z</time></trkpt><trkpt lat="45.5887958310292" lon="3.1360108644664257"><ele>450.0</ele><time>2026-05-02T15:30:31Z</time></trkpt><trkpt lat="45.588752538353255" lon="3.1358777448012036"><ele>450.0</ele><time>2026-05-02T15:30:32Z</time></trkpt><trkpt lat="45.58871005853054" lon="3.1357576310383277"><ele>450.0</ele><time>2026-05-02T15:30:33Z</time></trkpt><trkpt lat="45.58869102009634" lon="3.1356421775590606"><ele>451.1666666666667</ele><time>2026-05-02T15:30:34Z</time></trkpt><trkpt lat="45.588663221721966" lon="3.1355501620200084"><ele>452.33333333333337</ele><time>2026-05-02T15:30:35Z</time></trkpt><trkpt lat="45.58863361433825" lon="3.135452158486762"><ele>453.5</ele><time>2026-05-02T15:30:36Z</time></trkpt><trkpt lat="45.58859277130719" lon="3.135365850405296"><ele>454.6666666666667</ele><time>2026-05-02T15:30:37Z</time></trkpt><trkpt lat="45.588572619779995" lon="3.135265597046197"><ele>455.83333333333337</ele><time>2026-05-02T15:30:38Z</time></trkpt><trkpt lat="45.5885751443469" lon="3.1351522153442883"><ele>457.0</ele><time>2026-05-02T15:30:39Z</time></trkpt><trkpt lat="45.588557320392205" lon="3.135040898109057"><ele>457.00000000000006</ele><time>2026-05-02T15:30:40Z</time></trkpt><trkpt lat="45.58857338399556" lon="3.1349258788061958"><ele>457.0</ele><time>2026-05-02T15:30:41Z</time></trkpt><trkpt lat="45.58859142448209" lon="3.1348284567278393"><ele>457.0</ele><time>2026-05-02T15:30:42Z</time></trkpt><trkpt lat="45.58861126240568" lon="3.1347339671383065"><ele>457.0</ele><time>2026-05-02T15:30:43Z</time></trkpt><trkpt lat="45.58863132162531" lon="3.1346449950813207"><ele>457.00000000000006</ele><time>2026-05-02T15:30:44Z</time></trkpt><trkpt lat="45.58864541360068" lon="3.1345572614052513"><ele>457.0</ele><time>2026-05-02T15:30:45Z</time></trkpt><trkpt lat="45.588655941679946" lon="3.1343837163504698"><ele>456.20000000000005</ele><time>2026-05-02T15:30:47Z</time></trkpt><trkpt lat="45.58864371290468" lon="3.1342282779172117"><ele>455.40000000000003</ele><time>2026-05-02T15:30:49Z</time></trkpt><trkpt lat="45.58862800117138" lon="3.1341075759202055"><ele>454.59999999999997</ele><time>2026-05-02T15:30:51Z</time></trkpt><trkpt lat="45.58864192700319" lon="3.133985535227379"><ele>453.79999999999995</ele><time>2026-05-02T15:30:53Z</time></trkpt><trkpt lat="45.58870321521133" lon="3.133850554993489"><ele>453.0</ele><time>2026-05-02T15:30:55Z</time></trkpt><trkpt lat="45.58864566782725" lon="3.1337212529969056"><ele>453.0</ele><time>2026-05-02T15:30:57Z</time></trkpt><trkpt lat="45.588590362611264" lon="3.133658311821143"><ele>452.99999999999994</ele><time>2026-05-02T15:30:58Z</time></trkpt><trkpt lat="45.588542361384334" lon="3.133548911139032"><ele>452.99999999999994</ele><time>2026-05-02T15:30:59Z</time></trkpt><trkpt lat="45.58850561552211" lon="3.133382939764981"><ele>453.0</ele><time>2026-05-02T15:31:00Z</time></trkpt><trkpt lat="45.588484344536845" lon="3.1332200526209233"><ele>453.0</ele><time>2026-05-02T15:31:01Z</time></trkpt><trkpt lat="45.588473067646525" lon="3.133073305401908"><ele>453.25</ele><time>2026-05-02T15:31:02Z</time></trkpt><trkpt lat="45.58847200809198" lon="3.132932675753312"><ele>453.5</ele><time>2026-05-02T15:31:03Z</time></trkpt><trkpt lat="45.588484615117395" lon="3.132776427438994"><ele>453.75</ele><time>2026-05-02T15:31:04Z</time></trkpt><trkpt lat="45.58853672806375" lon="3.1326249797257475"><ele>454.0</ele><time>2026-05-02T15:31:05Z</time></trkpt><trkpt lat="45.58859931334327" lon="3.132457190814821"><ele>458.0</ele><time>2026-05-02T15:31:06Z</time></trkpt><trkpt lat="45.58869506593507" lon="3.132264281473832"><ele>462.0</ele><time>2026-05-02T15:31:07Z</time></trkpt><trkpt lat="45.58878351590837" lon="3.132069000821066"><ele>466.0</ele><time>2026-05-02T15:31:08Z</time></trkpt><trkpt lat="45.58887209532117" lon="3.1319259481768724"><ele>466.0</ele><time>2026-05-02T15:31:09Z</time></trkpt><trkpt lat="45.5889467177482" lon="3.1317917938613875"><ele>466.0</ele><time>2026-05-02T15:31:10Z</time></trkpt><trkpt lat="45.58901711902401" lon="3.131667368414191"><ele>466.0</ele><time>2026-05-02T15:31:11Z</time></trkpt><trkpt lat="45.58907750938328" lon="3.13155209487451"><ele>466.0</ele><time>2026-05-02T15:31:12Z</time></trkpt><trkpt lat="45.58913329827738" lon="3.131441701514557"><ele>466.0</ele><time>2026-05-02T15:31:13Z</time></trkpt><trkpt lat="45.58917889022028" lon="3.131334459380822"><ele>463.8</ele><time>2026-05-02T15:31:14Z</time></trkpt><trkpt lat="45.58922077109159" lon="3.131227971258999"><ele>461.6</ele><time>2026-05-02T15:31:15Z</time></trkpt><trkpt lat="45.58926265897044" lon="3.131113009010565"><ele>459.4</ele><time>2026-05-02T15:31:16Z</time></trkpt><trkpt lat="45.589302678177454" lon="3.130986786449882"><ele>457.2</ele><time>2026-05-02T15:31:17Z</time></trkpt><trkpt lat="45.58933281897896" lon="3.1308638881344257"><ele>455.0</ele><time>2026-05-02T15:31:18Z</time></trkpt><trkpt lat="45.58935265714142" lon="3.130740461699897"><ele>455.16666666666663</ele><time>2026-05-02T15:31:19Z</time></trkpt><trkpt lat="45.589359630200924" lon="3.1306147024763193"><ele>455.3333333333333</ele><time>2026-05-02T15:31:20Z</time></trkpt><trkpt lat="45.58934965447168" lon="3.1304901542230983"><ele>455.5</ele><time>2026-05-02T15:31:21Z</time></trkpt><trkpt lat="45.58932125465271" lon="3.130370505535727"><ele>455.66666666666663</ele><time>2026-05-02T15:31:22Z</time></trkpt><trkpt lat="45.58928173783969" lon="3.130260831403851"><ele>455.8333333333333</ele><time>2026-05-02T15:31:23Z</time></trkpt><trkpt lat="45.58926179917637" lon="3.1301486165671872"><ele>456.0</ele><time>2026-05-02T15:31:24Z</time></trkpt><trkpt lat="45.589219460688334" lon="3.130064520405853"><ele>456.0</ele><time>2026-05-02T15:31:25Z</time></trkpt><trkpt lat="45.589224544025484" lon="3.1299555386361804"><ele>456.0</ele><time>2026-05-02T15:31:26Z</time></trkpt><trkpt lat="45.589207230516784" lon="3.1298332726437716"><ele>456.0</ele><time>2026-05-02T15:31:28Z</time></trkpt><trkpt lat="45.58934652648734" lon="3.1296056339909946"><ele>456.0</ele><time>2026-05-02T15:31:29Z</time></trkpt><trkpt lat="45.589390397921015" lon="3.1294993846060697"><ele>457.6</ele><time>2026-05-02T15:31:30Z</time></trkpt><trkpt lat="45.589434847382044" lon="3.129406438346156"><ele>459.20000000000005</ele><time>2026-05-02T15:31:31Z</time></trkpt><trkpt lat="45.58949718032278" lon="3.1293200613778636"><ele>460.79999999999995</ele><time>2026-05-02T15:31:32Z</time></trkpt><trkpt lat="45.58958695902685" lon="3.1292732749583725"><ele>462.4</ele><time>2026-05-02T15:31:33Z</time></trkpt><trkpt lat="45.589659930470596" lon="3.1291847549359337"><ele>464.0</ele><time>2026-05-02T15:31:34Z</time></trkpt><trkpt lat="45.58976616298415" lon="3.1291313088410626"><ele>464.0</ele><time>2026-05-02T15:31:35Z</time></trkpt><trkpt lat="45.58987805229153" lon="3.1291068770456696"><ele>464.0</ele><time>2026-05-02T15:31:36Z</time></trkpt><trkpt lat="45.589995389074026" lon="3.129090098104202"><ele>464.0</ele><time>2026-05-02T15:31:37Z</time></trkpt><trkpt lat="45.590110937069255" lon="3.1290705444583393"><ele>464.0</ele><time>2026-05-02T15:31:38Z</time></trkpt><trkpt lat="45.590228554140715" lon="3.129050660857529"><ele>466.5</ele><time>2026-05-02T15:31:39Z</time></trkpt><trkpt lat="45.59034818216117" lon="3.1290651089331027"><ele>469.0</ele><time>2026-05-02T15:31:40Z</time></trkpt><trkpt lat="45.59046929396062" lon="3.129063987024096"><ele>471.5</ele><time>2026-05-02T15:31:41Z</time></trkpt><trkpt lat="45.59058463661381" lon="3.129059607386998"><ele>474.0</ele><time>2026-05-02T15:31:42Z</time></trkpt><trkpt lat="45.59070157926363" lon="3.1290455575634586"><ele>474.5</ele><time>2026-05-02T15:31:43Z</time></trkpt><trkpt lat="45.59081760351613" lon="3.129005341393515"><ele>475.0</ele><time>2026-05-02T15:31:44Z</time></trkpt><trkpt lat="45.590926510690224" lon="3.128921978011483"><ele>475.5</ele><time>2026-05-02T15:31:45Z</time></trkpt><trkpt lat="45.59103384553655" lon="3.12883778363465"><ele>476.0</ele><time>2026-05-02T15:31:46Z</time></trkpt><trkpt lat="45.591145882009215" lon="3.1287670965246046"><ele>477.0</ele><time>2026-05-02T15:31:47Z</time></trkpt><trkpt lat="45.591257677698756" lon="3.1287094662762813"><ele>478.0</ele><time>2026-05-02T15:31:48Z</time></trkpt><trkpt lat="45.59135683881277" lon="3.12867295502205"><ele>479.0</ele><time>2026-05-02T15:31:49Z</time></trkpt><trkpt lat="45.59146816677974" lon="3.128711609096142"><ele>480.0</ele><time>2026-05-02T15:31:50Z</time></trkpt><trkpt lat="45.591567559750004" lon="3.128813421612296"><ele>480.0</ele><time>2026-05-02T15:31:51Z</time></trkpt><trkpt lat="45.59167614696886" lon="3.1289102296137554"><ele>480.0</ele><time>2026-05-02T15:31:52Z</time></trkpt><trkpt lat="45.59177599168226" lon="3.1290288384578777"><ele>480.0</ele><time>2026-05-02T15:31:53Z</time></trkpt><trkpt lat="45.591878671446175" lon="3.129148091258111"><ele>480.0</ele><time>2026-05-02T15:31:54Z</time></trkpt><trkpt lat="45.59200051612346" lon="3.1292823918778203"><ele>479.75</ele><time>2026-05-02T15:31:55Z</time></trkpt><trkpt lat="45.592108840534245" lon="3.129378830267393"><ele>479.5</ele><time>2026-05-02T15:31:56Z</time></trkpt><trkpt lat="45.592215802823034" lon="3.129429517601959"><ele>479.25</ele><time>2026-05-02T15:31:57Z</time></trkpt><trkpt lat="45.59232409434312" lon="3.1294540160711266"><ele>479.0</ele><time>2026-05-02T15:31:58Z</time></trkpt><trkpt lat="45.592442230956365" lon="3.1294536335828775"><ele>479.0</ele><time>2026-05-02T15:31:59Z</time></trkpt><trkpt lat="45.5925658833965" lon="3.1294383783491706"><ele>479.0</ele><time>2026-05-02T15:32:00Z</time></trkpt><trkpt lat="45.592687242058865" lon="3.1294106477865697"><ele>479.0</ele><time>2026-05-02T15:32:01Z</time></trkpt><trkpt lat="45.59280509395894" lon="3.1293537964915132"><ele>479.0</ele><time>2026-05-02T15:32:02Z</time></trkpt><trkpt lat="45.59292166976373" lon="3.129276183676887"><ele>479.75</ele><time>2026-05-02T15:32:03Z</time></trkpt><trkpt lat="45.59303613047652" lon="3.12919042320168"><ele>480.5</ele><time>2026-05-02T15:32:04Z</time></trkpt><trkpt lat="45.59315512333675" lon="3.129105970598831"><ele>481.25</ele><time>2026-05-02T15:32:05Z</time></trkpt><trkpt lat="45.59328357181521" lon="3.12902148154617"><ele>482.0</ele><time>2026-05-02T15:32:06Z</time></trkpt><trkpt lat="45.59343196439677" lon="3.1289251970728964"><ele>482.3333333333333</ele><time>2026-05-02T15:32:07Z</time></trkpt><trkpt lat="45.59361310023141" lon="3.1288570448360953"><ele>482.66666666666663</ele><time>2026-05-02T15:32:08Z</time></trkpt><trkpt lat="45.59381361312762" lon="3.1287589302031935"><ele>483.0</ele><time>2026-05-02T15:32:09Z</time></trkpt><trkpt lat="45.59397827428996" lon="3.128693101716377"><ele>483.0</ele><time>2026-05-02T15:32:10Z</time></trkpt><trkpt lat="45.59410394930607" lon="3.1286053070513264"><ele>483.0</ele><time>2026-05-02T15:32:11Z</time></trkpt><trkpt lat="45.59419739729266" lon="3.1284951117865827"><ele>483.0</ele><time>2026-05-02T15:32:12Z</time></trkpt><trkpt lat="45.594261041819124" lon="3.128355289589478"><ele>483.0</ele><time>2026-05-02T15:32:13Z</time></trkpt><trkpt lat="45.594303548836635" lon="3.1282027503489473"><ele>485.0</ele><time>2026-05-02T15:32:14Z</time></trkpt><trkpt lat="45.594331495997324" lon="3.128039962230363"><ele>487.0</ele><time>2026-05-02T15:32:15Z</time></trkpt><trkpt lat="45.59436699058451" lon="3.127874563120231"><ele>489.0</ele><time>2026-05-02T15:32:16Z</time></trkpt><trkpt lat="45.59441008354288" lon="3.1277032876050113"><ele>491.0</ele><time>2026-05-02T15:32:17Z</time></trkpt><trkpt lat="45.594449508430735" lon="3.12752457359683"><ele>492.0</ele><time>2026-05-02T15:32:18Z</time></trkpt><trkpt lat="45.594493783029165" lon="3.1273419712660044"><ele>493.0</ele><time>2026-05-02T15:32:19Z</time></trkpt><trkpt lat="45.594532533017684" lon="3.1271600575502156"><ele>494.0</ele><time>2026-05-02T15:32:20Z</time></trkpt><trkpt lat="45.59457843235279" lon="3.1269733876753056"><ele>495.0</ele><time>2026-05-02T15:32:21Z</time></trkpt><trkpt lat="45.5946573642121" lon="3.1267522157680054"><ele>495.33333333333337</ele><time>2026-05-02T15:32:22Z</time></trkpt><trkpt lat="45.59474918697557" lon="3.126506501233878"><ele>495.6666666666667</ele><time>2026-05-02T15:32:23Z</time></trkpt><trkpt lat="45.59483901640904" lon="3.12630582060625"><ele>496.0</ele><time>2026-05-02T15:32:24Z</time></trkpt><trkpt lat="45.59494954067846" lon="3.126217826151107"><ele>496.0</ele><time>2026-05-02T15:32:25Z</time></trkpt><trkpt lat="45.59505651047612" lon="3.1261630055737126"><ele>496.0</ele><time>2026-05-02T15:32:26Z</time></trkpt><trkpt lat="45.59519704772487" lon="3.126163474696627"><ele>496.0</ele><time>2026-05-02T15:32:27Z</time></trkpt><trkpt lat="45.59536816054385" lon="3.12617632757426"><ele>496.0</ele><time>2026-05-02T15:32:28Z</time></trkpt><trkpt lat="45.595560886462984" lon="3.1262008294252595"><ele>496.0</ele><time>2026-05-02T15:32:29Z</time></trkpt><trkpt lat="45.59574421117532" lon="3.126299735569391"><ele>496.0</ele><time>2026-05-02T15:32:30Z</time></trkpt><trkpt lat="45.59593125494602" lon="3.1263953506168454"><ele>496.0</ele><time>2026-05-02T15:32:31Z</time></trkpt><trkpt lat="45.59609576569347" lon="3.1264361265164067"><ele>497.0</ele><time>2026-05-02T15:32:32Z</time></trkpt><trkpt lat="45.59624582870146" lon="3.126453710574259"><ele>498.0</ele><time>2026-05-02T15:32:33Z</time></trkpt><trkpt lat="45.59638525192016" lon="3.126422185455232"><ele>499.0</ele><time>2026-05-02T15:32:34Z</time></trkpt><trkpt lat="45.596533579227724" lon="3.126295116516464"><ele>499.0</ele><time>2026-05-02T15:32:35Z</time></trkpt><trkpt lat="45.596647211383" lon="3.1261295630034653"><ele>499.0</ele><time>2026-05-02T15:32:36Z</time></trkpt><trkpt lat="45.59672826417677" lon="3.125910045089362"><ele>499.0</ele><time>2026-05-02T15:32:37Z</time></trkpt><trkpt lat="45.59678877685567" lon="3.1256396414044647"><ele>500.6666666666667</ele><time>2026-05-02T15:32:38Z</time></trkpt><trkpt lat="45.59681553770051" lon="3.125353091342446"><ele>502.33333333333337</ele><time>2026-05-02T15:32:39Z</time></trkpt><trkpt lat="45.596888078244476" lon="3.125171068004909"><ele>504.0</ele><time>2026-05-02T15:32:40Z</time></trkpt><trkpt lat="45.596970849211715" lon="3.1250459662560015"><ele>503.75</ele><time>2026-05-02T15:32:41Z</time></trkpt><trkpt lat="45.597075477504056" lon="3.1249908613829644"><ele>503.5</ele><time>2026-05-02T15:32:42Z</time></trkpt><trkpt lat="45.59720250288408" lon="3.125001607287538"><ele>503.25</ele><time>2026-05-02T15:32:43Z</time></trkpt><trkpt lat="45.59732508473325" lon="3.1251475204777965"><ele>503.0</ele><time>2026-05-02T15:32:44Z</time></trkpt><trkpt lat="45.5974860579654" lon="3.125226572876126"><ele>503.0</ele><time>2026-05-02T15:32:45Z</time></trkpt><trkpt lat="45.597671665785214" lon="3.1252455451167456"><ele>503.0</ele><time>2026-05-02T15:32:46Z</time></trkpt><trkpt lat="45.59787676226968" lon="3.1252685801685764"><ele>503.0</ele><time>2026-05-02T15:32:47Z</time></trkpt><trkpt lat="45.59809134956677" lon="3.1253067175829847"><ele>506.5</ele><time>2026-05-02T15:32:48Z</time></trkpt><trkpt lat="45.598303401893766" lon="3.125409672313532"><ele>510.0</ele><time>2026-05-02T15:32:49Z</time></trkpt><trkpt lat="45.59853720551147" lon="3.1254871245528384"><ele>510.33333333333337</ele><time>2026-05-02T15:32:50Z</time></trkpt><trkpt lat="45.598761388980606" lon="3.125591417343822"><ele>510.6666666666667</ele><time>2026-05-02T15:32:51Z</time></trkpt><trkpt lat="45.59893728612554" lon="3.1256630499889932"><ele>511.0</ele><time>2026-05-02T15:32:52Z</time></trkpt><trkpt lat="45.59909219452809" lon="3.125668807776939"><ele>511.0</ele><time>2026-05-02T15:32:53Z</time></trkpt><trkpt lat="45.59927765037135" lon="3.125594753667166"><ele>511.0</ele><time>2026-05-02T15:32:54Z</time></trkpt><trkpt lat="45.59947025857025" lon="3.125461848994292"><ele>511.0</ele><time>2026-05-02T15:32:55Z</time></trkpt><trkpt lat="45.599626628374494" lon="3.125291019236205"><ele>512.6666666666667</ele><time>2026-05-02T15:32:56Z</time></trkpt><trkpt lat="45.599734094611485" lon="3.1251104815464377"><ele>514.3333333333334</ele><time>2026-05-02T15:32:57Z</time></trkpt><trkpt lat="45.59981760452816" lon="3.1248866224946137"><ele>516.0</ele><time>2026-05-02T15:32:58Z</time></trkpt><trkpt lat="45.599878776617686" lon="3.1246233736142943"><ele>516.6666666666666</ele><time>2026-05-02T15:32:59Z</time></trkpt><trkpt lat="45.59990858606776" lon="3.1243297075446095"><ele>517.3333333333333</ele><time>2026-05-02T15:33:00Z</time></trkpt><trkpt lat="45.599905644650725" lon="3.124024894013815"><ele>518.0</ele><time>2026-05-02T15:33:01Z</time></trkpt><trkpt lat="45.599871959532884" lon="3.1236891386587424"><ele>518.3333333333333</ele><time>2026-05-02T15:33:02Z</time></trkpt><trkpt lat="45.59987169440714" lon="3.1233673466432865"><ele>518.6666666666666</ele><time>2026-05-02T15:33:03Z</time></trkpt><trkpt lat="45.599889453443325" lon="3.1230916488162412"><ele>519.0</ele><time>2026-05-02T15:33:04Z</time></trkpt><trkpt lat="45.59994430200465" lon="3.1228564296043837"><ele>519.3333333333334</ele><time>2026-05-02T15:33:05Z</time></trkpt><trkpt lat="45.60004183574082" lon="3.1226678230965415"><ele>519.6666666666667</ele><time>2026-05-02T15:33:06Z</time></trkpt><trkpt lat="45.6001750735201" lon="3.122491629120711"><ele>520.0</ele><time>2026-05-02T15:33:07Z</time></trkpt><trkpt lat="45.60032211170373" lon="3.122311931649503"><ele>520.0</ele><time>2026-05-02T15:33:08Z</time></trkpt><trkpt lat="45.60045987387358" lon="3.122135312081913"><ele>520.0</ele><time>2026-05-02T15:33:09Z</time></trkpt><trkpt lat="45.60059582626062" lon="3.1219797013532395"><ele>520.0</ele><time>2026-05-02T15:33:10Z</time></trkpt><trkpt lat="45.60072885145807" lon="3.1218223089593775"><ele>520.0</ele><time>2026-05-02T15:33:11Z</time></trkpt><trkpt lat="45.6008678593386" lon="3.121659765145933"><ele>520.0</ele><time>2026-05-02T15:33:12Z</time></trkpt><trkpt lat="45.601006188962835" lon="3.1214848523639183"><ele>520.0</ele><time>2026-05-02T15:33:13Z</time></trkpt><trkpt lat="45.60112417251765" lon="3.121277143283278"><ele>521.6666666666667</ele><time>2026-05-02T15:33:14Z</time></trkpt><trkpt lat="45.601206335451586" lon="3.121019669350691"><ele>523.3333333333334</ele><time>2026-05-02T15:33:15Z</time></trkpt><trkpt lat="45.601271715615844" lon="3.120730005771559"><ele>525.0</ele><time>2026-05-02T15:33:16Z</time></trkpt><trkpt lat="45.60133327741942" lon="3.120454704389987"><ele>526.0</ele><time>2026-05-02T15:33:17Z</time></trkpt><trkpt lat="45.60139583248763" lon="3.120209597573406"><ele>527.0</ele><time>2026-05-02T15:33:18Z</time></trkpt><trkpt lat="45.60145141696736" lon="3.119988399515953"><ele>528.0</ele><time>2026-05-02T15:33:19Z</time></trkpt><trkpt lat="45.60151655753052" lon="3.1197779762732574"><ele>529.6666666666666</ele><time>2026-05-02T15:33:20Z</time></trkpt><trkpt lat="45.6016081364039" lon="3.1195884669896676"><ele>531.3333333333333</ele><time>2026-05-02T15:33:21Z</time></trkpt><trkpt lat="45.60174177669787" lon="3.119414272974488"><ele>533.0</ele><time>2026-05-02T15:33:22Z</time></trkpt><trkpt lat="45.60191212317861" lon="3.11927311913452"><ele>532.3333333333333</ele><time>2026-05-02T15:33:23Z</time></trkpt><trkpt lat="45.60209905621165" lon="3.1191609473034942"><ele>531.6666666666666</ele><time>2026-05-02T15:33:24Z</time></trkpt><trkpt lat="45.60229281964917" lon="3.119044209304001"><ele>531.0</ele><time>2026-05-02T15:33:25Z</time></trkpt><trkpt lat="45.60248826319813" lon="3.1189316035274937"><ele>533.0</ele><time>2026-05-02T15:33:26Z</time></trkpt><trkpt lat="45.602679992585514" lon="3.118800537170226"><ele>535.0</ele><time>2026-05-02T15:33:27Z</time></trkpt><trkpt lat="45.60285751511352" lon="3.118685852991683"><ele>537.0</ele><time>2026-05-02T15:33:28Z</time></trkpt><trkpt lat="45.603027467236785" lon="3.118590511764662"><ele>537.3333333333334</ele><time>2026-05-02T15:33:29Z</time></trkpt><trkpt lat="45.60319182716229" lon="3.118486499029195"><ele>537.6666666666667</ele><time>2026-05-02T15:33:30Z</time></trkpt><trkpt lat="45.60336799765829" lon="3.1183674505531696"><ele>538.0</ele><time>2026-05-02T15:33:31Z</time></trkpt><trkpt lat="45.603535714529826" lon="3.11824213603592"><ele>541.0</ele><time>2026-05-02T15:33:32Z</time></trkpt><trkpt lat="45.603712986508164" lon="3.1181037606170716"><ele>544.0</ele><time>2026-05-02T15:33:33Z</time></trkpt><trkpt lat="45.603892781636794" lon="3.117960947491502"><ele>547.0</ele><time>2026-05-02T15:33:34Z</time></trkpt><trkpt lat="45.60406363629882" lon="3.1178139911517593"><ele>547.0</ele><time>2026-05-02T15:33:35Z</time></trkpt><trkpt lat="45.604219995333295" lon="3.117664618012153"><ele>547.0</ele><time>2026-05-02T15:33:36Z</time></trkpt><trkpt lat="45.60436007988512" lon="3.1175207461113987"><ele>547.0</ele><time>2026-05-02T15:33:37Z</time></trkpt><trkpt lat="45.60449471167233" lon="3.1173835241779635"><ele>547.5</ele><time>2026-05-02T15:33:38Z</time></trkpt><trkpt lat="45.604618516297684" lon="3.117258543200614"><ele>548.0</ele><time>2026-05-02T15:33:39Z</time></trkpt><trkpt lat="45.60473422145141" lon="3.1171361262199397"><ele>548.5</ele><time>2026-05-02T15:33:40Z</time></trkpt><trkpt lat="45.60484594305183" lon="3.1170197714548626"><ele>549.0</ele><time>2026-05-02T15:33:41Z</time></trkpt><trkpt lat="45.604953769263815" lon="3.1169130858437395"><ele>549.0</ele><time>2026-05-02T15:33:42Z</time></trkpt><trkpt lat="45.605056533892196" lon="3.116810962025413"><ele>549.0</ele><time>2026-05-02T15:33:43Z</time></trkpt><trkpt lat="45.60515443791142" lon="3.1167141047888838"><ele>549.0</ele><time>2026-05-02T15:33:44Z</time></trkpt><trkpt lat="45.60525474095213" lon="3.116614805063529"><ele>549.0</ele><time>2026-05-02T15:33:45Z</time></trkpt><trkpt lat="45.605359088870784" lon="3.116512665702858"><ele>550.25</ele><time>2026-05-02T15:33:46Z</time></trkpt><trkpt lat="45.60546293782376" lon="3.1164058303426287"><ele>551.5</ele><time>2026-05-02T15:33:47Z</time></trkpt><trkpt lat="45.60556790847018" lon="3.116297243991287"><ele>552.75</ele><time>2026-05-02T15:33:48Z</time></trkpt><trkpt lat="45.60567585863316" lon="3.1161866089054335"><ele>554.0</ele><time>2026-05-02T15:33:49Z</time></trkpt><trkpt lat="45.60577599139714" lon="3.1160843338711093"><ele>554.0</ele><time>2026-05-02T15:33:50Z</time></trkpt><trkpt lat="45.605879751918245" lon="3.1159742840023203"><ele>554.0</ele><time>2026-05-02T15:33:51Z</time></trkpt><trkpt lat="45.60597190043095" lon="3.1158468704941504"><ele>554.0</ele><time>2026-05-02T15:33:52Z</time></trkpt><trkpt lat="45.606058968638855" lon="3.1156963974813703"><ele>554.0</ele><time>2026-05-02T15:33:53Z</time></trkpt><trkpt lat="45.60614034589133" lon="3.1155300045243184"><ele>555.5</ele><time>2026-05-02T15:33:54Z</time></trkpt><trkpt lat="45.60622013954788" lon="3.115358826130681"><ele>557.0</ele><time>2026-05-02T15:33:55Z</time></trkpt><trkpt lat="45.606301568989295" lon="3.1151806856473097"><ele>558.5</ele><time>2026-05-02T15:33:56Z</time></trkpt><trkpt lat="45.60638006541259" lon="3.1150081044278344"><ele>560.0</ele><time>2026-05-02T15:33:57Z</time></trkpt><trkpt lat="45.60646334236797" lon="3.1148310526038725"><ele>560.75</ele><time>2026-05-02T15:33:58Z</time></trkpt><trkpt lat="45.60655067279962" lon="3.1146610817538978"><ele>561.5</ele><time>2026-05-02T15:33:59Z</time></trkpt><trkpt lat="45.60664431948684" lon="3.114502767855841"><ele>562.25</ele><time>2026-05-02T15:34:00Z</time></trkpt><trkpt lat="45.60673358366691" lon="3.1143680250677233"><ele>563.0</ele><time>2026-05-02T15:34:01Z</time></trkpt><trkpt lat="45.60682966703672" lon="3.114219158874735"><ele>564.0</ele><time>2026-05-02T15:34:02Z</time></trkpt><trkpt lat="45.60694125266934" lon="3.114043365875054"><ele>565.0</ele><time>2026-05-02T15:34:03Z</time></trkpt><trkpt lat="45.60705851042561" lon="3.1138555606839966"><ele>566.0</ele><time>2026-05-02T15:34:04Z</time></trkpt><trkpt lat="45.60718988643268" lon="3.1136470425279215"><ele>566.0</ele><time>2026-05-02T15:34:05Z</time></trkpt><trkpt lat="45.60730349724252" lon="3.1134593435325884"><ele>566.0</ele><time>2026-05-02T15:34:06Z</time></trkpt><trkpt lat="45.60741049424983" lon="3.1132923742944967"><ele>566.0</ele><time>2026-05-02T15:34:07Z</time></trkpt><trkpt lat="45.6075023935286" lon="3.1131684659330485"><ele>566.6</ele><time>2026-05-02T15:34:08Z</time></trkpt><trkpt lat="45.60758914920584" lon="3.1130693195539374"><ele>567.2</ele><time>2026-05-02T15:34:09Z</time></trkpt><trkpt lat="45.607673877984666" lon="3.1129936266134286"><ele>567.8</ele><time>2026-05-02T15:34:10Z</time></trkpt><trkpt lat="45.6077526097757" lon="3.1129465942353454"><ele>568.4</ele><time>2026-05-02T15:34:11Z</time></trkpt><trkpt lat="45.60783313058376" lon="3.1129239360099556"><ele>569.0</ele><time>2026-05-02T15:34:12Z</time></trkpt><trkpt lat="45.60791876742992" lon="3.1129035788807977"><ele>569.4</ele><time>2026-05-02T15:34:13Z</time></trkpt><trkpt lat="45.608009798985435" lon="3.1128812272075774"><ele>569.8</ele><time>2026-05-02T15:34:14Z</time></trkpt><trkpt lat="45.60811198929788" lon="3.112865733690839"><ele>570.2</ele><time>2026-05-02T15:34:15Z</time></trkpt><trkpt lat="45.60821327100045" lon="3.1128447344093053"><ele>570.6</ele><time>2026-05-02T15:34:16Z</time></trkpt><trkpt lat="45.608334417198925" lon="3.1128243547621337"><ele>571.0</ele><time>2026-05-02T15:34:17Z</time></trkpt><trkpt lat="45.60844983500191" lon="3.112805250135376"><ele>571.0</ele><time>2026-05-02T15:34:18Z</time></trkpt><trkpt lat="45.60854811282216" lon="3.112791593293656"><ele>571.0</ele><time>2026-05-02T15:34:19Z</time></trkpt><trkpt lat="45.6086318991765" lon="3.1127801074659502"><ele>571.0</ele><time>2026-05-02T15:34:20Z</time></trkpt><trkpt lat="45.60873114896277" lon="3.1127838066369193"><ele>571.0</ele><time>2026-05-02T15:34:22Z</time></trkpt><trkpt lat="45.6088167928288" lon="3.1127670394157083"><ele>571.0</ele><time>2026-05-02T15:34:50Z</time></trkpt><trkpt lat="45.60891418193874" lon="3.11271719812951"><ele>572.3333333333334</ele><time>2026-05-02T15:34:52Z</time></trkpt><trkpt lat="45.60898155783218" lon="3.112728396684766"><ele>573.6666666666667</ele><time>2026-05-02T15:34:53Z</time></trkpt><trkpt lat="45.6090897537699" lon="3.112685420672221"><ele>575.0</ele><time>2026-05-02T15:34:55Z</time></trkpt><trkpt lat="45.609177600536" lon="3.1126770478777885"><ele>576.3333333333334</ele><time>2026-05-02T15:34:57Z</time></trkpt><trkpt lat="45.60926205994183" lon="3.1126820215601345"><ele>577.6666666666666</ele><time>2026-05-02T15:34:59Z</time></trkpt><trkpt lat="45.609358137917425" lon="3.112668941182819"><ele>579.0</ele><time>2026-05-02T15:35:01Z</time></trkpt><trkpt lat="45.609465378580744" lon="3.112652696078335"><ele>580.6</ele><time>2026-05-02T15:35:03Z</time></trkpt><trkpt lat="45.60957278728067" lon="3.1126357257056663"><ele>582.2</ele><time>2026-05-02T15:35:05Z</time></trkpt><trkpt lat="45.60965405003445" lon="3.1126228863475407"><ele>583.8000000000001</ele><time>2026-05-02T15:35:07Z</time></trkpt><trkpt lat="45.60973096022657" lon="3.112610734690933"><ele>585.4</ele><time>2026-05-02T15:35:09Z</time></trkpt><trkpt lat="45.609826507440836" lon="3.1125956384186715"><ele>587.0</ele><time>2026-05-02T15:35:11Z</time></trkpt><trkpt lat="45.609912394969314" lon="3.112582712581477"><ele>587.0</ele><time>2026-05-02T15:35:13Z</time></trkpt><trkpt lat="45.60997964031271" lon="3.11257691473561"><ele>587.0</ele><time>2026-05-02T15:35:15Z</time></trkpt><trkpt lat="45.610070316086585" lon="3.1125782100653763"><ele>587.0</ele><time>2026-05-02T15:35:17Z</time></trkpt><trkpt lat="45.610180492525146" lon="3.112594139977751"><ele>587.0</ele><time>2026-05-02T15:35:19Z</time></trkpt><trkpt lat="45.61026154701193" lon="3.112609839099158"><ele>587.0</ele><time>2026-05-02T15:35:20Z</time></trkpt><trkpt lat="45.61035873296075" lon="3.1126340660380203"><ele>587.0</ele><time>2026-05-02T15:35:21Z</time></trkpt><trkpt lat="45.61047815201451" lon="3.112672587192898"><ele>587.25</ele><time>2026-05-02T15:35:22Z</time></trkpt><trkpt lat="45.61059588378682" lon="3.112703084908037"><ele>587.5</ele><time>2026-05-02T15:35:23Z</time></trkpt><trkpt lat="45.610710747685374" lon="3.1127477890696897"><ele>587.75</ele><time>2026-05-02T15:35:24Z</time></trkpt><trkpt lat="45.61082175196309" lon="3.1127835296182935"><ele>588.0</ele><time>2026-05-02T15:35:25Z</time></trkpt><trkpt lat="45.61093372884715" lon="3.112823830804304"><ele>588.0</ele><time>2026-05-02T15:35:26Z</time></trkpt><trkpt lat="45.61103290784084" lon="3.112857632614108"><ele>588.0</ele><time>2026-05-02T15:35:27Z</time></trkpt><trkpt lat="45.61112795603068" lon="3.1128881646959243"><ele>588.0</ele><time>2026-05-02T15:35:28Z</time></trkpt><trkpt lat="45.61121016792944" lon="3.1129099025336475"><ele>588.0</ele><time>2026-05-02T15:35:29Z</time></trkpt><trkpt lat="45.61129110464111" lon="3.112921351516782"><ele>588.0</ele><time>2026-05-02T15:35:30Z</time></trkpt><trkpt lat="45.61137292031246" lon="3.112932796910876"><ele>588.0</ele><time>2026-05-02T15:35:31Z</time></trkpt><trkpt lat="45.611470784280336" lon="3.1129316772862725"><ele>587.5</ele><time>2026-05-02T15:35:32Z</time></trkpt><trkpt lat="45.61157144420737" lon="3.1129077444355002"><ele>587.0</ele><time>2026-05-02T15:35:33Z</time></trkpt><trkpt lat="45.61168596459982" lon="3.112875005765817"><ele>586.5</ele><time>2026-05-02T15:35:34Z</time></trkpt><trkpt lat="45.61181200522146" lon="3.112824496505655"><ele>586.0</ele><time>2026-05-02T15:35:35Z</time></trkpt><trkpt lat="45.61192924632036" lon="3.112770461657832"><ele>585.8</ele><time>2026-05-02T15:35:36Z</time></trkpt><trkpt lat="45.61203822357201" lon="3.112739433558116"><ele>585.6</ele><time>2026-05-02T15:35:37Z</time></trkpt><trkpt lat="45.612123316479796" lon="3.11264840222893"><ele>585.4</ele><time>2026-05-02T15:35:38Z</time></trkpt><trkpt lat="45.61220359473111" lon="3.112556402040805"><ele>585.2</ele><time>2026-05-02T15:35:39Z</time></trkpt><trkpt lat="45.612277526056026" lon="3.1124489304065994"><ele>585.0</ele><time>2026-05-02T15:35:40Z</time></trkpt><trkpt lat="45.6123502588196" lon="3.1123275246436592"><ele>585.75</ele><time>2026-05-02T15:35:41Z</time></trkpt><trkpt lat="45.612420278035025" lon="3.1121888913077873"><ele>586.5</ele><time>2026-05-02T15:35:42Z</time></trkpt><trkpt lat="45.612499689135376" lon="3.1120569141952257"><ele>587.25</ele><time>2026-05-02T15:35:43Z</time></trkpt><trkpt lat="45.61256319399486" lon="3.111903660502778"><ele>588.0</ele><time>2026-05-02T15:35:44Z</time></trkpt><trkpt lat="45.61257592257477" lon="3.1116996484600348"><ele>587.75</ele><time>2026-05-02T15:35:45Z</time></trkpt><trkpt lat="45.61260910416495" lon="3.111519022445658"><ele>587.5</ele><time>2026-05-02T15:35:46Z</time></trkpt><trkpt lat="45.61263946472211" lon="3.111346591157195"><ele>587.25</ele><time>2026-05-02T15:35:47Z</time></trkpt><trkpt lat="45.612680936031175" lon="3.111184873942473"><ele>587.0</ele><time>2026-05-02T15:35:48Z</time></trkpt><trkpt lat="45.61268992017314" lon="3.111014861388792"><ele>587.0</ele><time>2026-05-02T15:35:49Z</time></trkpt><trkpt lat="45.61273623546559" lon="3.11085143846344"><ele>587.0</ele><time>2026-05-02T15:35:50Z</time></trkpt><trkpt lat="45.61277633985221" lon="3.1106780186335796"><ele>587.0</ele><time>2026-05-02T15:35:51Z</time></trkpt><trkpt lat="45.61282116975778" lon="3.1104967624983515"><ele>587.0</ele><time>2026-05-02T15:35:52Z</time></trkpt><trkpt lat="45.61286736856173" lon="3.1103099719837743"><ele>590.5</ele><time>2026-05-02T15:35:53Z</time></trkpt><trkpt lat="45.612897666802965" lon="3.1101173203592065"><ele>594.0</ele><time>2026-05-02T15:35:54Z</time></trkpt><trkpt lat="45.61294272697623" lon="3.1099432159486122"><ele>597.5</ele><time>2026-05-02T15:35:55Z</time></trkpt><trkpt lat="45.6129784222627" lon="3.1097626818734456"><ele>601.0</ele><time>2026-05-02T15:35:56Z</time></trkpt><trkpt lat="45.61301545118473" lon="3.1095623822616005"><ele>601.0</ele><time>2026-05-02T15:35:57Z</time></trkpt><trkpt lat="45.613050203514995" lon="3.1093677969394857"><ele>601.0</ele><time>2026-05-02T15:35:58Z</time></trkpt><trkpt lat="45.613084933330065" lon="3.109178158238993"><ele>601.0</ele><time>2026-05-02T15:35:59Z</time></trkpt><trkpt lat="45.61313377223406" lon="3.1090206749570855"><ele>601.0</ele><time>2026-05-02T15:36:00Z</time></trkpt><trkpt lat="45.61316431200174" lon="3.108873159384831"><ele>601.0</ele><time>2026-05-02T15:36:01Z</time></trkpt><trkpt lat="45.613193020673926" lon="3.1087344886818444"><ele>601.0</ele><time>2026-05-02T15:36:02Z</time></trkpt><trkpt lat="45.61322744066945" lon="3.1085664782242484"><ele>601.0</ele><time>2026-05-02T15:36:03Z</time></trkpt><trkpt lat="45.61325269860153" lon="3.108376155714277"><ele>601.0</ele><time>2026-05-02T15:36:04Z</time></trkpt><trkpt lat="45.61329202343531" lon="3.108178958012437"><ele>601.0</ele><time>2026-05-02T15:36:05Z</time></trkpt><trkpt lat="45.61333238191182" lon="3.10798169799549"><ele>601.0</ele><time>2026-05-02T15:36:06Z</time></trkpt><trkpt lat="45.61337241352303" lon="3.1077756522306874"><ele>601.0</ele><time>2026-05-02T15:36:07Z</time></trkpt><trkpt lat="45.61342914807303" lon="3.1075783045038303"><ele>601.0</ele><time>2026-05-02T15:36:08Z</time></trkpt><trkpt lat="45.613477462886934" lon="3.1073714254547817"><ele>600.0</ele><time>2026-05-02T15:36:09Z</time></trkpt><trkpt lat="45.61353061410823" lon="3.1071425107155086"><ele>599.0</ele><time>2026-05-02T15:36:10Z</time></trkpt><trkpt lat="45.61360689201826" lon="3.106920665722952"><ele>598.0</ele><time>2026-05-02T15:36:11Z</time></trkpt><trkpt lat="45.613702413268676" lon="3.1067106902120876"><ele>601.6666666666667</ele><time>2026-05-02T15:36:12Z</time></trkpt><trkpt lat="45.61377147060226" lon="3.106484528924694"><ele>605.3333333333334</ele><time>2026-05-02T15:36:13Z</time></trkpt><trkpt lat="45.61385430688137" lon="3.106279279341759"><ele>609.0</ele><time>2026-05-02T15:36:14Z</time></trkpt><trkpt lat="45.613935512926396" lon="3.106064343486714"><ele>609.0</ele><time>2026-05-02T15:36:15Z</time></trkpt><trkpt lat="45.61402974374071" lon="3.105831972349975"><ele>609.0</ele><time>2026-05-02T15:36:16Z</time></trkpt><trkpt lat="45.614128885347085" lon="3.10559495181016"><ele>609.0</ele><time>2026-05-02T15:36:17Z</time></trkpt><trkpt lat="45.614234313117954" lon="3.1053479756516844"><ele>608.6666666666666</ele><time>2026-05-02T15:36:18Z</time></trkpt><trkpt lat="45.61434341137588" lon="3.1050904705155915"><ele>608.3333333333333</ele><time>2026-05-02T15:36:19Z</time></trkpt><trkpt lat="45.61445805290181" lon="3.1048189191945834"><ele>608.0</ele><time>2026-05-02T15:36:20Z</time></trkpt><trkpt lat="45.6145761241522" lon="3.1045396085741683"><ele>609.6666666666666</ele><time>2026-05-02T15:36:21Z</time></trkpt><trkpt lat="45.61470136693997" lon="3.10426180485841"><ele>611.3333333333334</ele><time>2026-05-02T15:36:22Z</time></trkpt><trkpt lat="45.61481679613875" lon="3.1040154102573285"><ele>613.0</ele><time>2026-05-02T15:36:23Z</time></trkpt><trkpt lat="45.61492653587793" lon="3.103790872600735"><ele>613.3333333333334</ele><time>2026-05-02T15:36:24Z</time></trkpt><trkpt lat="45.61504424806895" lon="3.103573107392306"><ele>613.6666666666666</ele><time>2026-05-02T15:36:25Z</time></trkpt><trkpt lat="45.61516488279923" lon="3.103370916168956"><ele>614.0</ele><time>2026-05-02T15:36:26Z</time></trkpt><trkpt lat="45.61529174935823" lon="3.10315983859586"><ele>616.0</ele><time>2026-05-02T15:36:27Z</time></trkpt><trkpt lat="45.61541424270164" lon="3.1029490346330078"><ele>618.0</ele><time>2026-05-02T15:36:28Z</time></trkpt><trkpt lat="45.61553871731408" lon="3.1027275817302082"><ele>620.0</ele><time>2026-05-02T15:36:29Z</time></trkpt><trkpt lat="45.61567859130213" lon="3.1025206097969003"><ele>619.6666666666666</ele><time>2026-05-02T15:36:30Z</time></trkpt><trkpt lat="45.61579081432641" lon="3.1022925410717863"><ele>619.3333333333334</ele><time>2026-05-02T15:36:31Z</time></trkpt><trkpt lat="45.61591804946155" lon="3.102080235859223"><ele>619.0</ele><time>2026-05-02T15:36:32Z</time></trkpt><trkpt lat="45.616025838244845" lon="3.1018594278125313"><ele>619.0</ele><time>2026-05-02T15:36:33Z</time></trkpt><trkpt lat="45.6161078867526" lon="3.1016171516915905"><ele>619.0</ele><time>2026-05-02T15:36:34Z</time></trkpt><trkpt lat="45.61617744543914" lon="3.1013564855260967"><ele>619.0</ele><time>2026-05-02T15:36:35Z</time></trkpt><trkpt lat="45.616242898283545" lon="3.1010767203879595"><ele>622.6666666666667</ele><time>2026-05-02T15:36:36Z</time></trkpt><trkpt lat="45.61631153787387" lon="3.1007946994121163"><ele>626.3333333333334</ele><time>2026-05-02T15:36:37Z</time></trkpt><trkpt lat="45.616381705600766" lon="3.1005097316244004"><ele>630.0</ele><time>2026-05-02T15:36:38Z</time></trkpt><trkpt lat="45.616469265448735" lon="3.1002246546495256"><ele>630.0</ele><time>2026-05-02T15:36:39Z</time></trkpt><trkpt lat="45.61652523690163" lon="3.0999383542232084"><ele>630.0</ele><time>2026-05-02T15:36:40Z</time></trkpt><trkpt lat="45.616588842216125" lon="3.099697440435244"><ele>630.0</ele><time>2026-05-02T15:36:41Z</time></trkpt><trkpt lat="45.616627624699255" lon="3.099465475024243"><ele>630.0</ele><time>2026-05-02T15:36:42Z</time></trkpt><trkpt lat="45.61663605349785" lon="3.099223186848199"><ele>630.0</ele><time>2026-05-02T15:36:43Z</time></trkpt><trkpt lat="45.61664733918396" lon="3.0989595243310535"><ele>630.0</ele><time>2026-05-02T15:36:44Z</time></trkpt><trkpt lat="45.616703553033744" lon="3.098697977983774"><ele>631.0</ele><time>2026-05-02T15:36:45Z</time></trkpt><trkpt lat="45.61683850135077" lon="3.09847400304411"><ele>632.0</ele><time>2026-05-02T15:36:46Z</time></trkpt><trkpt lat="45.616980483812895" lon="3.098238854699236"><ele>633.0</ele><time>2026-05-02T15:36:47Z</time></trkpt><trkpt lat="45.617117231970255" lon="3.0980117726626757"><ele>634.6666666666666</ele><time>2026-05-02T15:36:48Z</time></trkpt><trkpt lat="45.61726551385448" lon="3.0978301025973156"><ele>636.3333333333333</ele><time>2026-05-02T15:36:49Z</time></trkpt><trkpt lat="45.61744643274993" lon="3.097703601048611"><ele>638.0</ele><time>2026-05-02T15:36:50Z</time></trkpt><trkpt lat="45.61761545022973" lon="3.097535681113587"><ele>638.3333333333333</ele><time>2026-05-02T15:36:51Z</time></trkpt><trkpt lat="45.61775401379891" lon="3.0973648194484387"><ele>638.6666666666666</ele><time>2026-05-02T15:36:52Z</time></trkpt><trkpt lat="45.617868050404866" lon="3.0971772826735866"><ele>639.0</ele><time>2026-05-02T15:36:53Z</time></trkpt><trkpt lat="45.61796324619937" lon="3.096974456238771"><ele>639.6666666666666</ele><time>2026-05-02T15:36:54Z</time></trkpt><trkpt lat="45.61806159750536" lon="3.0967550969859508"><ele>640.3333333333333</ele><time>2026-05-02T15:36:55Z</time></trkpt><trkpt lat="45.61815468344544" lon="3.0965386797531913"><ele>641.0</ele><time>2026-05-02T15:36:56Z</time></trkpt><trkpt lat="45.618251164897174" lon="3.0963140310846913"><ele>641.0</ele><time>2026-05-02T15:36:57Z</time></trkpt><trkpt lat="45.61835085471114" lon="3.096090383155038"><ele>641.0</ele><time>2026-05-02T15:36:58Z</time></trkpt><trkpt lat="45.61843171354896" lon="3.0958754918651823"><ele>641.0</ele><time>2026-05-02T15:36:59Z</time></trkpt><trkpt lat="45.618489796979844" lon="3.0956670838792544"><ele>642.0</ele><time>2026-05-02T15:37:00Z</time></trkpt><trkpt lat="45.61854351875271" lon="3.095468493438747"><ele>643.0</ele><time>2026-05-02T15:37:01Z</time></trkpt><trkpt lat="45.61860364554514" lon="3.0952595197701767"><ele>644.0</ele><time>2026-05-02T15:37:02Z</time></trkpt><trkpt lat="45.618667159058425" lon="3.0950490846176284"><ele>643.25</ele><time>2026-05-02T15:37:03Z</time></trkpt><trkpt lat="45.618734464871075" lon="3.09484482440375"><ele>642.5</ele><time>2026-05-02T15:37:04Z</time></trkpt><trkpt lat="45.61878863635519" lon="3.094652963160578"><ele>641.75</ele><time>2026-05-02T15:37:05Z</time></trkpt><trkpt lat="45.61884094591095" lon="3.0944651412605952"><ele>641.0</ele><time>2026-05-02T15:37:06Z</time></trkpt><trkpt lat="45.61892217058672" lon="3.0943064018501034"><ele>641.0</ele><time>2026-05-02T15:37:07Z</time></trkpt><trkpt lat="45.6190095769773" lon="3.094163750433022"><ele>641.0</ele><time>2026-05-02T15:37:08Z</time></trkpt><trkpt lat="45.61911702227523" lon="3.09405413357351"><ele>641.0</ele><time>2026-05-02T15:37:09Z</time></trkpt><trkpt lat="45.61923610096298" lon="3.093973501778867"><ele>641.0</ele><time>2026-05-02T15:37:10Z</time></trkpt><trkpt lat="45.61935216282342" lon="3.093886379916093"><ele>640.25</ele><time>2026-05-02T15:37:11Z</time></trkpt><trkpt lat="45.61948179000963" lon="3.093824489682849"><ele>639.5</ele><time>2026-05-02T15:37:12Z</time></trkpt><trkpt lat="45.619612478774506" lon="3.0937545665972723"><ele>638.75</ele><time>2026-05-02T15:37:13Z</time></trkpt><trkpt lat="45.61975652591793" lon="3.093669501894402"><ele>638.0</ele><time>2026-05-02T15:37:14Z</time></trkpt><trkpt lat="45.61990334088732" lon="3.0935772297526953"><ele>637.3333333333333</ele><time>2026-05-02T15:37:15Z</time></trkpt><trkpt lat="45.62005627292344" lon="3.093485495877373"><ele>636.6666666666666</ele><time>2026-05-02T15:37:16Z</time></trkpt><trkpt lat="45.62021495721011" lon="3.0933917963180284"><ele>636.0</ele><time>2026-05-02T15:37:17Z</time></trkpt><trkpt lat="45.620376473822745" lon="3.093297172157439"><ele>634.0</ele><time>2026-05-02T15:37:18Z</time></trkpt><trkpt lat="45.62054151645171" lon="3.0932034024067736"><ele>632.0</ele><time>2026-05-02T15:37:19Z</time></trkpt><trkpt lat="45.62069898998153" lon="3.0931103550194194"><ele>630.0</ele><time>2026-05-02T15:37:20Z</time></trkpt><trkpt lat="45.620853163697966" lon="3.0930255386946106"><ele>630.0</ele><time>2026-05-02T15:37:21Z</time></trkpt><trkpt lat="45.621008800826345" lon="3.0929385261949807"><ele>630.0</ele><time>2026-05-02T15:37:22Z</time></trkpt><trkpt lat="45.62115131469284" lon="3.092855230509085"><ele>630.0</ele><time>2026-05-02T15:37:23Z</time></trkpt><trkpt lat="45.62129564325244" lon="3.09277103569051"><ele>630.5</ele><time>2026-05-02T15:37:24Z</time></trkpt><trkpt lat="45.62143578577665" lon="3.0926935973061256"><ele>631.0</ele><time>2026-05-02T15:37:25Z</time></trkpt><trkpt lat="45.621564718447075" lon="3.0925945887548068"><ele>631.5</ele><time>2026-05-02T15:37:26Z</time></trkpt><trkpt lat="45.62167967817861" lon="3.0924717638111003"><ele>632.0</ele><time>2026-05-02T15:37:27Z</time></trkpt><trkpt lat="45.62177863586347" lon="3.0923273552995107"><ele>632.0</ele><time>2026-05-02T15:37:28Z</time></trkpt><trkpt lat="45.62186724751336" lon="3.092172773936655"><ele>632.0</ele><time>2026-05-02T15:37:29Z</time></trkpt><trkpt lat="45.621948211007165" lon="3.092004443999149"><ele>632.0</ele><time>2026-05-02T15:37:30Z</time></trkpt><trkpt lat="45.6220250876859" lon="3.091839376090811"><ele>632.0</ele><time>2026-05-02T15:37:31Z</time></trkpt><trkpt lat="45.62210389205394" lon="3.091682320446722"><ele>630.0</ele><time>2026-05-02T15:37:32Z</time></trkpt><trkpt lat="45.622184740830434" lon="3.0915369463878846"><ele>628.0</ele><time>2026-05-02T15:37:33Z</time></trkpt><trkpt lat="45.62226317801883" lon="3.0913895952071253"><ele>626.0</ele><time>2026-05-02T15:37:34Z</time></trkpt><trkpt lat="45.62233944215161" lon="3.091253147291449"><ele>624.0</ele><time>2026-05-02T15:37:35Z</time></trkpt><trkpt lat="45.62241574109264" lon="3.0911308486593656"><ele>624.0</ele><time>2026-05-02T15:37:36Z</time></trkpt><trkpt lat="45.6224858957893" lon="3.091025178658898"><ele>624.0</ele><time>2026-05-02T15:37:37Z</time></trkpt><trkpt lat="45.62255464784666" lon="3.0909303551534335"><ele>624.0</ele><time>2026-05-02T15:37:38Z</time></trkpt><trkpt lat="45.62262144657409" lon="3.090833865916078"><ele>624.0</ele><time>2026-05-02T15:37:39Z</time></trkpt><trkpt lat="45.62268595951237" lon="3.0907395723201505"><ele>624.0</ele><time>2026-05-02T15:37:40Z</time></trkpt><trkpt lat="45.62274692972508" lon="3.0906520708368177"><ele>623.5</ele><time>2026-05-02T15:37:41Z</time></trkpt><trkpt lat="45.622808889692266" lon="3.0905701661882308"><ele>623.0</ele><time>2026-05-02T15:37:42Z</time></trkpt><trkpt lat="45.62287163408645" lon="3.090488440496348"><ele>622.5</ele><time>2026-05-02T15:37:43Z</time></trkpt><trkpt lat="45.62293020390238" lon="3.0904087099499176"><ele>622.0</ele><time>2026-05-02T15:37:44Z</time></trkpt><trkpt lat="45.62299133736596" lon="3.0903256193344495"><ele>621.5</ele><time>2026-05-02T15:37:45Z</time></trkpt><trkpt lat="45.62305691749287" lon="3.0902492525331438"><ele>621.0</ele><time>2026-05-02T15:37:46Z</time></trkpt><trkpt lat="45.62313651168035" lon="3.0901703418247335"><ele>621.0</ele><time>2026-05-02T15:37:47Z</time></trkpt><trkpt lat="45.62323230420234" lon="3.0900894570725987"><ele>621.0</ele><time>2026-05-02T15:37:48Z</time></trkpt><trkpt lat="45.62334337316639" lon="3.090002464304309"><ele>621.0</ele><time>2026-05-02T15:37:49Z</time></trkpt><trkpt lat="45.623471792565404" lon="3.0899264124784067"><ele>621.0</ele><time>2026-05-02T15:37:50Z</time></trkpt><trkpt lat="45.62361263945804" lon="3.0898835969204925"><ele>619.6666666666666</ele><time>2026-05-02T15:37:51Z</time></trkpt><trkpt lat="45.62377229387647" lon="3.089803819803726"><ele>618.3333333333333</ele><time>2026-05-02T15:37:52Z</time></trkpt><trkpt lat="45.62395917395501" lon="3.0897790931904647"><ele>617.0</ele><time>2026-05-02T15:37:53Z</time></trkpt><trkpt lat="45.62413530893983" lon="3.089743286853411"><ele>617.0</ele><time>2026-05-02T15:37:54Z</time></trkpt><trkpt lat="45.624300176510566" lon="3.0897025237508924"><ele>617.0</ele><time>2026-05-02T15:37:55Z</time></trkpt><trkpt lat="45.62446750710845" lon="3.0896819734780165"><ele>617.0</ele><time>2026-05-02T15:37:56Z</time></trkpt><trkpt lat="45.62462692922966" lon="3.089656769372044"><ele>617.6666666666666</ele><time>2026-05-02T15:37:57Z</time></trkpt><trkpt lat="45.62479566176676" lon="3.0896309601772494"><ele>618.3333333333334</ele><time>2026-05-02T15:37:58Z</time></trkpt><trkpt lat="45.624942345842825" lon="3.0896035646704303"><ele>619.0</ele><time>2026-05-02T15:37:59Z</time></trkpt><trkpt lat="45.625083596338854" lon="3.0895836064273183"><ele>619.0</ele><time>2026-05-02T15:38:00Z</time></trkpt><trkpt lat="45.62521777620573" lon="3.0895583274323437"><ele>619.0</ele><time>2026-05-02T15:38:01Z</time></trkpt><trkpt lat="45.625358140212526" lon="3.089522091091154"><ele>619.0</ele><time>2026-05-02T15:38:02Z</time></trkpt><trkpt lat="45.62549351543335" lon="3.08946616980203"><ele>619.0</ele><time>2026-05-02T15:38:03Z</time></trkpt><trkpt lat="45.625615031954595" lon="3.089381708812527"><ele>620.25</ele><time>2026-05-02T15:38:04Z</time></trkpt><trkpt lat="45.625720278014384" lon="3.0892645275746156"><ele>621.5</ele><time>2026-05-02T15:38:05Z</time></trkpt><trkpt lat="45.62580355325443" lon="3.0891320190270357"><ele>622.75</ele><time>2026-05-02T15:38:06Z</time></trkpt><trkpt lat="45.625861473410204" lon="3.0889778597740998"><ele>624.0</ele><time>2026-05-02T15:38:07Z</time></trkpt><trkpt lat="45.6259141197187" lon="3.088813943057893"><ele>624.0</ele><time>2026-05-02T15:38:08Z</time></trkpt><trkpt lat="45.62598541060734" lon="3.088665089142455"><ele>624.0</ele><time>2026-05-02T15:38:09Z</time></trkpt><trkpt lat="45.626083386436754" lon="3.0885325859304436"><ele>624.0</ele><time>2026-05-02T15:38:10Z</time></trkpt><trkpt lat="45.62620144355702" lon="3.0884145452423386"><ele>624.0</ele><time>2026-05-02T15:38:11Z</time></trkpt><trkpt lat="45.62632420164285" lon="3.0883441527769184"><ele>624.25</ele><time>2026-05-02T15:38:12Z</time></trkpt><trkpt lat="45.626439637269094" lon="3.0882972424671014"><ele>624.5</ele><time>2026-05-02T15:38:13Z</time></trkpt><trkpt lat="45.62655962676322" lon="3.088265024562458"><ele>624.75</ele><time>2026-05-02T15:38:14Z</time></trkpt><trkpt lat="45.62669556785087" lon="3.088252879250981"><ele>625.0</ele><time>2026-05-02T15:38:15Z</time></trkpt><trkpt lat="45.62684738037869" lon="3.0882608698103162"><ele>624.3333333333334</ele><time>2026-05-02T15:38:16Z</time></trkpt><trkpt lat="45.62701739163597" lon="3.0882782121394"><ele>623.6666666666666</ele><time>2026-05-02T15:38:17Z</time></trkpt><trkpt lat="45.62720701221712" lon="3.088298695819586"><ele>623.0</ele><time>2026-05-02T15:38:18Z</time></trkpt><trkpt lat="45.6274039678149" lon="3.088310327408315"><ele>623.0</ele><time>2026-05-02T15:38:19Z</time></trkpt><trkpt lat="45.6275777549499" lon="3.0883134704637953"><ele>623.0</ele><time>2026-05-02T15:38:20Z</time></trkpt><trkpt lat="45.627743645763225" lon="3.0883071073388284"><ele>623.0</ele><time>2026-05-02T15:38:21Z</time></trkpt><trkpt lat="45.627902796093885" lon="3.08830054958298"><ele>622.0</ele><time>2026-05-02T15:38:22Z</time></trkpt><trkpt lat="45.62805464964859" lon="3.0882746533148926"><ele>621.0</ele><time>2026-05-02T15:38:23Z</time></trkpt><trkpt lat="45.62820200208416" lon="3.0882127907084027"><ele>620.0</ele><time>2026-05-02T15:38:24Z</time></trkpt><trkpt lat="45.62834571718251" lon="3.0881155028890013"><ele>617.6666666666666</ele><time>2026-05-02T15:38:25Z</time></trkpt><trkpt lat="45.62849142734627" lon="3.0879916705576447"><ele>615.3333333333334</ele><time>2026-05-02T15:38:26Z</time></trkpt><trkpt lat="45.628645136165254" lon="3.087867213361973"><ele>613.0</ele><time>2026-05-02T15:38:27Z</time></trkpt><trkpt lat="45.628783596583844" lon="3.087745971830069"><ele>613.0</ele><time>2026-05-02T15:38:28Z</time></trkpt><trkpt lat="45.62889904497573" lon="3.0876160340365355"><ele>613.0</ele><time>2026-05-02T15:38:29Z</time></trkpt><trkpt lat="45.62899816760837" lon="3.087460563244375"><ele>613.0</ele><time>2026-05-02T15:38:30Z</time></trkpt><trkpt lat="45.629106546991665" lon="3.0873222912490315"><ele>613.0</ele><time>2026-05-02T15:38:31Z</time></trkpt><trkpt lat="45.62922614250844" lon="3.08722799224579"><ele>610.75</ele><time>2026-05-02T15:38:32Z</time></trkpt><trkpt lat="45.62935920347386" lon="3.0871995303583315"><ele>608.5</ele><time>2026-05-02T15:38:33Z</time></trkpt><trkpt lat="45.629497794864" lon="3.087198021278421"><ele>606.25</ele><time>2026-05-02T15:38:34Z</time></trkpt><trkpt lat="45.629637043037" lon="3.087210348267193"><ele>604.0</ele><time>2026-05-02T15:38:35Z</time></trkpt><trkpt lat="45.629778622607404" lon="3.087305915082952"><ele>604.0</ele><time>2026-05-02T15:38:36Z</time></trkpt><trkpt lat="45.62991076430917" lon="3.08742232388364"><ele>604.0</ele><time>2026-05-02T15:38:37Z</time></trkpt><trkpt lat="45.630007786684054" lon="3.08758094163138"><ele>604.0</ele><time>2026-05-02T15:38:38Z</time></trkpt><trkpt lat="45.630083212003825" lon="3.0877507608040915"><ele>604.0</ele><time>2026-05-02T15:38:39Z</time></trkpt><trkpt lat="45.6301354697907" lon="3.0879307917772936"><ele>605.0</ele><time>2026-05-02T15:38:40Z</time></trkpt><trkpt lat="45.630164958821766" lon="3.088117602218184"><ele>606.0</ele><time>2026-05-02T15:38:41Z</time></trkpt><trkpt lat="45.630158189877626" lon="3.088325680357272"><ele>607.0</ele><time>2026-05-02T15:38:42Z</time></trkpt><trkpt lat="45.63011296361971" lon="3.088561240536952"><ele>607.0</ele><time>2026-05-02T15:38:43Z</time></trkpt><trkpt lat="45.63006657988644" lon="3.0888353987527606"><ele>607.0</ele><time>2026-05-02T15:38:44Z</time></trkpt><trkpt lat="45.629999897918054" lon="3.0891312423391977"><ele>607.0</ele><time>2026-05-02T15:38:45Z</time></trkpt><trkpt lat="45.62996062444734" lon="3.089461894915677"><ele>604.5</ele><time>2026-05-02T15:38:46Z</time></trkpt><trkpt lat="45.62996581564676" lon="3.0898284475046323"><ele>602.0</ele><time>2026-05-02T15:38:47Z</time></trkpt><trkpt lat="45.630006129383865" lon="3.090183827038339"><ele>601.0</ele><time>2026-05-02T15:38:48Z</time></trkpt><trkpt lat="45.63005460718134" lon="3.090465407525395"><ele>600.0</ele><time>2026-05-02T15:38:49Z</time></trkpt><trkpt lat="45.630123291606175" lon="3.0906898494833897"><ele>599.0</ele><time>2026-05-02T15:38:50Z</time></trkpt><trkpt lat="45.63022648087307" lon="3.090902844814512"><ele>596.3333333333333</ele><time>2026-05-02T15:38:51Z</time></trkpt><trkpt lat="45.63038261494875" lon="3.0911015582811894"><ele>593.6666666666666</ele><time>2026-05-02T15:38:52Z</time></trkpt><trkpt lat="45.630565042587634" lon="3.091272610726134"><ele>591.0</ele><time>2026-05-02T15:38:53Z</time></trkpt><trkpt lat="45.63078272996508" lon="3.0914136443898648"><ele>591.0</ele><time>2026-05-02T15:38:54Z</time></trkpt><trkpt lat="45.63099363590665" lon="3.091564664782837"><ele>591.0</ele><time>2026-05-02T15:38:55Z</time></trkpt><trkpt lat="45.63118402824113" lon="3.0916832946551462"><ele>591.0</ele><time>2026-05-02T15:38:56Z</time></trkpt><trkpt lat="45.63137320266485" lon="3.091739438735293"><ele>591.0</ele><time>2026-05-02T15:38:57Z</time></trkpt><trkpt lat="45.63155731227234" lon="3.091720743822414"><ele>591.0</ele><time>2026-05-02T15:38:58Z</time></trkpt><trkpt lat="45.63176302044224" lon="3.0916504987850932"><ele>591.0</ele><time>2026-05-02T15:38:59Z</time></trkpt><trkpt lat="45.631943774568946" lon="3.0915427649416314"><ele>587.6666666666666</ele><time>2026-05-02T15:39:00Z</time></trkpt><trkpt lat="45.632105575025186" lon="3.091436607489443"><ele>584.3333333333333</ele><time>2026-05-02T15:39:01Z</time></trkpt><trkpt lat="45.63227186727378" lon="3.0913379399113383"><ele>581.0</ele><time>2026-05-02T15:39:02Z</time></trkpt><trkpt lat="45.63242860071121" lon="3.0912560271664904"><ele>581.0</ele><time>2026-05-02T15:39:03Z</time></trkpt><trkpt lat="45.632587026516454" lon="3.091225213076881"><ele>581.0</ele><time>2026-05-02T15:39:04Z</time></trkpt><trkpt lat="45.63273660141242" lon="3.091226121856371"><ele>581.0</ele><time>2026-05-02T15:39:05Z</time></trkpt><trkpt lat="45.63289136121689" lon="3.091240947713942"><ele>581.25</ele><time>2026-05-02T15:39:06Z</time></trkpt><trkpt lat="45.633020251388324" lon="3.091344384093675"><ele>581.5</ele><time>2026-05-02T15:39:07Z</time></trkpt><trkpt lat="45.633145462185716" lon="3.091460942495223"><ele>581.75</ele><time>2026-05-02T15:39:08Z</time></trkpt><trkpt lat="45.63323624584587" lon="3.091613748418046"><ele>582.0</ele><time>2026-05-02T15:39:09Z</time></trkpt><trkpt lat="45.633311825734324" lon="3.0917866285711373"><ele>582.0</ele><time>2026-05-02T15:39:10Z</time></trkpt><trkpt lat="45.633351756894925" lon="3.091975460300653"><ele>582.0</ele><time>2026-05-02T15:39:11Z</time></trkpt><trkpt lat="45.63336348992286" lon="3.0921651671997235"><ele>582.0</ele><time>2026-05-02T15:39:12Z</time></trkpt><trkpt lat="45.6334007084485" lon="3.092349186782835"><ele>582.0</ele><time>2026-05-02T15:39:13Z</time></trkpt><trkpt lat="45.63342630689935" lon="3.092530559387218"><ele>582.0</ele><time>2026-05-02T15:39:14Z</time></trkpt><trkpt lat="45.633479734785254" lon="3.092695434249652"><ele>582.0</ele><time>2026-05-02T15:39:15Z</time></trkpt><trkpt lat="45.633555190115324" lon="3.092848161723144"><ele>582.0</ele><time>2026-05-02T15:39:16Z</time></trkpt><trkpt lat="45.63364897452094" lon="3.092977962628113"><ele>582.0</ele><time>2026-05-02T15:39:17Z</time></trkpt><trkpt lat="45.63375890286363" lon="3.0930771255796636"><ele>579.25</ele><time>2026-05-02T15:39:18Z</time></trkpt><trkpt lat="45.633874576875016" lon="3.0931548746794038"><ele>576.5</ele><time>2026-05-02T15:39:19Z</time></trkpt><trkpt lat="45.63399188807717" lon="3.0931981674663684"><ele>573.75</ele><time>2026-05-02T15:39:20Z</time></trkpt><trkpt lat="45.63410941200319" lon="3.093219765261609"><ele>571.0</ele><time>2026-05-02T15:39:21Z</time></trkpt><trkpt lat="45.63421919701024" lon="3.093249204999476"><ele>571.8</ele><time>2026-05-02T15:39:22Z</time></trkpt><trkpt lat="45.63432460127978" lon="3.093296092355387"><ele>572.6</ele><time>2026-05-02T15:39:23Z</time></trkpt><trkpt lat="45.63442265427665" lon="3.093355718569448"><ele>573.4</ele><time>2026-05-02T15:39:24Z</time></trkpt><trkpt lat="45.63451711155803" lon="3.0934362471243344"><ele>574.2</ele><time>2026-05-02T15:39:25Z</time></trkpt><trkpt lat="45.63460642795141" lon="3.093524429970549"><ele>575.0</ele><time>2026-05-02T15:39:26Z</time></trkpt><trkpt lat="45.634695904317816" lon="3.093616839606742"><ele>572.6</ele><time>2026-05-02T15:39:27Z</time></trkpt><trkpt lat="45.63478529958967" lon="3.0937087157801892"><ele>570.2</ele><time>2026-05-02T15:39:28Z</time></trkpt><trkpt lat="45.634874239078904" lon="3.0938000022542824"><ele>567.8</ele><time>2026-05-02T15:39:29Z</time></trkpt><trkpt lat="45.634964278027354" lon="3.0938846615213524"><ele>565.4</ele><time>2026-05-02T15:39:30Z</time></trkpt><trkpt lat="45.63505688615116" lon="3.0939702172413504"><ele>563.0</ele><time>2026-05-02T15:39:31Z</time></trkpt><trkpt lat="45.635149587102326" lon="3.094049280573581"><ele>563.4</ele><time>2026-05-02T15:39:32Z</time></trkpt><trkpt lat="45.63524587568771" lon="3.0941227099390503"><ele>563.8</ele><time>2026-05-02T15:39:33Z</time></trkpt><trkpt lat="45.63534731536585" lon="3.0941818503449876"><ele>564.2</ele><time>2026-05-02T15:39:34Z</time></trkpt><trkpt lat="45.63545072693312" lon="3.094229810826605"><ele>564.6</ele><time>2026-05-02T15:39:35Z</time></trkpt><trkpt lat="45.63555634420177" lon="3.0942688529949676"><ele>565.0</ele><time>2026-05-02T15:39:36Z</time></trkpt><trkpt lat="45.635663815393755" lon="3.0942984533692632"><ele>565.0</ele><time>2026-05-02T15:39:37Z</time></trkpt><trkpt lat="45.63576695717788" lon="3.0943252957513674"><ele>565.0</ele><time>2026-05-02T15:39:38Z</time></trkpt><trkpt lat="45.6358687658008" lon="3.094359117137558"><ele>565.0</ele><time>2026-05-02T15:39:39Z</time></trkpt><trkpt lat="45.63596550397708" lon="3.0943932417341684"><ele>565.0</ele><time>2026-05-02T15:39:40Z</time></trkpt><trkpt lat="45.63606396473055" lon="3.0944290322599293"><ele>565.0</ele><time>2026-05-02T15:39:41Z</time></trkpt><trkpt lat="45.63616118779299" lon="3.0944614844634826"><ele>564.3333333333334</ele><time>2026-05-02T15:39:42Z</time></trkpt><trkpt lat="45.63625966844673" lon="3.094491358771461"><ele>563.6666666666667</ele><time>2026-05-02T15:39:43Z</time></trkpt><trkpt lat="45.636354292538" lon="3.094514225445211"><ele>563.0</ele><time>2026-05-02T15:39:44Z</time></trkpt><trkpt lat="45.636437007470604" lon="3.094539832982615"><ele>562.3333333333334</ele><time>2026-05-02T15:39:45Z</time></trkpt><trkpt lat="45.63650184363681" lon="3.094550933935428"><ele>561.6666666666666</ele><time>2026-05-02T15:39:46Z</time></trkpt><trkpt lat="45.636589042528755" lon="3.094537954638407"><ele>561.0</ele><time>2026-05-02T15:39:48Z</time></trkpt><trkpt lat="45.63665233063768" lon="3.0945242684511998"><ele>561.0</ele><time>2026-05-02T15:39:50Z</time></trkpt><trkpt lat="45.636737900814445" lon="3.0944272329421785"><ele>561.0</ele><time>2026-05-02T15:40:06Z</time></trkpt><trkpt lat="45.63679330685812" lon="3.0943785086471567"><ele>561.0</ele><time>2026-05-02T15:40:07Z</time></trkpt><trkpt lat="45.63688469785617" lon="3.0943095206929194"><ele>561.0</ele><time>2026-05-02T15:40:08Z</time></trkpt><trkpt lat="45.636997793766895" lon="3.0942217985449947"><ele>561.0</ele><time>2026-05-02T15:40:09Z</time></trkpt><trkpt lat="45.63710822788461" lon="3.0941369056106955"><ele>560.0</ele><time>2026-05-02T15:40:10Z</time></trkpt><trkpt lat="45.63720988594744" lon="3.0940779219225814"><ele>559.0</ele><time>2026-05-02T15:40:11Z</time></trkpt><trkpt lat="45.63730757531206" lon="3.0940471318705702"><ele>558.0</ele><time>2026-05-02T15:40:12Z</time></trkpt><trkpt lat="45.637409788153406" lon="3.0940524509610072"><ele>557.0</ele><time>2026-05-02T15:40:13Z</time></trkpt><trkpt lat="45.63752114603548" lon="3.094072391122783"><ele>556.0</ele><time>2026-05-02T15:40:14Z</time></trkpt><trkpt lat="45.63763698051105" lon="3.094121786211104"><ele>556.0</ele><time>2026-05-02T15:40:15Z</time></trkpt><trkpt lat="45.637740331449436" lon="3.094220910881374"><ele>556.0</ele><time>2026-05-02T15:40:16Z</time></trkpt><trkpt lat="45.637844726967195" lon="3.0943226099430303"><ele>556.0</ele><time>2026-05-02T15:40:17Z</time></trkpt><trkpt lat="45.6379506750001" lon="3.0944401690164653"><ele>556.0</ele><time>2026-05-02T15:40:18Z</time></trkpt><trkpt lat="45.63806326497825" lon="3.0945325702393682"><ele>554.25</ele><time>2026-05-02T15:40:19Z</time></trkpt><trkpt lat="45.638167585943805" lon="3.0946356441703933"><ele>552.5</ele><time>2026-05-02T15:40:20Z</time></trkpt><trkpt lat="45.63827771955965" lon="3.094722629354495"><ele>550.75</ele><time>2026-05-02T15:40:21Z</time></trkpt><trkpt lat="45.63839536340667" lon="3.0947843202043694"><ele>549.0</ele><time>2026-05-02T15:40:22Z</time></trkpt><trkpt lat="45.63851639948024" lon="3.094820633922831"><ele>548.5</ele><time>2026-05-02T15:40:23Z</time></trkpt><trkpt lat="45.63863969951291" lon="3.0948423639335907"><ele>548.0</ele><time>2026-05-02T15:40:24Z</time></trkpt><trkpt lat="45.6387649314151" lon="3.0948397832311945"><ele>547.5</ele><time>2026-05-02T15:40:25Z</time></trkpt><trkpt lat="45.63889397576342" lon="3.0948157081083836"><ele>547.0</ele><time>2026-05-02T15:40:26Z</time></trkpt><trkpt lat="45.63902984607781" lon="3.094773597822442"><ele>547.0</ele><time>2026-05-02T15:40:27Z</time></trkpt><trkpt lat="45.63916148060287" lon="3.0946965717422374"><ele>547.0</ele><time>2026-05-02T15:40:28Z</time></trkpt><trkpt lat="45.63927538957837" lon="3.094602315071041"><ele>547.0</ele><time>2026-05-02T15:40:29Z</time></trkpt><trkpt lat="45.63938114505541" lon="3.094493488631255"><ele>547.0</ele><time>2026-05-02T15:40:30Z</time></trkpt><trkpt lat="45.63947869201804" lon="3.094364116214096"><ele>546.3333333333334</ele><time>2026-05-02T15:40:31Z</time></trkpt><trkpt lat="45.63957697954593" lon="3.0942164267340235"><ele>545.6666666666666</ele><time>2026-05-02T15:40:32Z</time></trkpt><trkpt lat="45.63966161347963" lon="3.094017540232846"><ele>545.0</ele><time>2026-05-02T15:40:33Z</time></trkpt><trkpt lat="45.63973950150118" lon="3.093781549497344"><ele>545.0</ele><time>2026-05-02T15:40:34Z</time></trkpt><trkpt lat="45.63982997478649" lon="3.093522162026839"><ele>545.0</ele><time>2026-05-02T15:40:35Z</time></trkpt><trkpt lat="45.6399335277067" lon="3.093301598923229"><ele>545.0</ele><time>2026-05-02T15:40:36Z</time></trkpt><trkpt lat="45.64003533167848" lon="3.093106072544639"><ele>544.0</ele><time>2026-05-02T15:40:37Z</time></trkpt><trkpt lat="45.64017967491456" lon="3.0928936692345714"><ele>543.0</ele><time>2026-05-02T15:40:38Z</time></trkpt><trkpt lat="45.640297976917246" lon="3.092744692324815"><ele>542.0</ele><time>2026-05-02T15:40:39Z</time></trkpt><trkpt lat="45.64042484885662" lon="3.092632810768224"><ele>542.0</ele><time>2026-05-02T15:40:40Z</time></trkpt><trkpt lat="45.64056243903262" lon="3.0925505766180272"><ele>542.0</ele><time>2026-05-02T15:40:41Z</time></trkpt><trkpt lat="45.64070161255068" lon="3.092486965891508"><ele>542.0</ele><time>2026-05-02T15:40:42Z</time></trkpt><trkpt lat="45.640846093948895" lon="3.092434710911412"><ele>542.0</ele><time>2026-05-02T15:40:43Z</time></trkpt><trkpt lat="45.640995817766296" lon="3.092371466917495"><ele>537.6666666666666</ele><time>2026-05-02T15:40:44Z</time></trkpt><trkpt lat="45.64114656726559" lon="3.0923137183598444"><ele>533.3333333333334</ele><time>2026-05-02T15:40:45Z</time></trkpt><trkpt lat="45.64129678127557" lon="3.0922558512068767"><ele>529.0</ele><time>2026-05-02T15:40:46Z</time></trkpt><trkpt lat="45.641439535391754" lon="3.0921876329102704"><ele>529.0</ele><time>2026-05-02T15:40:47Z</time></trkpt><trkpt lat="45.641574729053346" lon="3.0921191517820046"><ele>529.0</ele><time>2026-05-02T15:40:48Z</time></trkpt><trkpt lat="45.6417060839915" lon="3.092041653391669"><ele>529.0</ele><time>2026-05-02T15:40:49Z</time></trkpt><trkpt lat="45.641823157182756" lon="3.0919411662722305"><ele>529.0</ele><time>2026-05-02T15:40:50Z</time></trkpt><trkpt lat="45.641933994875615" lon="3.091822850967756"><ele>528.3333333333334</ele><time>2026-05-02T15:40:51Z</time></trkpt><trkpt lat="45.64203691858261" lon="3.0916766329933987"><ele>527.6666666666666</ele><time>2026-05-02T15:40:52Z</time></trkpt><trkpt lat="45.6421437810176" lon="3.0914939450463286"><ele>527.0</ele><time>2026-05-02T15:40:53Z</time></trkpt><trkpt lat="45.64227156813102" lon="3.091278638275406"><ele>527.0</ele><time>2026-05-02T15:40:54Z</time></trkpt><trkpt lat="45.64240868087643" lon="3.0910815996943724"><ele>527.0</ele><time>2026-05-02T15:40:55Z</time></trkpt><trkpt lat="45.64252660863805" lon="3.0909007761376026"><ele>527.0</ele><time>2026-05-02T15:40:56Z</time></trkpt><trkpt lat="45.642638714898844" lon="3.090730674138619"><ele>526.6666666666666</ele><time>2026-05-02T15:40:57Z</time></trkpt><trkpt lat="45.64274157090624" lon="3.090561413720035"><ele>526.3333333333334</ele><time>2026-05-02T15:40:58Z</time></trkpt><trkpt lat="45.64281933150931" lon="3.0903728564197106"><ele>526.0</ele><time>2026-05-02T15:40:59Z</time></trkpt><trkpt lat="45.64288037778404" lon="3.0901839251826058"><ele>526.75</ele><time>2026-05-02T15:41:00Z</time></trkpt><trkpt lat="45.64293462916593" lon="3.0899935911775223"><ele>527.5</ele><time>2026-05-02T15:41:01Z</time></trkpt><trkpt lat="45.64299618428863" lon="3.089818805952441"><ele>528.25</ele><time>2026-05-02T15:41:02Z</time></trkpt><trkpt lat="45.64306565489623" lon="3.0896568630896213"><ele>529.0</ele><time>2026-05-02T15:41:03Z</time></trkpt><trkpt lat="45.64314888917644" lon="3.089509028406217"><ele>527.5</ele><time>2026-05-02T15:41:04Z</time></trkpt><trkpt lat="45.643243290227396" lon="3.0893632487795406"><ele>526.0</ele><time>2026-05-02T15:41:05Z</time></trkpt><trkpt lat="45.64334837932476" lon="3.089220614309199"><ele>524.5</ele><time>2026-05-02T15:41:06Z</time></trkpt><trkpt lat="45.64346542744946" lon="3.089093114104779"><ele>523.0</ele><time>2026-05-02T15:41:07Z</time></trkpt><trkpt lat="45.6435980500411" lon="3.088981419949003"><ele>521.0</ele><time>2026-05-02T15:41:08Z</time></trkpt><trkpt lat="45.64373922184803" lon="3.08887429750771"><ele>519.0</ele><time>2026-05-02T15:41:09Z</time></trkpt><trkpt lat="45.643884978408245" lon="3.0887651446672457"><ele>517.0</ele><time>2026-05-02T15:41:10Z</time></trkpt><trkpt lat="45.64402689419031" lon="3.0886630884042945"><ele>517.0</ele><time>2026-05-02T15:41:11Z</time></trkpt><trkpt lat="45.64416038464038" lon="3.0885683448162045"><ele>517.0</ele><time>2026-05-02T15:41:12Z</time></trkpt><trkpt lat="45.644302396402686" lon="3.0884819641119226"><ele>517.0</ele><time>2026-05-02T15:41:13Z</time></trkpt><trkpt lat="45.64445445167471" lon="3.088409529384142"><ele>517.3333333333334</ele><time>2026-05-02T15:41:14Z</time></trkpt><trkpt lat="45.644608428235614" lon="3.0883477343955934"><ele>517.6666666666666</ele><time>2026-05-02T15:41:15Z</time></trkpt><trkpt lat="45.644765972478474" lon="3.0882918111935878"><ele>518.0</ele><time>2026-05-02T15:41:16Z</time></trkpt><trkpt lat="45.64492221754179" lon="3.0882271789447566"><ele>517.3333333333333</ele><time>2026-05-02T15:41:17Z</time></trkpt><trkpt lat="45.64509014375207" lon="3.0881526351592337"><ele>516.6666666666666</ele><time>2026-05-02T15:41:18Z</time></trkpt><trkpt lat="45.64525036749175" lon="3.0880808303456257"><ele>516.0</ele><time>2026-05-02T15:41:19Z</time></trkpt><trkpt lat="45.64541337723347" lon="3.0880021075549964"><ele>516.0</ele><time>2026-05-02T15:41:20Z</time></trkpt><trkpt lat="45.645575222050375" lon="3.0879174458072605"><ele>516.0</ele><time>2026-05-02T15:41:21Z</time></trkpt><trkpt lat="45.64572092444761" lon="3.0878301502157055"><ele>516.0</ele><time>2026-05-02T15:41:22Z</time></trkpt><trkpt lat="45.645856055937166" lon="3.0877405878536655"><ele>516.0</ele><time>2026-05-02T15:41:23Z</time></trkpt><trkpt lat="45.6459824399328" lon="3.087653313179916"><ele>516.0</ele><time>2026-05-02T15:41:24Z</time></trkpt><trkpt lat="45.646111383255366" lon="3.087578777800969"><ele>516.0</ele><time>2026-05-02T15:41:25Z</time></trkpt><trkpt lat="45.64624771824301" lon="3.0875121618516834"><ele>516.0</ele><time>2026-05-02T15:41:26Z</time></trkpt><trkpt lat="45.64639541049833" lon="3.087454621935356"><ele>516.0</ele><time>2026-05-02T15:41:27Z</time></trkpt><trkpt lat="45.646546049930365" lon="3.0874089257628516"><ele>516.0</ele><time>2026-05-02T15:41:28Z</time></trkpt><trkpt lat="45.64668245559934" lon="3.0873614235349947"><ele>516.0</ele><time>2026-05-02T15:41:29Z</time></trkpt><trkpt lat="45.64681539078697" lon="3.087292556006958"><ele>516.0</ele><time>2026-05-02T15:41:30Z</time></trkpt><trkpt lat="45.64693527488064" lon="3.0872049113886444"><ele>517.25</ele><time>2026-05-02T15:41:31Z</time></trkpt><trkpt lat="45.647042145740755" lon="3.087093774075099"><ele>518.5</ele><time>2026-05-02T15:41:32Z</time></trkpt><trkpt lat="45.64712811205792" lon="3.086957747362223"><ele>519.75</ele><time>2026-05-02T15:41:33Z</time></trkpt><trkpt lat="45.64720496702889" lon="3.0867904152695407"><ele>521.0</ele><time>2026-05-02T15:41:34Z</time></trkpt><trkpt lat="45.64728004618039" lon="3.0866135394690537"><ele>520.5</ele><time>2026-05-02T15:41:35Z</time></trkpt><trkpt lat="45.647355084740695" lon="3.086452653551832"><ele>520.0</ele><time>2026-05-02T15:41:36Z</time></trkpt><trkpt lat="45.64743766543501" lon="3.0863135962239037"><ele>519.5</ele><time>2026-05-02T15:41:37Z</time></trkpt><trkpt lat="45.647540918408254" lon="3.086191151544375"><ele>519.0</ele><time>2026-05-02T15:41:38Z</time></trkpt><trkpt lat="45.6476551643743" lon="3.0860650250875485"><ele>519.0</ele><time>2026-05-02T15:41:39Z</time></trkpt><trkpt lat="45.647781361679684" lon="3.085940190832433"><ele>519.0</ele><time>2026-05-02T15:41:40Z</time></trkpt><trkpt lat="45.64790489306842" lon="3.0858235075295526"><ele>519.0</ele><time>2026-05-02T15:41:41Z</time></trkpt><trkpt lat="45.6480196196579" lon="3.0857162984376556"><ele>519.0</ele><time>2026-05-02T15:41:42Z</time></trkpt><trkpt lat="45.64812600792808" lon="3.085611755023493"><ele>517.75</ele><time>2026-05-02T15:41:43Z</time></trkpt><trkpt lat="45.64822618417102" lon="3.0855004942952107"><ele>516.5</ele><time>2026-05-02T15:41:44Z</time></trkpt><trkpt lat="45.648326048441525" lon="3.085380311160983"><ele>515.25</ele><time>2026-05-02T15:41:45Z</time></trkpt><trkpt lat="45.648434639581545" lon="3.085255421110853"><ele>514.0</ele><time>2026-05-02T15:41:46Z</time></trkpt><trkpt lat="45.648551756943064" lon="3.0851352630087527"><ele>513.0</ele><time>2026-05-02T15:41:47Z</time></trkpt><trkpt lat="45.64868560672271" lon="3.085022603612235"><ele>512.0</ele><time>2026-05-02T15:41:48Z</time></trkpt><trkpt lat="45.64883292526424" lon="3.084924665688209"><ele>511.0</ele><time>2026-05-02T15:41:49Z</time></trkpt><trkpt lat="45.64899330494582" lon="3.084832459631926"><ele>511.0</ele><time>2026-05-02T15:41:50Z</time></trkpt><trkpt lat="45.64918079460424" lon="3.084755055645389"><ele>511.0</ele><time>2026-05-02T15:41:51Z</time></trkpt><trkpt lat="45.64938949830717" lon="3.0846841170047914"><ele>511.0</ele><time>2026-05-02T15:41:52Z</time></trkpt><trkpt lat="45.649588064051585" lon="3.0846544480038283"><ele>511.33333333333337</ele><time>2026-05-02T15:41:53Z</time></trkpt><trkpt lat="45.64975942954774" lon="3.084699277435468"><ele>511.66666666666663</ele><time>2026-05-02T15:41:54Z</time></trkpt><trkpt lat="45.649932462888955" lon="3.0847107248898635"><ele>512.0</ele><time>2026-05-02T15:41:55Z</time></trkpt><trkpt lat="45.650098501406696" lon="3.084708595503606"><ele>512.0</ele><time>2026-05-02T15:41:56Z</time></trkpt><trkpt lat="45.6502761042132" lon="3.084631004590349"><ele>512.0</ele><time>2026-05-02T15:41:57Z</time></trkpt><trkpt lat="45.6504522766859" lon="3.0845203036169173"><ele>512.0</ele><time>2026-05-02T15:41:58Z</time></trkpt><trkpt lat="45.65060949448191" lon="3.0844354369114386"><ele>512.6666666666666</ele><time>2026-05-02T15:41:59Z</time></trkpt><trkpt lat="45.650763851164925" lon="3.084368662022452"><ele>513.3333333333334</ele><time>2026-05-02T15:42:00Z</time></trkpt><trkpt lat="45.650911903071496" lon="3.0843157857942565"><ele>514.0</ele><time>2026-05-02T15:42:01Z</time></trkpt><trkpt lat="45.65105485716271" lon="3.0842789958045267"><ele>514.25</ele><time>2026-05-02T15:42:02Z</time></trkpt><trkpt lat="45.65118746476605" lon="3.0842381840782958"><ele>514.5</ele><time>2026-05-02T15:42:03Z</time></trkpt><trkpt lat="45.65131842162605" lon="3.084203449045243"><ele>514.75</ele><time>2026-05-02T15:42:04Z</time></trkpt><trkpt lat="45.65144793373915" lon="3.0841741848412156"><ele>515.0</ele><time>2026-05-02T15:42:05Z</time></trkpt><trkpt lat="45.6515702226813" lon="3.084153452758967"><ele>515.0</ele><time>2026-05-02T15:42:06Z</time></trkpt><trkpt lat="45.65169117862193" lon="3.0841505625546355"><ele>515.0</ele><time>2026-05-02T15:42:07Z</time></trkpt><trkpt lat="45.651807114805145" lon="3.084157356702717"><ele>515.0</ele><time>2026-05-02T15:42:08Z</time></trkpt><trkpt lat="45.65192106320654" lon="3.084159886827881"><ele>515.0</ele><time>2026-05-02T15:42:09Z</time></trkpt><trkpt lat="45.65202906873077" lon="3.0841695785300187"><ele>515.4</ele><time>2026-05-02T15:42:10Z</time></trkpt><trkpt lat="45.65213401918238" lon="3.084185892283344"><ele>515.8</ele><time>2026-05-02T15:42:11Z</time></trkpt><trkpt lat="45.65223679179929" lon="3.0842002177590304"><ele>516.2</ele><time>2026-05-02T15:42:12Z</time></trkpt><trkpt lat="45.65233410372176" lon="3.084212512961648"><ele>516.6</ele><time>2026-05-02T15:42:13Z</time></trkpt><trkpt lat="45.65242793424549" lon="3.0842274011403354"><ele>517.0</ele><time>2026-05-02T15:42:14Z</time></trkpt><trkpt lat="45.652521010520296" lon="3.0842409418300867"><ele>517.0</ele><time>2026-05-02T15:42:15Z</time></trkpt><trkpt lat="45.65260985230761" lon="3.084255554190862"><ele>517.0</ele><time>2026-05-02T15:42:16Z</time></trkpt><trkpt lat="45.65269471298945" lon="3.084272905804794"><ele>517.0</ele><time>2026-05-02T15:42:17Z</time></trkpt><trkpt lat="45.652774398447896" lon="3.084289618304778"><ele>517.0</ele><time>2026-05-02T15:42:18Z</time></trkpt><trkpt lat="45.652851930242846" lon="3.0843050921622543"><ele>517.0</ele><time>2026-05-02T15:42:19Z</time></trkpt><trkpt lat="45.65293162254822" lon="3.084317326450628"><ele>517.0</ele><time>2026-05-02T15:42:20Z</time></trkpt><trkpt lat="45.6530208242457" lon="3.08433050916742"><ele>516.8000000000001</ele><time>2026-05-02T15:42:21Z</time></trkpt><trkpt lat="45.65310633305077" lon="3.0843408225206614"><ele>516.6</ele><time>2026-05-02T15:42:22Z</time></trkpt><trkpt lat="45.65320480864165" lon="3.0843481111011744"><ele>516.4000000000001</ele><time>2026-05-02T15:42:23Z</time></trkpt><trkpt lat="45.653303207488136" lon="3.0843678953124227"><ele>516.2</ele><time>2026-05-02T15:42:24Z</time></trkpt><trkpt lat="45.65339973778215" lon="3.0843813783758987"><ele>516.0</ele><time>2026-05-02T15:42:25Z</time></trkpt><trkpt lat="45.65349619257583" lon="3.0844014257587133"><ele>516.0</ele><time>2026-05-02T15:42:26Z</time></trkpt><trkpt lat="45.65357816658869" lon="3.0844147761688805"><ele>516.0</ele><time>2026-05-02T15:42:27Z</time></trkpt><trkpt lat="45.65366285880056" lon="3.0844226550331735"><ele>516.0</ele><time>2026-05-02T15:42:28Z</time></trkpt><trkpt lat="45.653773132795564" lon="3.0844401040191687"><ele>516.0</ele><time>2026-05-02T15:42:29Z</time></trkpt><trkpt lat="45.653882489627975" lon="3.0844849703430226"><ele>516.0</ele><time>2026-05-02T15:42:30Z</time></trkpt><trkpt lat="45.65401433578026" lon="3.08449594167905"><ele>516.3333333333334</ele><time>2026-05-02T15:42:31Z</time></trkpt><trkpt lat="45.65415477071113" lon="3.084556084729446"><ele>516.6666666666667</ele><time>2026-05-02T15:42:32Z</time></trkpt><trkpt lat="45.654318728974665" lon="3.0846444404047384"><ele>517.0</ele><time>2026-05-02T15:42:33Z</time></trkpt><trkpt lat="45.65448948574554" lon="3.084727655264723"><ele>517.75</ele><time>2026-05-02T15:42:34Z</time></trkpt><trkpt lat="45.6546413529156" lon="3.084771592247812"><ele>518.5</ele><time>2026-05-02T15:42:35Z</time></trkpt><trkpt lat="45.65477661582183" lon="3.0847792053888003"><ele>519.25</ele><time>2026-05-02T15:42:36Z</time></trkpt><trkpt lat="45.65491696075357" lon="3.084767065920731"><ele>520.0</ele><time>2026-05-02T15:42:37Z</time></trkpt><trkpt lat="45.65506163347176" lon="3.0847390737128357"><ele>520.0</ele><time>2026-05-02T15:42:38Z</time></trkpt><trkpt lat="45.655225688651676" lon="3.0847307198197513"><ele>520.0</ele><time>2026-05-02T15:42:39Z</time></trkpt><trkpt lat="45.65539846999742" lon="3.084768764549412"><ele>520.0</ele><time>2026-05-02T15:42:40Z</time></trkpt><trkpt lat="45.65555103169457" lon="3.084784404427288"><ele>520.75</ele><time>2026-05-02T15:42:41Z</time></trkpt><trkpt lat="45.65568792052414" lon="3.084781931082538"><ele>521.5</ele><time>2026-05-02T15:42:42Z</time></trkpt><trkpt lat="45.65580939039865" lon="3.084799322397728"><ele>522.25</ele><time>2026-05-02T15:42:43Z</time></trkpt><trkpt lat="45.65592310056059" lon="3.0848024398631604"><ele>523.0</ele><time>2026-05-02T15:42:44Z</time></trkpt><trkpt lat="45.65602633305606" lon="3.084814374395451"><ele>523.0</ele><time>2026-05-02T15:42:45Z</time></trkpt><trkpt lat="45.65611872455972" lon="3.0848247014206596"><ele>523.0</ele><time>2026-05-02T15:42:46Z</time></trkpt><trkpt lat="45.656206151259525" lon="3.084834809904855"><ele>523.0</ele><time>2026-05-02T15:42:47Z</time></trkpt><trkpt lat="45.656277708210226" lon="3.0848429782028033"><ele>523.0</ele><time>2026-05-02T15:42:48Z</time></trkpt><trkpt lat="45.65636792195596" lon="3.0849520966461954"><ele>523.0</ele><time>2026-05-02T15:42:50Z</time></trkpt><trkpt lat="45.656376829402234" lon="3.0850548425966617"><ele>523.0</ele><time>2026-05-02T15:42:51Z</time></trkpt><trkpt lat="45.65637413553471" lon="3.085155440959069"><ele>522.6666666666667</ele><time>2026-05-02T15:42:52Z</time></trkpt><trkpt lat="45.65637071803142" lon="3.085261338088893"><ele>522.3333333333334</ele><time>2026-05-02T15:42:53Z</time></trkpt><trkpt lat="45.656384846497325" lon="3.085367124661158"><ele>522.0</ele><time>2026-05-02T15:42:54Z</time></trkpt><trkpt lat="45.656405689035516" lon="3.085470821504551"><ele>521.6666666666666</ele><time>2026-05-02T15:42:55Z</time></trkpt><trkpt lat="45.65642350285731" lon="3.085576605663046"><ele>521.3333333333333</ele><time>2026-05-02T15:42:56Z</time></trkpt><trkpt lat="45.65643907904101" lon="3.0856912171836965"><ele>521.0</ele><time>2026-05-02T15:42:57Z</time></trkpt><trkpt lat="45.65645107714663" lon="3.0858177703724206"><ele>521.0</ele><time>2026-05-02T15:42:58Z</time></trkpt><trkpt lat="45.656465018269024" lon="3.0859546112596137"><ele>521.0</ele><time>2026-05-02T15:42:59Z</time></trkpt><trkpt lat="45.65648119669801" lon="3.0861082044927595"><ele>521.0</ele><time>2026-05-02T15:43:00Z</time></trkpt><trkpt lat="45.656497699922404" lon="3.086252788517492"><ele>521.0</ele><time>2026-05-02T15:43:01Z</time></trkpt><trkpt lat="45.65651433950729" lon="3.0863806762507964"><ele>521.0</ele><time>2026-05-02T15:43:02Z</time></trkpt><trkpt lat="45.65653340269608" lon="3.0865055418847507"><ele>520.8333333333333</ele><time>2026-05-02T15:43:03Z</time></trkpt><trkpt lat="45.656563230593534" lon="3.0866201932338995"><ele>520.6666666666666</ele><time>2026-05-02T15:43:04Z</time></trkpt><trkpt lat="45.65660389463475" lon="3.0867212529296713"><ele>520.5</ele><time>2026-05-02T15:43:05Z</time></trkpt><trkpt lat="45.65665631075595" lon="3.086801635613708"><ele>520.3333333333334</ele><time>2026-05-02T15:43:06Z</time></trkpt><trkpt lat="45.656719458684734" lon="3.0868876936089378"><ele>520.1666666666667</ele><time>2026-05-02T15:43:07Z</time></trkpt><trkpt lat="45.65678422728649" lon="3.0869834977125903"><ele>520.0</ele><time>2026-05-02T15:43:08Z</time></trkpt><trkpt lat="45.65684987586196" lon="3.0870922771478466"><ele>520.0</ele><time>2026-05-02T15:43:09Z</time></trkpt><trkpt lat="45.65689719512037" lon="3.087191299886535"><ele>520.0</ele><time>2026-05-02T15:43:10Z</time></trkpt><trkpt lat="45.65691898629224" lon="3.0873027300312845"><ele>520.0</ele><time>2026-05-02T15:43:11Z</time></trkpt><trkpt lat="45.65697640818836" lon="3.0873462949873045"><ele>520.0</ele><time>2026-05-02T15:43:12Z</time></trkpt><trkpt lat="45.656913360972794" lon="3.087536191174122"><ele>520.0</ele><time>2026-05-02T15:43:13Z</time></trkpt><trkpt lat="45.65688400225828" lon="3.087672804727437"><ele>520.2</ele><time>2026-05-02T15:43:14Z</time></trkpt><trkpt lat="45.65685816744347" lon="3.087810010030878"><ele>520.4</ele><time>2026-05-02T15:43:15Z</time></trkpt><trkpt lat="45.65684026229492" lon="3.0879271784444655"><ele>520.6</ele><time>2026-05-02T15:43:16Z</time></trkpt><trkpt lat="45.656824226281515" lon="3.088037120661735"><ele>520.8</ele><time>2026-05-02T15:43:17Z</time></trkpt><trkpt lat="45.656794088419495" lon="3.0881947622750183"><ele>521.0</ele><time>2026-05-02T15:43:18Z</time></trkpt><trkpt lat="45.65679325263802" lon="3.088348797063996"><ele>521.0</ele><time>2026-05-02T15:43:19Z</time></trkpt><trkpt lat="45.65679643210431" lon="3.088507017782813"><ele>521.0</ele><time>2026-05-02T15:43:20Z</time></trkpt><trkpt lat="45.65686128175087" lon="3.088655123768556"><ele>521.0</ele><time>2026-05-02T15:43:21Z</time></trkpt><trkpt lat="45.65692550025342" lon="3.088785484462236"><ele>521.0</ele><time>2026-05-02T15:43:22Z</time></trkpt><trkpt lat="45.6570110255349" lon="3.0888846031144057"><ele>521.0</ele><time>2026-05-02T15:43:23Z</time></trkpt><trkpt lat="45.65709314268471" lon="3.0889807324291323"><ele>521.0</ele><time>2026-05-02T15:43:24Z</time></trkpt><trkpt lat="45.65716642856575" lon="3.089086332878673"><ele>521.0</ele><time>2026-05-02T15:43:25Z</time></trkpt><trkpt lat="45.65724263559999" lon="3.089183708268437"><ele>521.0</ele><time>2026-05-02T15:43:26Z</time></trkpt><trkpt lat="45.657315191296654" lon="3.089278992275519"><ele>521.0</ele><time>2026-05-02T15:43:27Z</time></trkpt><trkpt lat="45.65738309590336" lon="3.089378090237257"><ele>520.5</ele><time>2026-05-02T15:43:28Z</time></trkpt><trkpt lat="45.65744352786594" lon="3.0894589538657637"><ele>520.0</ele><time>2026-05-02T15:43:29Z</time></trkpt><trkpt lat="45.65750094019657" lon="3.0895475274216904"><ele>519.5</ele><time>2026-05-02T15:43:30Z</time></trkpt><trkpt lat="45.6575615774048" lon="3.0896239962037426"><ele>519.0</ele><time>2026-05-02T15:43:31Z</time></trkpt><trkpt lat="45.65762337831953" lon="3.089687316873242"><ele>518.5</ele><time>2026-05-02T15:43:32Z</time></trkpt><trkpt lat="45.65768871367117" lon="3.089764142912235"><ele>518.0</ele><time>2026-05-02T15:43:33Z</time></trkpt><trkpt lat="45.65776714427058" lon="3.0898322091198276"><ele>517.4</ele><time>2026-05-02T15:43:34Z</time></trkpt><trkpt lat="45.657854627596706" lon="3.089902726947585"><ele>516.8</ele><time>2026-05-02T15:43:35Z</time></trkpt><trkpt lat="45.657950468492935" lon="3.0899773462363123"><ele>516.2</ele><time>2026-05-02T15:43:36Z</time></trkpt><trkpt lat="45.658047637426655" lon="3.0900434898105487"><ele>515.6</ele><time>2026-05-02T15:43:37Z</time></trkpt><trkpt lat="45.65814049352037" lon="3.0901039804981174"><ele>515.0</ele><time>2026-05-02T15:43:38Z</time></trkpt><trkpt lat="45.658229798724676" lon="3.0901656173779735"><ele>515.0</ele><time>2026-05-02T15:43:39Z</time></trkpt><trkpt lat="45.65831363188616" lon="3.090230610443014"><ele>515.0</ele><time>2026-05-02T15:43:40Z</time></trkpt><trkpt lat="45.65839296969435" lon="3.090286901804099"><ele>515.0</ele><time>2026-05-02T15:43:41Z</time></trkpt><trkpt lat="45.65847232815016" lon="3.0903400525220324"><ele>515.0</ele><time>2026-05-02T15:43:42Z</time></trkpt><trkpt lat="45.65855018685742" lon="3.0903936309688977"><ele>515.0</ele><time>2026-05-02T15:43:43Z</time></trkpt><trkpt lat="45.658627171488504" lon="3.09044860728885"><ele>515.0</ele><time>2026-05-02T15:43:44Z</time></trkpt><trkpt lat="45.65870238344078" lon="3.090500190868005"><ele>514.3333333333333</ele><time>2026-05-02T15:43:45Z</time></trkpt><trkpt lat="45.658777721462506" lon="3.0905464741236983"><ele>513.6666666666666</ele><time>2026-05-02T15:43:46Z</time></trkpt><trkpt lat="45.65885030180968" lon="3.0905947228405144"><ele>513.0</ele><time>2026-05-02T15:43:47Z</time></trkpt><trkpt lat="45.65892194285862" lon="3.0906474819958847"><ele>512.3333333333334</ele><time>2026-05-02T15:43:48Z</time></trkpt><trkpt lat="45.658990001958664" lon="3.0906966997607657"><ele>511.6666666666667</ele><time>2026-05-02T15:43:49Z</time></trkpt><trkpt lat="45.65906109213506" lon="3.090749570229862"><ele>511.0</ele><time>2026-05-02T15:43:50Z</time></trkpt><trkpt lat="45.65913079483156" lon="3.0907950195829246"><ele>511.0</ele><time>2026-05-02T15:43:51Z</time></trkpt><trkpt lat="45.65920149691819" lon="3.0908385057634558"><ele>511.0</ele><time>2026-05-02T15:43:52Z</time></trkpt><trkpt lat="45.6592686149857" lon="3.090884105699746"><ele>511.0</ele><time>2026-05-02T15:43:53Z</time></trkpt><trkpt lat="45.659338241388745" lon="3.090935612049618"><ele>511.0</ele><time>2026-05-02T15:43:54Z</time></trkpt><trkpt lat="45.659404899656415" lon="3.090983968240927"><ele>511.0</ele><time>2026-05-02T15:43:55Z</time></trkpt><trkpt lat="45.65946896423819" lon="3.0910324853611457"><ele>511.0</ele><time>2026-05-02T15:43:56Z</time></trkpt><trkpt lat="45.65952510902795" lon="3.0910919775229706"><ele>511.0</ele><time>2026-05-02T15:43:57Z</time></trkpt><trkpt lat="45.65957531606301" lon="3.091161724608602"><ele>510.50000000000006</ele><time>2026-05-02T15:43:58Z</time></trkpt><trkpt lat="45.65962173774578" lon="3.0912422695110164"><ele>510.0</ele><time>2026-05-02T15:43:59Z</time></trkpt><trkpt lat="45.659668449693754" lon="3.091340043537624"><ele>509.5</ele><time>2026-05-02T15:44:00Z</time></trkpt><trkpt lat="45.6596967533686" lon="3.0914625797706585"><ele>509.0</ele><time>2026-05-02T15:44:01Z</time></trkpt><trkpt lat="45.659721569988974" lon="3.0915940522991865"><ele>508.50000000000006</ele><time>2026-05-02T15:44:02Z</time></trkpt><trkpt lat="45.659745364826186" lon="3.0917380073360863"><ele>508.0</ele><time>2026-05-02T15:44:03Z</time></trkpt><trkpt lat="45.659772694780884" lon="3.091876323317783"><ele>507.79999999999995</ele><time>2026-05-02T15:44:04Z</time></trkpt><trkpt lat="45.659779874423215" lon="3.092022780478065"><ele>507.59999999999997</ele><time>2026-05-02T15:44:05Z</time></trkpt><trkpt lat="45.65981670605905" lon="3.092145485335657"><ele>507.40000000000003</ele><time>2026-05-02T15:44:06Z</time></trkpt><trkpt lat="45.65984968506295" lon="3.092258664262399"><ele>507.20000000000005</ele><time>2026-05-02T15:44:07Z</time></trkpt><trkpt lat="45.65990167937339" lon="3.092361241808994"><ele>507.0</ele><time>2026-05-02T15:44:08Z</time></trkpt><trkpt lat="45.65996438620816" lon="3.0924520721605027"><ele>507.6</ele><time>2026-05-02T15:44:09Z</time></trkpt><trkpt lat="45.6600330572297" lon="3.0925497675243"><ele>508.20000000000005</ele><time>2026-05-02T15:44:10Z</time></trkpt><trkpt lat="45.660114974283246" lon="3.0926456457424627"><ele>508.8</ele><time>2026-05-02T15:44:11Z</time></trkpt><trkpt lat="45.66020119973572" lon="3.0927406210592467"><ele>509.4</ele><time>2026-05-02T15:44:12Z</time></trkpt><trkpt lat="45.660295660554794" lon="3.0928348903264"><ele>510.0</ele><time>2026-05-02T15:44:13Z</time></trkpt><trkpt lat="45.66040393935517" lon="3.092914210578392"><ele>508.5</ele><time>2026-05-02T15:44:14Z</time></trkpt><trkpt lat="45.660524808023794" lon="3.0929796439171295"><ele>507.0</ele><time>2026-05-02T15:44:15Z</time></trkpt><trkpt lat="45.66064861341431" lon="3.0930531572276854"><ele>505.5</ele><time>2026-05-02T15:44:16Z</time></trkpt><trkpt lat="45.66077905436543" lon="3.093124787156813"><ele>504.0</ele><time>2026-05-02T15:44:17Z</time></trkpt><trkpt lat="45.660912657198786" lon="3.093195883535387"><ele>504.5</ele><time>2026-05-02T15:44:18Z</time></trkpt><trkpt lat="45.66104732729112" lon="3.0932661976062192"><ele>505.0</ele><time>2026-05-02T15:44:19Z</time></trkpt><trkpt lat="45.66116725670216" lon="3.0933301563319477"><ele>505.5</ele><time>2026-05-02T15:44:20Z</time></trkpt><trkpt lat="45.661279903421836" lon="3.0933873331629336"><ele>506.0</ele><time>2026-05-02T15:44:21Z</time></trkpt><trkpt lat="45.661384832118024" lon="3.093442692696193"><ele>506.0</ele><time>2026-05-02T15:44:22Z</time></trkpt><trkpt lat="45.66148685278901" lon="3.0934929447991446"><ele>506.0</ele><time>2026-05-02T15:44:23Z</time></trkpt><trkpt lat="45.661581860611896" lon="3.0935374045140756"><ele>506.0</ele><time>2026-05-02T15:44:24Z</time></trkpt><trkpt lat="45.66166947217961" lon="3.0935870499541465"><ele>506.0</ele><time>2026-05-02T15:44:25Z</time></trkpt><trkpt lat="45.66175578068981" lon="3.0936309537514326"><ele>506.0</ele><time>2026-05-02T15:44:26Z</time></trkpt><trkpt lat="45.66183563300972" lon="3.0936693391304346"><ele>506.0</ele><time>2026-05-02T15:44:27Z</time></trkpt><trkpt lat="45.66191568883626" lon="3.0937241992195106"><ele>506.0</ele><time>2026-05-02T15:44:28Z</time></trkpt><trkpt lat="45.66199337808902" lon="3.0938018727996517"><ele>506.0</ele><time>2026-05-02T15:44:29Z</time></trkpt><trkpt lat="45.662074493424036" lon="3.0939101316728306"><ele>506.0</ele><time>2026-05-02T15:44:30Z</time></trkpt><trkpt lat="45.66215244752997" lon="3.0940567414172118"><ele>506.0</ele><time>2026-05-02T15:44:31Z</time></trkpt><trkpt lat="45.66222249789286" lon="3.0942384514955275"><ele>504.66666666666663</ele><time>2026-05-02T15:44:32Z</time></trkpt><trkpt lat="45.66229116009829" lon="3.0944518658764153"><ele>503.33333333333337</ele><time>2026-05-02T15:44:33Z</time></trkpt><trkpt lat="45.662355107881964" lon="3.094658884922487"><ele>502.0</ele><time>2026-05-02T15:44:34Z</time></trkpt><trkpt lat="45.66241788531389" lon="3.094839560914766"><ele>502.25</ele><time>2026-05-02T15:44:35Z</time></trkpt><trkpt lat="45.66248099487259" lon="3.094999962900677"><ele>502.5</ele><time>2026-05-02T15:44:36Z</time></trkpt><trkpt lat="45.66253408996425" lon="3.095157591731592"><ele>502.75</ele><time>2026-05-02T15:44:37Z</time></trkpt><trkpt lat="45.66258621009538" lon="3.0953058188013656"><ele>503.0</ele><time>2026-05-02T15:44:38Z</time></trkpt><trkpt lat="45.662634180254074" lon="3.095446833435911"><ele>503.0</ele><time>2026-05-02T15:44:39Z</time></trkpt><trkpt lat="45.66268098744559" lon="3.0955817923972515"><ele>502.99999999999994</ele><time>2026-05-02T15:44:40Z</time></trkpt><trkpt lat="45.66272164916832" lon="3.09570899530332"><ele>502.99999999999994</ele><time>2026-05-02T15:44:41Z</time></trkpt><trkpt lat="45.662737744734315" lon="3.0958531482324116"><ele>503.0</ele><time>2026-05-02T15:44:42Z</time></trkpt><trkpt lat="45.66277118265607" lon="3.0959872838747473"><ele>503.0</ele><time>2026-05-02T15:44:43Z</time></trkpt><trkpt lat="45.66278749836567" lon="3.0961519645783526"><ele>501.25</ele><time>2026-05-02T15:44:44Z</time></trkpt><trkpt lat="45.66280109776503" lon="3.0963455825692465"><ele>499.5</ele><time>2026-05-02T15:44:45Z</time></trkpt><trkpt lat="45.66281126160721" lon="3.0965396677805104"><ele>497.75</ele><time>2026-05-02T15:44:46Z</time></trkpt><trkpt lat="45.6628293494601" lon="3.0967112291676"><ele>496.0</ele><time>2026-05-02T15:44:47Z</time></trkpt><trkpt lat="45.662855203791395" lon="3.0968701216557286"><ele>495.20000000000005</ele><time>2026-05-02T15:44:48Z</time></trkpt><trkpt lat="45.662893123257184" lon="3.097013254046088"><ele>494.40000000000003</ele><time>2026-05-02T15:44:49Z</time></trkpt><trkpt lat="45.66293938202618" lon="3.097135690259931"><ele>493.6</ele><time>2026-05-02T15:44:50Z</time></trkpt><trkpt lat="45.66298601955766" lon="3.0972299858207166"><ele>492.8</ele><time>2026-05-02T15:44:51Z</time></trkpt><trkpt lat="45.66302985464783" lon="3.0973079824486347"><ele>492.0</ele><time>2026-05-02T15:44:52Z</time></trkpt><trkpt lat="45.663107229743744" lon="3.097433548593023"><ele>491.40000000000003</ele><time>2026-05-02T15:44:54Z</time></trkpt><trkpt lat="45.66316706843577" lon="3.0975452797898"><ele>490.80000000000007</ele><time>2026-05-02T15:44:55.999Z</time></trkpt><trkpt lat="45.66323184133576" lon="3.0976521327539865"><ele>490.2</ele><time>2026-05-02T15:44:57.999Z</time></trkpt><trkpt lat="45.663278226273384" lon="3.097739713576738"><ele>489.6</ele><time>2026-05-02T15:44:58.999Z</time></trkpt><trkpt lat="45.663337098359946" lon="3.0978459865063854"><ele>489.0</ele><time>2026-05-02T15:44:59.999Z</time></trkpt><trkpt lat="45.663400693105636" lon="3.0979731740802494"><ele>489.0</ele><time>2026-05-02T15:45:00.999Z</time></trkpt><trkpt lat="45.66346809103327" lon="3.0980926541932363"><ele>489.0</ele><time>2026-05-02T15:45:01.999Z</time></trkpt><trkpt lat="45.663537955035345" lon="3.0982196319419044"><ele>489.0</ele><time>2026-05-02T15:45:02.999Z</time></trkpt><trkpt lat="45.66361795525588" lon="3.0983582455982424"><ele>489.0</ele><time>2026-05-02T15:45:03.999Z</time></trkpt><trkpt lat="45.663701520092886" lon="3.098498622541553"><ele>487.75</ele><time>2026-05-02T15:45:04.999Z</time></trkpt><trkpt lat="45.663783271372125" lon="3.098644306622679"><ele>486.5</ele><time>2026-05-02T15:45:05.999Z</time></trkpt><trkpt lat="45.66385701939067" lon="3.098777883080002"><ele>485.25</ele><time>2026-05-02T15:45:06.999Z</time></trkpt><trkpt lat="45.66392388392361" lon="3.0989009804719165"><ele>484.0</ele><time>2026-05-02T15:45:07.999Z</time></trkpt><trkpt lat="45.663984990207865" lon="3.099020012652541"><ele>483.6</ele><time>2026-05-02T15:45:08.999Z</time></trkpt><trkpt lat="45.664050297638695" lon="3.099141080477058"><ele>483.2</ele><time>2026-05-02T15:45:10Z</time></trkpt><trkpt lat="45.664114402899" lon="3.0992562225617104"><ele>482.80000000000007</ele><time>2026-05-02T15:45:11Z</time></trkpt><trkpt lat="45.66417951981307" lon="3.099374860303778"><ele>482.40000000000003</ele><time>2026-05-02T15:45:12Z</time></trkpt><trkpt lat="45.66424875174952" lon="3.0995013868266947"><ele>482.0</ele><time>2026-05-02T15:45:13Z</time></trkpt><trkpt lat="45.664325477804105" lon="3.099621680773341"><ele>482.0</ele><time>2026-05-02T15:45:14Z</time></trkpt><trkpt lat="45.66440365386257" lon="3.099749992718263"><ele>482.0</ele><time>2026-05-02T15:45:15Z</time></trkpt><trkpt lat="45.66447962909918" lon="3.099880502088797"><ele>482.0</ele><time>2026-05-02T15:45:16Z</time></trkpt><trkpt lat="45.66455323568716" lon="3.100007778468829"><ele>482.0</ele><time>2026-05-02T15:45:17Z</time></trkpt><trkpt lat="45.6646153426198" lon="3.100128475915424"><ele>481.25</ele><time>2026-05-02T15:45:18Z</time></trkpt><trkpt lat="45.664677631902286" lon="3.100245703797517"><ele>480.5</ele><time>2026-05-02T15:45:19Z</time></trkpt><trkpt lat="45.66474285623802" lon="3.1003688777401477"><ele>479.75</ele><time>2026-05-02T15:45:20Z</time></trkpt><trkpt lat="45.66481324871023" lon="3.1005033282350314"><ele>479.0</ele><time>2026-05-02T15:45:21Z</time></trkpt><trkpt lat="45.66488932592734" lon="3.100640962327544"><ele>479.0</ele><time>2026-05-02T15:45:22Z</time></trkpt><trkpt lat="45.66496242552926" lon="3.1007813591216014"><ele>479.0</ele><time>2026-05-02T15:45:23Z</time></trkpt><trkpt lat="45.66504192528672" lon="3.1009282303649632"><ele>479.0</ele><time>2026-05-02T15:45:24Z</time></trkpt><trkpt lat="45.66512525757642" lon="3.101072449555564"><ele>479.0</ele><time>2026-05-02T15:45:25Z</time></trkpt><trkpt lat="45.66520611979228" lon="3.101217344655296"><ele>479.0</ele><time>2026-05-02T15:45:26Z</time></trkpt><trkpt lat="45.66527718290929" lon="3.1013497025437298"><ele>479.0</ele><time>2026-05-02T15:45:27Z</time></trkpt><trkpt lat="45.665342598290685" lon="3.101470139723089"><ele>479.0</ele><time>2026-05-02T15:45:28Z</time></trkpt><trkpt lat="45.66540657624224" lon="3.101583825197456"><ele>479.0</ele><time>2026-05-02T15:45:29Z</time></trkpt><trkpt lat="45.665468410352744" lon="3.1016913098341337"><ele>479.0</ele><time>2026-05-02T15:45:30Z</time></trkpt><trkpt lat="45.66553332190179" lon="3.1017945377268417"><ele>478.4</ele><time>2026-05-02T15:45:31Z</time></trkpt><trkpt lat="45.66559499390945" lon="3.101897066945376"><ele>477.79999999999995</ele><time>2026-05-02T15:45:32Z</time></trkpt><trkpt lat="45.665661398661456" lon="3.102004394302378"><ele>477.20000000000005</ele><time>2026-05-02T15:45:33Z</time></trkpt><trkpt lat="45.66573302482779" lon="3.1021385077007078"><ele>476.6</ele><time>2026-05-02T15:45:34Z</time></trkpt><trkpt lat="45.6658106660724" lon="3.10228046632338"><ele>476.0</ele><time>2026-05-02T15:45:35Z</time></trkpt><trkpt lat="45.66588590781443" lon="3.102423478988168"><ele>475.8</ele><time>2026-05-02T15:45:36Z</time></trkpt><trkpt lat="45.66594978389896" lon="3.102557865096916"><ele>475.6</ele><time>2026-05-02T15:45:37Z</time></trkpt><trkpt lat="45.666007333003535" lon="3.1026890944886802"><ele>475.4</ele><time>2026-05-02T15:45:38Z</time></trkpt><trkpt lat="45.666071816366966" lon="3.1028089500383746"><ele>475.2</ele><time>2026-05-02T15:45:39Z</time></trkpt><trkpt lat="45.66614039046813" lon="3.1029261058391415"><ele>475.0</ele><time>2026-05-02T15:45:40Z</time></trkpt><trkpt lat="45.66620937110347" lon="3.103040988916158"><ele>474.4</ele><time>2026-05-02T15:45:41Z</time></trkpt><trkpt lat="45.66628023697813" lon="3.103166474576484"><ele>473.8</ele><time>2026-05-02T15:45:42Z</time></trkpt><trkpt lat="45.66635556093879" lon="3.103295962320389"><ele>473.20000000000005</ele><time>2026-05-02T15:45:43Z</time></trkpt><trkpt lat="45.66642411786109" lon="3.1034167064276144"><ele>472.6</ele><time>2026-05-02T15:45:44Z</time></trkpt><trkpt lat="45.66648879221456" lon="3.1035395262027534"><ele>472.0</ele><time>2026-05-02T15:45:45Z</time></trkpt><trkpt lat="45.66656137068852" lon="3.1036443366112247"><ele>471.50000000000006</ele><time>2026-05-02T15:45:46Z</time></trkpt><trkpt lat="45.66663764410993" lon="3.1037208231286537"><ele>471.0</ele><time>2026-05-02T15:45:47Z</time></trkpt><trkpt lat="45.666719949903275" lon="3.1037779466446707"><ele>470.5</ele><time>2026-05-02T15:45:48Z</time></trkpt><trkpt lat="45.66679811107797" lon="3.1038244889325473"><ele>470.0</ele><time>2026-05-02T15:45:49Z</time></trkpt><trkpt lat="45.6668772929373" lon="3.1038641320295524"><ele>469.50000000000006</ele><time>2026-05-02T15:45:50Z</time></trkpt><trkpt lat="45.66695468964837" lon="3.1038975580720094"><ele>469.0</ele><time>2026-05-02T15:45:51Z</time></trkpt><trkpt lat="45.667027518403906" lon="3.103930658643546"><ele>469.00000000000006</ele><time>2026-05-02T15:45:52Z</time></trkpt><trkpt lat="45.66710120471392" lon="3.1039617501520342"><ele>469.0</ele><time>2026-05-02T15:45:53Z</time></trkpt><trkpt lat="45.66717136896224" lon="3.103996157955613"><ele>469.0</ele><time>2026-05-02T15:45:54Z</time></trkpt><trkpt lat="45.66724193377372" lon="3.1040240604365907"><ele>469.0</ele><time>2026-05-02T15:45:55Z</time></trkpt><trkpt lat="45.667324545597786" lon="3.1040453348928314"><ele>469.00000000000006</ele><time>2026-05-02T15:45:56Z</time></trkpt><trkpt lat="45.66741025425425" lon="3.104046421196926"><ele>469.0</ele><time>2026-05-02T15:45:57Z</time></trkpt><trkpt lat="45.667501309879654" lon="3.1040490861520333"><ele>469.00000000000006</ele><time>2026-05-02T15:45:57.999Z</time></trkpt><trkpt lat="45.66758783400595" lon="3.10405164011967"><ele>469.0</ele><time>2026-05-02T15:45:58.999Z</time></trkpt><trkpt lat="45.66766171180706" lon="3.104093667986093"><ele>469.0</ele><time>2026-05-02T15:45:59.999Z</time></trkpt><trkpt lat="45.66773550845635" lon="3.1041099219623454"><ele>469.0</ele><time>2026-05-02T15:46:00.999Z</time></trkpt><trkpt lat="45.66780578734413" lon="3.1041733067642463"><ele>469.00000000000006</ele><time>2026-05-02T15:46:01.999Z</time></trkpt><trkpt lat="45.66787104168773" lon="3.104246016773104"><ele>469.0</ele><time>2026-05-02T15:46:02.999Z</time></trkpt><trkpt lat="45.667930668020155" lon="3.104328022230523"><ele>468.1666666666667</ele><time>2026-05-02T15:46:03.999Z</time></trkpt><trkpt lat="45.66799288998788" lon="3.104400861226377"><ele>467.33333333333337</ele><time>2026-05-02T15:46:04.999Z</time></trkpt><trkpt lat="45.66805928857469" lon="3.1044764799544278"><ele>466.5</ele><time>2026-05-02T15:46:05.999Z</time></trkpt><trkpt lat="45.66812116692227" lon="3.1045535917506513"><ele>465.66666666666663</ele><time>2026-05-02T15:46:06.999Z</time></trkpt><trkpt lat="45.668178087348934" lon="3.1046265193517044"><ele>464.8333333333333</ele><time>2026-05-02T15:46:07.999Z</time></trkpt><trkpt lat="45.66825012258364" lon="3.10471380861299"><ele>464.0</ele><time>2026-05-02T15:46:08.999Z</time></trkpt><trkpt lat="45.668316486196986" lon="3.104794747440625"><ele>463.99999999999994</ele><time>2026-05-02T15:46:09.999Z</time></trkpt><trkpt lat="45.668378880746246" lon="3.104878825443014"><ele>464.0</ele><time>2026-05-02T15:46:10.999Z</time></trkpt><trkpt lat="45.66843468049005" lon="3.104964301388908"><ele>464.0</ele><time>2026-05-02T15:46:11.999Z</time></trkpt><trkpt lat="45.66847234486582" lon="3.105079056818975"><ele>464.0</ele><time>2026-05-02T15:46:12.999Z</time></trkpt><trkpt lat="45.66850777993513" lon="3.1051883373103357"><ele>463.99999999999994</ele><time>2026-05-02T15:46:13.999Z</time></trkpt><trkpt lat="45.66853724310776" lon="3.105293553367423"><ele>464.0</ele><time>2026-05-02T15:46:14.999Z</time></trkpt><trkpt lat="45.66856044692797" lon="3.1054146424393116"><ele>463.66666666666663</ele><time>2026-05-02T15:46:15.999Z</time></trkpt><trkpt lat="45.66857454061863" lon="3.1055399777832835"><ele>463.3333333333333</ele><time>2026-05-02T15:46:16.999Z</time></trkpt><trkpt lat="45.66858836649125" lon="3.105656843285617"><ele>463.0</ele><time>2026-05-02T15:46:17.999Z</time></trkpt><trkpt lat="45.668601651803634" lon="3.10576913939269"><ele>462.66666666666663</ele><time>2026-05-02T15:46:18.999Z</time></trkpt><trkpt lat="45.66861483492555" lon="3.105874839906492"><ele>462.3333333333333</ele><time>2026-05-02T15:46:19.999Z</time></trkpt><trkpt lat="45.668641914659624" lon="3.1059686758783935"><ele>462.0</ele><time>2026-05-02T15:46:20.999Z</time></trkpt><trkpt lat="45.66865973701917" lon="3.106070532423278"><ele>461.7142857142857</ele><time>2026-05-02T15:46:21.999Z</time></trkpt><trkpt lat="45.668695805945624" lon="3.1061578965127814"><ele>461.42857142857144</ele><time>2026-05-02T15:46:22.999Z</time></trkpt><trkpt lat="45.66874862087008" lon="3.1062191894018163"><ele>461.1428571428571</ele><time>2026-05-02T15:46:23.999Z</time></trkpt><trkpt lat="45.66881104039535" lon="3.1062723977653897"><ele>460.85714285714283</ele><time>2026-05-02T15:46:24.999Z</time></trkpt><trkpt lat="45.66886642804437" lon="3.106320272194271"><ele>460.57142857142856</ele><time>2026-05-02T15:46:25.999Z</time></trkpt><trkpt lat="45.668918097034954" lon="3.106380322098017"><ele>460.2857142857142</ele><time>2026-05-02T15:46:26.999Z</time></trkpt><trkpt lat="45.6689739838228" lon="3.1064439835490534"><ele>459.99999999999994</ele><time>2026-05-02T15:46:27.999Z</time></trkpt><trkpt lat="45.66903531719871" lon="3.1065204506733113"><ele>459.83333333333337</ele><time>2026-05-02T15:46:28.999Z</time></trkpt><trkpt lat="45.669092301035946" lon="3.1065955377294294"><ele>459.6666666666667</ele><time>2026-05-02T15:46:29.999Z</time></trkpt><trkpt lat="45.669147175823745" lon="3.106671938459313"><ele>459.5</ele><time>2026-05-02T15:46:30.999Z</time></trkpt><trkpt lat="45.66919940509766" lon="3.1067347992432977"><ele>459.33333333333337</ele><time>2026-05-02T15:46:31.999Z</time></trkpt><trkpt lat="45.66925519685911" lon="3.106796364767766"><ele>459.1666666666667</ele><time>2026-05-02T15:46:32.999Z</time></trkpt><trkpt lat="45.66934640075075" lon="3.1069127030008987"><ele>459.0</ele><time>2026-05-02T15:46:34.999Z</time></trkpt><trkpt lat="45.66941924887093" lon="3.107012065528444"><ele>459.0</ele><time>2026-05-02T15:46:36.999Z</time></trkpt><trkpt lat="45.66939664889997" lon="3.107138986893559"><ele>459.0</ele><time>2026-05-02T15:46:38.999Z</time></trkpt><trkpt lat="45.669393103510046" lon="3.1072839472311387"><ele>459.0</ele><time>2026-05-02T15:46:40.999Z</time></trkpt><trkpt lat="45.669380519031684" lon="3.107442151834536"><ele>459.0</ele><time>2026-05-02T15:46:42.999Z</time></trkpt><trkpt lat="45.66938469993493" lon="3.107537136047251"><ele>459.0</ele><time>2026-05-02T15:46:43.999Z</time></trkpt><trkpt lat="45.6693902904631" lon="3.107634926852223"><ele>459.0</ele><time>2026-05-02T15:46:44.999Z</time></trkpt><trkpt lat="45.669397001915385" lon="3.1077992490945894"><ele>459.0</ele><time>2026-05-02T15:46:46.999Z</time></trkpt><trkpt lat="45.66940161032368" lon="3.1079300809409847"><ele>459.0</ele><time>2026-05-02T15:46:48.999Z</time></trkpt><trkpt lat="45.66939353990976" lon="3.1080594645965536"><ele>459.0</ele><time>2026-05-02T15:46:50.999Z</time></trkpt><trkpt lat="45.66939622956382" lon="3.1082072835295933"><ele>459.0</ele><time>2026-05-02T15:46:52.999Z</time></trkpt><trkpt lat="45.66939681644866" lon="3.108304060782752"><ele>459.0</ele><time>2026-05-02T15:46:53.999Z</time></trkpt><trkpt lat="45.66939662277647" lon="3.1083962873658137"><ele>459.0</ele><time>2026-05-02T15:46:54.999Z</time></trkpt><trkpt lat="45.669395193750866" lon="3.108494893399087"><ele>458.5</ele><time>2026-05-02T15:46:55.999Z</time></trkpt><trkpt lat="45.6693921549681" lon="3.1085998283443916"><ele>458.0</ele><time>2026-05-02T15:46:56.999Z</time></trkpt><trkpt lat="45.669389633681206" lon="3.1087027185108904"><ele>457.5</ele><time>2026-05-02T15:46:57.999Z</time></trkpt><trkpt lat="45.66938585869468" lon="3.108867532395462"><ele>457.0</ele><time>2026-05-02T15:46:59.999Z</time></trkpt><trkpt lat="45.66942890340821" lon="3.109000831386451"><ele>456.5</ele><time>2026-05-02T15:47:01.999Z</time></trkpt><trkpt lat="45.669474672060595" lon="3.109083207410326"><ele>456.0</ele><time>2026-05-02T15:47:02.999Z</time></trkpt><trkpt lat="45.669514462389984" lon="3.109190233798395"><ele>455.6</ele><time>2026-05-02T15:47:03.999Z</time></trkpt><trkpt lat="45.669566029990165" lon="3.1093274095607786"><ele>455.20000000000005</ele><time>2026-05-02T15:47:04.999Z</time></trkpt><trkpt lat="45.66956656409556" lon="3.10947683565593"><ele>454.79999999999995</ele><time>2026-05-02T15:47:05.999Z</time></trkpt><trkpt lat="45.66960046110954" lon="3.109603842608428"><ele>454.4</ele><time>2026-05-02T15:47:06.999Z</time></trkpt><trkpt lat="45.669635848023006" lon="3.1097364319781424"><ele>454.0</ele><time>2026-05-02T15:47:07.999Z</time></trkpt><trkpt lat="45.669677153581986" lon="3.1098803790201393"><ele>453.5</ele><time>2026-05-02T15:47:08.999Z</time></trkpt><trkpt lat="45.669723752509775" lon="3.11003125853594"><ele>453.0</ele><time>2026-05-02T15:47:09.999Z</time></trkpt><trkpt lat="45.66978693008792" lon="3.1101980982486195"><ele>452.5</ele><time>2026-05-02T15:47:10.999Z</time></trkpt><trkpt lat="45.66985508237911" lon="3.1103586509247387"><ele>452.0</ele><time>2026-05-02T15:47:11.999Z</time></trkpt><trkpt lat="45.66992667879099" lon="3.1105190184776026"><ele>452.0</ele><time>2026-05-02T15:47:12.999Z</time></trkpt><trkpt lat="45.66999570396062" lon="3.110678854812678"><ele>452.0</ele><time>2026-05-02T15:47:13.999Z</time></trkpt><trkpt lat="45.67006264871108" lon="3.1108364386371474"><ele>452.0</ele><time>2026-05-02T15:47:14.999Z</time></trkpt><trkpt lat="45.670122852515306" lon="3.110981731795044"><ele>452.0</ele><time>2026-05-02T15:47:15.999Z</time></trkpt><trkpt lat="45.6701770541383" lon="3.111114010625876"><ele>451.6</ele><time>2026-05-02T15:47:16.999Z</time></trkpt><trkpt lat="45.67023093501357" lon="3.1112455729308377"><ele>451.20000000000005</ele><time>2026-05-02T15:47:17.999Z</time></trkpt><trkpt lat="45.67028193080861" lon="3.1113718750860264"><ele>450.8</ele><time>2026-05-02T15:47:18.999Z</time></trkpt><trkpt lat="45.67032983665359" lon="3.111501436365233"><ele>450.4</ele><time>2026-05-02T15:47:19.999Z</time></trkpt><trkpt lat="45.67037727474259" lon="3.1116365560407546"><ele>450.0</ele><time>2026-05-02T15:47:20.999Z</time></trkpt><trkpt lat="45.67042743222029" lon="3.111777448614141"><ele>449.0</ele><time>2026-05-02T15:47:21.999Z</time></trkpt><trkpt lat="45.670472135867286" lon="3.1119113344683624"><ele>448.0</ele><time>2026-05-02T15:47:22.999Z</time></trkpt><trkpt lat="45.6704957245294" lon="3.1120320254684106"><ele>447.0</ele><time>2026-05-02T15:47:23.999Z</time></trkpt><trkpt lat="45.6705010611487" lon="3.11216275100243"><ele>446.0</ele><time>2026-05-02T15:47:24.999Z</time></trkpt><trkpt lat="45.67051203456646" lon="3.1122956037967433"><ele>445.0</ele><time>2026-05-02T15:47:25.999Z</time></trkpt><trkpt lat="45.67052217467002" lon="3.1124235374869906"><ele>444.0</ele><time>2026-05-02T15:47:26.999Z</time></trkpt><trkpt lat="45.67053203960037" lon="3.112547999139494"><ele>443.0</ele><time>2026-05-02T15:47:27.999Z</time></trkpt><trkpt lat="45.67054055652155" lon="3.1126553068548994"><ele>442.0</ele><time>2026-05-02T15:47:28.999Z</time></trkpt><trkpt lat="45.67054840934024" lon="3.112754270603175"><ele>441.0</ele><time>2026-05-02T15:47:29.999Z</time></trkpt><trkpt lat="45.67055981521069" lon="3.112898010831633"><ele>440.0</ele><time>2026-05-02T15:47:31.999Z</time></trkpt><trkpt lat="45.67068773256467" lon="3.112958961849444"><ele>440.0</ele><time>2026-05-02T15:47:34.999Z</time></trkpt><trkpt lat="45.67077084162706" lon="3.1128724953527382"><ele>440.0</ele><time>2026-05-02T15:47:36.999Z</time></trkpt><trkpt lat="45.6708683751322" lon="3.1128283910698205"><ele>440.0</ele><time>2026-05-02T15:47:38.999Z</time></trkpt><trkpt lat="45.670958715675575" lon="3.112763685014249"><ele>440.0</ele><time>2026-05-02T15:47:40.999Z</time></trkpt><trkpt lat="45.67103496521391" lon="3.1127045922533347"><ele>440.0</ele><time>2026-05-02T15:47:42.999Z</time></trkpt><trkpt lat="45.67121397892724" lon="3.112637397316816"><ele>439.0</ele><time>2026-05-02T15:47:46.999Z</time></trkpt><trkpt lat="45.67125467684538" lon="3.1127267248472483"><ele>439.0</ele><time>2026-05-02T15:47:48.999Z</time></trkpt><trkpt lat="45.671292220439966" lon="3.112831542128002"><ele>439.0</ele><time>2026-05-02T15:47:51.999Z</time></trkpt><trkpt lat="45.67130142036387" lon="3.112940437798295"><ele>439.0</ele><time>2026-05-02T15:47:55.999Z</time></trkpt></trkseg></trk></gpx>